[[{"header":{"parameterUnit":"m.s-1","parameterCategory":1,"la1":31.0,"la2":29.5877,"lo1":-88.7671,"lo2":-86.6584,"dy":0.0162,"dx":0.0185,"nx":115,"ny":88,"refTime":"2024-09-17T06:00:00:Z","depth":0,"parameterNumber":2,"parameterNumberName":"U-component_of_WINDS"},"data":[0.0,0.0,0.0,0.0,0.0,0.0,0.0,0.0,0.0,0.0,0.0,0.0,0.0,0.0,0.0,0.0,0.0,0.0,0.0,0.0,0.0,0.0,0.0,0.0,0.0,0.0,0.0,0.0,0.0,0.0,0.0,0.0,0.0,0.0,0.0,0.0,0.0,0.0,0.0,0.0,0.0,0.0,0.0,0.0,0.0,0.0,0.0,0.0,0.0,0.0,0.0,0.0,0.0,0.0,0.0,0.0,0.0,0.0,0.0,0.0,0.0,0.0,0.0,0.0,0.0,0.0,0.0,0.0,0.0,0.0,0.0,0.0,0.0,0.0,0.0,0.0,0.0,0.0,0.0,0.0,0.0,0.0,0.0,0.0,0.0,0.0,0.0,0.0,0.0,0.0,0.0,0.0,0.0,0.0,0.0,0.0,0.0,0.0,0.0,0.0,0.0,0.0,0.0,0.0,0.0,0.0,0.0,0.0,0.0,0.0,0.0,0.0,0.0,0.0,0.0,0.0,0.0,0.0,0.0,0.0,0.0,0.0,0.0,0.0,0.0,0.0,0.0,0.0,0.0,0.0,0.0,0.0,0.0,0.0,0.0,0.0,0.0,0.0,0.0,0.0,0.0,0.0,0.0,0.0,0.0,0.0,0.0,0.0,0.0,0.0,0.0,0.0,0.0,0.0,0.0,0.0,0.0,0.0,0.0,0.0,0.0,0.0,0.0,0.0,0.0,0.0,0.0,0.0,0.0,0.0,0.0,0.0,0.0,0.0,0.0,0.0,0.0,0.0,0.0,0.0,0.0,0.0,0.0,0.0,0.0,0.0,0.0,0.0,0.0,0.0,0.0,0.0,0.0,0.0,0.0,0.0,0.0,0.0,0.0,0.0,0.0,0.0,0.0,0.0,0.0,0.0,0.0,0.0,0.0,0.0,0.0,0.0,0.0,0.0,0.0,0.0,0.0,0.0,0.0,0.0,0.0,0.0,0.0,0.0,0.0,0.0,0.0,0.0,0.0,0.0,0.0,0.0,0.0,0.0,0.0,0.0,0.0,0.0,0.0,0.0,0.0,0.0,0.0,0.0,0.0,0.0,0.0,0.0,0.0,0.0,0.0,0.0,0.0,0.0,0.0,0.0,0.0,0.0,0.0,0.0,0.0,0.0,0.0,0.0,0.0,0.0,0.0,0.0,0.0,0.0,0.0,0.0,0.0,0.0,0.0,0.0,0.0,0.0,0.0,0.0,0.0,0.0,0.0,0.0,0.0,0.0,0.0,0.0,0.0,0.0,0.0,0.0,0.0,0.0,0.0,0.0,0.0,0.0,0.0,0.0,0.0,0.0,0.0,0.0,0.0,0.0,0.0,0.0,0.0,0.0,0.0,0.0,0.0,0.0,0.0,0.0,0.0,0.0,0.0,0.0,0.0,0.0,0.0,0.0,0.0,0.0,0.0,0.0,0.0,0.0,0.0,0.0,0.0,0.0,0.0,0.0,0.0,0.0,0.0,0.0,0.0,0.0,0.0,0.0,0.0,0.0,0.0,0.0,0.0,0.0,0.0,0.0,0.0,0.0,0.0,0.0,0.0,0.0,0.0,0.0,0.0,0.0,0.0,0.0,0.0,0.0,0.0,0.0,0.0,0.0,0.0,0.0,0.0,0.0,0.0,0.0,0.0,0.0,0.0,0.0,0.0,0.0,0.0,0.0,0.0,0.0,0.0,0.0,0.0,0.0,0.0,0.0,0.0,0.0,0.0,0.0,0.0,0.0,0.0,0.0,0.0,0.0,0.0,0.0,0.0,0.0,0.0,0.0,0.0,0.0,0.0,0.0,0.0,0.0,0.0,0.0,0.0,0.0,0.0,0.0,0.0,0.0,0.0,0.0,0.0,0.0,0.0,0.0,0.0,0.0,0.0,0.0,0.0,0.0,0.0,0.0,0.0,0.0,0.0,0.0,0.0,0.0,0.0,0.0,0.0,0.0,0.0,0.0,0.0,0.0,0.0,0.0,0.0,0.0,0.0,0.0,0.0,0.0,0.0,0.0,0.0,0.0,0.0,0.0,0.0,0.0,0.0,0.0,0.0,0.0,0.0,0.0,0.0,0.0,0.0,0.0,0.0,0.0,0.0,0.0,0.0,0.0,0.0,0.0,0.0,0.0,0.0,0.0,0.0,0.0,0.0,0.0,0.0,0.0,0.0,0.0,0.0,0.0,0.0,0.0,0.0,0.0,0.0,0.0,0.0,0.0,0.0,0.0,0.0,0.0,0.0,0.0,0.0,0.0,0.0,0.0,0.0,0.0,0.0,0.0,0.0,0.0,0.0,0.0,0.0,0.0,0.0,0.0,0.0,0.0,0.0,0.0,0.0,0.0,0.0,0.0,0.0,0.0,0.0,0.0,0.0,0.0,0.0,0.0,0.0,0.0,0.0,0.0,0.0,0.0,0.0,0.0,0.0,0.0,0.0,0.0,0.0,0.0,0.0,0.0,0.0,0.0,0.0,0.0,0.0,0.0,0.0,0.0,0.0,0.0,0.0,0.0,0.0,0.0,0.0,0.0,0.0,0.0,0.0,0.0,0.0,0.0,0.0,0.0,0.0,0.0,0.0,0.0,0.0,0.0,0.0,0.0,0.0,0.0,0.0,0.0,0.0,0.0,0.0,0.0,0.0,0.0,0.0,0.0,0.0,0.0,0.0,0.0,0.0,0.0,0.0,0.0,0.0,0.0,0.0,0.0,0.0,0.0,0.0,0.0,0.0,0.0,0.0,0.0,0.0,0.0,0.0,0.0,0.0,0.0,0.0,0.0,0.0,0.0,0.0,0.0,0.0,0.0,0.0,0.0,0.0,0.0,0.0,0.0,0.0,0.0,0.0,0.0,0.0,0.0,0.0,0.0,0.0,0.0,0.0,0.0,0.0,0.0,0.0,0.0,0.0,0.0,0.0,0.0,0.0,0.0,0.0,0.0,0.0,0.0,0.0,0.0,0.0,0.0,0.0,0.0,0.0,0.0,0.0,0.0,0.0,0.0,0.0,0.0,0.0,0.0,0.0,0.0,0.0,0.0,0.0,0.0,0.0,0.0,0.0,0.0,0.0,0.0,0.0,0.0,0.0,0.0,0.0,0.0,0.0,0.0,0.0,0.0,0.0,0.0,0.0,0.0,0.0,0.0,0.0,0.0,0.0,0.0,0.0,0.0,0.0,0.0,0.0,0.0,0.0,0.0,0.0,0.0,0.0,0.0,0.0,0.0,0.0,0.0,0.0,0.0,0.0,0.0,0.0,0.0,0.0,0.0,0.0,0.0,0.0,0.0,0.0,0.0,0.0,0.0,0.0,0.0,0.0,0.0,0.0,0.0,0.0,0.0,0.0,0.0,0.0,0.0,0.0,0.0,0.0,0.0,0.0,0.0,0.0,0.0,0.0,0.0,0.0,0.0,0.0,0.0,0.0,0.0,0.0,0.0,0.0,0.0,0.0,0.0,0.0,0.0,0.0,0.0,0.0,0.0,0.0,0.0,0.0,0.0,0.0,0.0,0.0,0.0,0.0,0.0,0.0,0.0,0.0,0.0,0.0,0.0,0.0,0.0,0.0,0.0,0.0,0.0,0.0,0.0,0.0,0.0,0.0,0.0,0.0,0.0,0.0,0.0,0.0,0.0,0.0,0.0,0.0,0.0,0.0,0.0,0.0,0.0,0.0,0.0,0.0,0.0,0.0,0.0,0.0,0.0,0.0,0.0,0.0,0.0,0.0,0.0,0.0,0.0,0.0,0.0,0.0,0.0,0.0,0.0,0.0,0.0,0.0,0.0,0.0,0.0,0.0,0.0,0.0,0.0,0.0,0.0,0.0,0.0,0.0,0.0,0.0,0.0,0.0,0.0,0.0,0.0,0.0,0.0,0.0,0.0,0.0,0.0,0.0,0.0,0.0,0.0,0.0,0.0,0.0,0.0,0.0,0.0,0.0,0.0,0.0,0.0,0.0,0.0,0.0,0.0,0.0,0.0,0.0,0.0,0.0,0.0,0.0,0.0,0.0,0.0,0.0,0.0,0.0,0.0,0.0,0.0,0.0,0.0,0.0,0.0,0.0,0.0,0.0,0.0,0.0,0.0,0.0,0.0,0.0,0.0,0.0,0.0,0.0,0.0,0.0,0.0,0.0,0.0,0.0,0.0,0.0,0.0,0.0,0.0,0.0,0.0,0.0,0.0,0.0,0.0,0.0,0.0,0.0,0.0,0.0,0.0,0.0,0.0,0.0,0.0,0.0,0.0,0.0,0.0,0.0,0.0,2.539,0.0,0.0,0.0,0.0,0.0,0.0,0.0,0.0,0.0,0.0,0.0,0.0,0.0,0.0,0.0,0.0,0.0,0.0,0.0,0.0,0.0,0.0,0.0,0.0,0.0,0.0,0.0,0.0,0.0,0.0,0.0,0.0,0.0,0.0,0.0,0.0,0.0,0.0,0.0,0.0,0.0,0.0,0.0,0.0,0.0,0.0,0.0,0.0,0.0,0.0,0.0,0.0,0.0,0.0,0.0,0.0,0.0,0.0,0.0,0.0,0.0,0.0,0.0,0.0,0.0,0.0,0.0,0.0,0.0,0.0,0.0,0.0,0.0,0.0,0.0,0.0,0.0,0.0,0.0,0.0,0.0,0.0,0.0,0.0,0.0,0.0,0.0,0.0,0.0,0.0,0.0,0.0,0.0,0.0,0.0,0.0,0.0,0.0,0.0,0.0,0.0,0.0,0.0,0.0,0.0,0.0,0.0,0.0,0.0,0.0,2.7149,2.5974,2.6745,2.6601,2.536,0.0,0.0,0.0,0.0,0.0,0.0,0.0,0.0,0.0,0.0,0.0,0.0,0.0,0.0,0.0,0.0,0.0,0.0,0.0,0.0,0.0,0.0,0.0,0.0,0.0,0.0,0.0,0.0,0.0,0.0,0.0,0.0,0.0,0.0,0.0,0.0,0.0,0.0,0.0,0.0,0.0,0.0,0.0,0.0,0.0,0.0,0.0,0.0,0.0,0.0,0.0,0.0,0.0,0.0,0.0,0.0,0.0,0.0,0.0,0.0,0.0,0.0,0.0,0.0,0.0,0.0,0.0,0.0,0.0,0.0,0.0,0.0,0.0,0.0,0.0,0.0,0.0,0.0,0.0,0.0,0.0,0.0,0.0,0.0,0.0,0.0,0.0,0.0,0.0,0.0,0.0,0.0,0.0,0.0,0.0,0.0,0.0,0.0,0.0,0.0,0.0,0.0,0.0,0.0,0.0,0.0,0.0,0.0,0.0,0.0,0.0,0.0,2.6447,2.639,2.536,0.0,0.0,0.0,0.0,0.0,0.0,0.0,0.0,0.0,0.0,0.0,0.0,0.0,0.0,0.0,0.0,0.0,0.0,0.0,0.0,0.0,0.0,0.0,0.0,0.0,0.0,0.0,0.0,0.0,0.0,0.0,0.0,0.0,0.0,0.0,0.0,0.0,0.0,0.0,0.0,0.0,0.0,0.0,0.0,0.0,0.0,0.0,0.0,0.0,0.0,0.0,0.0,0.0,0.0,0.0,0.0,0.0,0.0,0.0,0.0,0.0,0.0,0.0,0.0,0.0,0.0,0.0,0.0,0.0,0.0,0.0,0.0,0.0,0.0,0.0,0.0,0.0,0.0,0.0,0.0,0.0,0.0,0.0,0.0,0.0,0.0,0.0,0.0,0.0,0.0,0.0,0.0,0.0,0.0,0.0,0.0,0.0,0.0,0.0,0.0,0.0,0.0,0.0,0.0,0.0,0.0,0.0,0.0,0.0,0.0,2.6553,2.6484,2.7294,0.0,2.5495,0.0,0.0,0.0,0.0,0.0,0.0,0.0,0.0,0.0,0.0,0.0,0.0,0.0,0.0,0.0,0.0,0.0,0.0,0.0,0.0,0.0,0.0,0.0,0.0,0.0,0.0,0.0,0.0,0.0,0.0,0.0,0.0,0.0,0.0,0.0,0.0,0.0,0.0,0.0,0.0,0.0,0.0,0.0,0.0,0.0,0.0,0.0,0.0,0.0,0.0,0.0,0.0,0.0,0.0,0.0,0.0,0.0,0.0,0.0,0.0,0.0,0.0,0.0,0.0,0.0,0.0,0.0,0.0,0.0,0.0,0.0,0.0,0.0,0.0,0.0,0.0,0.0,0.0,0.0,0.0,0.0,0.0,0.0,0.0,0.0,0.0,0.0,0.0,0.0,0.0,0.0,0.0,0.0,0.0,0.0,0.0,0.0,0.0,0.0,0.0,0.0,0.0,0.0,0.0,0.0,0.0,0.0,0.0,0.0,0.0,2.6081,2.6591,2.6437,2.6043,0.0,0.0,0.0,0.0,0.0,0.0,0.0,0.0,0.0,0.0,0.0,0.0,0.0,0.0,0.0,0.0,0.0,0.0,0.0,0.0,0.0,0.0,0.0,0.0,0.0,0.0,0.0,0.0,0.0,0.0,0.0,0.0,0.0,0.0,0.0,0.0,0.0,0.0,0.0,0.0,0.0,0.0,0.0,0.0,0.0,0.0,0.0,0.0,0.0,0.0,0.0,0.0,0.0,0.0,0.0,0.0,0.0,0.0,0.0,0.0,0.0,0.0,0.0,0.0,0.0,0.0,0.0,0.0,0.0,0.0,0.0,0.0,0.0,0.0,0.0,0.0,0.0,0.0,0.0,0.0,0.0,0.0,0.0,0.0,0.0,0.0,0.0,0.0,0.0,0.0,0.0,0.0,0.0,0.0,0.0,0.0,0.0,0.0,0.0,0.0,0.0,0.0,0.0,0.0,0.0,0.0,0.0,0.0,0.0,0.0,2.5427,2.5716,2.6524,2.6005,2.5447,2.5005,0.0,0.0,0.0,0.0,0.0,0.0,0.0,0.0,0.0,0.0,0.0,0.0,0.0,0.0,0.0,0.0,0.0,0.0,0.0,0.0,0.0,0.0,0.0,0.0,0.0,0.0,0.0,0.0,0.0,0.0,0.0,0.0,0.0,0.0,0.0,0.0,0.0,0.0,0.0,0.0,0.0,0.0,0.0,0.0,0.0,0.0,0.0,0.0,0.0,0.0,0.0,0.0,0.0,0.0,0.0,0.0,0.0,0.0,0.0,0.0,0.0,0.0,0.0,0.0,0.0,0.0,0.0,0.0,0.0,0.0,0.0,0.0,0.0,0.0,0.0,0.0,0.0,0.0,0.0,0.0,0.0,0.0,0.0,0.0,0.0,0.0,0.0,0.0,0.0,0.0,0.0,0.0,0.0,0.0,0.0,0.0,0.0,0.0,0.0,0.0,0.0,0.0,0.0,0.0,0.0,0.0,0.0,0.0,0.0,2.5726,2.5726,2.6582,2.6544,2.5793,0.0,0.0,0.0,0.0,0.0,0.0,0.0,0.0,0.0,0.0,0.0,0.0,0.0,0.0,0.0,0.0,0.0,0.0,0.0,0.0,0.0,0.0,0.0,0.0,0.0,0.0,0.0,0.0,0.0,0.0,0.0,0.0,0.0,0.0,0.0,0.0,0.0,0.0,0.0,0.0,0.0,0.0,0.0,0.0,0.0,0.0,0.0,0.0,0.0,0.0,0.0,0.0,0.0,0.0,0.0,0.0,0.0,0.0,0.0,0.0,0.0,0.0,0.0,0.0,0.0,0.0,0.0,0.0,0.0,0.0,0.0,0.0,0.0,0.0,0.0,0.0,0.0,0.0,0.0,0.0,0.0,0.0,0.0,0.0,0.0,0.0,0.0,0.0,0.0,0.0,0.0,0.0,0.0,0.0,0.0,0.0,0.0,0.0,0.0,0.0,0.0,0.0,0.0,0.0,0.0,0.0,0.0,0.0,0.0,2.5745,2.6005,2.6341,2.6792,2.5659,2.4649,0.0,0.0,0.0,0.0,0.0,0.0,0.0,0.0,0.0,0.0,0.0,0.0,0.0,0.0,0.0,0.0,0.0,0.0,0.0,0.0,0.0,0.0,0.0,0.0,0.0,0.0,0.0,0.0,0.0,0.0,0.0,0.0,0.0,0.0,0.0,0.0,0.0,0.0,0.0,0.0,0.0,0.0,0.0,0.0,0.0,0.0,0.0,0.0,0.0,0.0,0.0,0.0,0.0,0.0,0.0,0.0,0.0,0.0,0.0,0.0,0.0,0.0,0.0,0.0,0.0,0.0,0.0,0.0,0.0,0.0,0.0,0.0,0.0,0.0,0.0,0.0,0.0,0.0,0.0,0.0,0.0,0.0,0.0,0.0,0.0,0.0,0.0,0.0,0.0,0.0,0.0,0.0,0.0,0.0,0.0,0.0,0.0,0.0,0.0,0.0,0.0,0.0,0.0,0.0,0.0,0.0,0.0,0.0,0.0,2.5322,0.0,2.6264,0.0,2.4928,2.388,0.0,0.0,0.0,0.0,0.0,0.0,0.0,0.0,0.0,0.0,0.0,0.0,0.0,0.0,0.0,0.0,0.0,0.0,0.0,0.0,0.0,0.0,0.0,0.0,0.0,0.0,0.0,0.0,0.0,0.0,0.0,0.0,0.0,0.0,0.0,0.0,0.0,0.0,0.0,0.0,0.0,0.0,0.0,0.0,0.0,0.0,0.0,0.0,0.0,0.0,0.0,0.0,0.0,0.0,0.0,0.0,0.0,0.0,0.0,0.0,0.0,0.0,0.0,0.0,0.0,0.0,0.0,0.0,0.0,0.0,0.0,0.0,0.0,0.0,0.0,0.0,0.0,0.0,0.0,0.0,0.0,0.0,0.0,0.0,0.0,0.0,0.0,0.0,0.0,0.0,0.0,0.0,0.0,0.0,0.0,0.0,0.0,0.0,0.0,0.0,0.0,0.0,0.0,0.0,0.0,0.0,0.0,0.0,2.5264,2.5264,2.5303,2.536,2.5313,2.4485,2.3592,0.0,0.0,0.0,0.0,0.0,0.0,0.0,0.0,0.0,0.0,0.0,0.0,0.0,0.0,0.0,0.0,0.0,0.0,0.0,0.0,0.0,0.0,0.0,0.0,0.0,0.0,0.0,0.0,0.0,0.0,0.0,0.0,0.0,0.0,0.0,0.0,0.0,0.0,0.0,0.0,0.0,0.0,0.0,0.0,0.0,0.0,0.0,0.0,0.0,0.0,0.0,0.0,0.0,0.0,0.0,0.0,0.0,0.0,0.0,0.0,0.0,0.0,0.0,0.0,0.0,0.0,0.0,0.0,0.0,0.0,0.0,0.0,0.0,0.0,0.0,0.0,0.0,0.0,0.0,0.0,0.0,0.0,0.0,0.0,0.0,0.0,0.0,0.0,0.0,0.0,0.0,0.0,0.0,0.0,0.0,0.0,0.0,0.0,0.0,0.0,0.0,0.0,0.0,0.0,0.0,0.0,0.0,0.0,0.0,2.4485,2.5024,2.5313,2.5264,2.385,2.2847,0.0,0.0,0.0,0.0,0.0,0.0,0.0,0.0,0.0,0.0,0.0,0.0,0.0,0.0,0.0,0.0,0.0,0.0,0.0,0.0,0.0,0.0,0.0,0.0,0.0,0.0,0.0,0.0,0.0,0.0,0.0,0.0,0.0,0.0,0.0,0.0,0.0,0.0,0.0,0.0,0.0,0.0,0.0,0.0,0.0,0.0,0.0,0.0,0.0,0.0,0.0,0.0,0.0,0.0,0.0,0.0,0.0,0.0,0.0,0.0,0.0,0.0,0.0,0.0,0.0,0.0,0.0,0.0,0.0,0.0,0.0,0.0,0.0,0.0,0.0,0.0,0.0,0.0,0.0,0.0,0.0,0.0,0.0,0.0,0.0,0.0,0.0,0.0,0.0,0.0,0.0,0.0,0.0,0.0,0.0,0.0,0.0,0.0,0.0,0.0,0.0,0.0,0.0,0.0,0.0,0.0,0.0,0.0,0.0,2.4149,2.487,2.5313,2.5313,2.3828,2.2799,2.2313,0.0,0.0,0.0,0.0,0.0,0.0,0.0,0.0,0.0,0.0,0.0,0.0,0.0,0.0,0.0,0.0,0.0,0.0,0.0,0.0,0.0,0.0,0.0,0.0,0.0,0.0,0.0,0.0,0.0,0.0,0.0,0.0,0.0,0.0,0.0,0.0,0.0,0.0,0.0,0.0,0.0,0.0,0.0,0.0,0.0,0.0,0.0,0.0,0.0,0.0,0.0,0.0,0.0,0.0,0.0,0.0,0.0,0.0,0.0,0.0,0.0,0.0,0.0,0.0,0.0,0.0,0.0,0.0,0.0,0.0,0.0,0.0,0.0,0.0,0.0,0.0,0.0,0.0,0.0,0.0,0.0,0.0,0.0,0.0,0.0,0.0,0.0,0.0,0.0,0.0,0.0,0.0,0.0,0.0,0.0,0.0,0.0,0.0,0.0,0.0,0.0,0.0,0.0,0.0,0.0,0.0,0.0,0.0,2.4187,2.4909,2.5303,2.5274,2.4304,2.3346,0.0,0.0,0.0,0.0,0.0,0.0,0.0,0.0,0.0,0.0,0.0,0.0,0.0,0.0,0.0,0.0,0.0,0.0,0.0,0.0,0.0,0.0,0.0,0.0,0.0,0.0,0.0,0.0,0.0,0.0,0.0,0.0,0.0,0.0,0.0,0.0,0.0,0.0,0.0,0.0,0.0,0.0,0.0,0.0,0.0,0.0,0.0,0.0,0.0,0.0,0.0,0.0,0.0,0.0,0.0,0.0,0.0,0.0,0.0,0.0,0.0,0.0,0.0,0.0,0.0,0.0,0.0,0.0,0.0,0.0,0.0,0.0,0.0,0.0,0.0,0.0,0.0,0.0,0.0,0.0,0.0,0.0,0.0,0.0,0.0,0.0,0.0,0.0,0.0,0.0,0.0,0.0,0.0,0.0,0.0,0.0,0.0,0.0,0.0,0.0,0.0,0.0,0.0,0.0,0.0,0.0,0.0,0.0,0.0,2.4986,2.5187,2.5224,2.5069,2.4106,2.3412,0.0,0.0,0.0,0.0,0.0,0.0,0.0,0.0,0.0,0.0,0.0,0.0,0.0,0.0,0.0,0.0,0.0,0.0,0.0,0.0,0.0,0.0,0.0,0.0,0.0,0.0,0.0,0.0,0.0,0.0,0.0,0.0,0.0,0.0,0.0,0.0,0.0,0.0,0.0,0.0,0.0,0.0,0.0,0.0,0.0,0.0,0.0,0.0,0.0,0.0,0.0,0.0,0.0,0.0,0.0,0.0,0.0,0.0,0.0,0.0,0.0,0.0,0.0,0.0,0.0,0.0,0.0,0.0,0.0,0.0,0.0,0.0,0.0,0.0,0.0,0.0,0.0,0.0,0.0,0.0,0.0,0.0,0.0,0.0,0.0,0.0,0.0,0.0,0.0,0.0,0.0,0.0,0.0,0.0,0.0,0.0,0.0,0.0,0.0,0.0,0.0,0.0,0.0,0.0,0.0,0.0,0.0,0.0,2.4639,2.4666,2.4666,2.453,2.4293,2.4138,2.3813,0.0,0.0,0.0,0.0,0.0,0.0,0.0,0.0,0.0,0.0,0.0,0.0,0.0,0.0,0.0,0.0,0.0,0.0,0.0,0.0,0.0,0.0,0.0,0.0,0.0,0.0,0.0,0.0,0.0,0.0,0.0,0.0,0.0,0.0,0.0,0.0,0.0,0.0,0.0,0.0,0.0,0.0,0.0,0.0,0.0,0.0,0.0,0.0,0.0,0.0,0.0,0.0,0.0,0.0,0.0,0.0,0.0,0.0,0.0,0.0,0.0,0.0,0.0,0.0,0.0,0.0,0.0,0.0,0.0,0.0,0.0,0.0,0.0,0.0,0.0,0.0,0.0,0.0,0.0,0.0,0.0,0.0,0.0,0.0,0.0,0.0,0.0,0.0,0.0,0.0,0.0,0.0,0.0,0.0,0.0,0.0,0.0,0.0,0.0,0.0,0.0,0.0,0.0,0.0,0.0,0.0,0.0,0.0,2.4782,2.3976,2.3774,2.3506,2.3129,2.4088,2.42,0.0,0.0,0.0,0.0,0.0,0.0,0.0,0.0,0.0,0.0,0.0,0.0,0.0,0.0,0.0,0.0,0.0,0.0,0.0,0.0,0.0,0.0,0.0,0.0,0.0,0.0,0.0,0.0,0.0,0.0,0.0,0.0,0.0,0.0,0.0,0.0,0.0,0.0,0.0,0.0,0.0,0.0,0.0,0.0,0.0,0.0,0.0,0.0,0.0,0.0,0.0,0.0,0.0,0.0,0.0,0.0,0.0,0.0,0.0,0.0,0.0,0.0,0.0,0.0,0.0,0.0,0.0,0.0,0.0,0.0,0.0,0.0,0.0,0.0,0.0,0.0,0.0,0.0,0.0,0.0,0.0,0.0,0.0,0.0,0.0,0.0,0.0,0.0,0.0,0.0,0.0,0.0,0.0,0.0,0.0,0.0,0.0,0.0,0.0,0.0,0.0,0.0,0.0,0.0,0.0,0.0,0.0,0.0,2.4562,2.4938,2.3605,2.2488,2.1757,2.2958,2.3454,0.0,0.0,0.0,0.0,0.0,0.0,0.0,0.0,0.0,0.0,0.0,0.0,0.0,0.0,0.0,0.0,0.0,0.0,0.0,0.0,0.0,0.0,0.0,0.0,0.0,0.0,0.0,0.0,0.0,0.0,0.0,0.0,0.0,0.0,0.0,0.0,0.0,0.0,0.0,0.0,0.0,0.0,0.0,0.0,0.0,0.0,0.0,0.0,2.2293,0.0,0.0,0.0,0.0,0.0,0.0,0.0,0.0,0.0,0.0,0.0,0.0,0.0,0.0,0.0,0.0,0.0,0.0,0.0,0.0,0.0,0.0,0.0,0.0,0.0,0.0,0.0,0.0,0.0,0.0,0.0,0.0,0.0,0.0,0.0,0.0,0.0,0.0,0.0,0.0,0.0,0.0,0.0,0.0,0.0,0.0,0.0,0.0,0.0,0.0,0.0,0.0,0.0,0.0,0.0,0.0,0.0,0.0,0.0,2.3828,2.3538,2.2386,2.1309,2.0446,2.132,2.2022,0.0,0.0,0.0,0.0,0.0,0.0,0.0,0.0,0.0,0.0,0.0,0.0,0.0,0.0,0.0,0.0,0.0,0.0,0.0,0.0,0.0,0.0,0.0,0.0,0.0,0.0,0.0,0.0,0.0,0.0,0.0,0.0,0.0,0.0,0.0,0.0,0.0,0.0,0.0,0.0,0.0,0.0,0.0,0.0,0.0,0.0,0.0,0.0,0.0,0.0,0.0,0.0,0.0,0.0,0.0,0.0,0.0,0.0,0.0,0.0,0.0,0.0,0.0,0.0,0.0,0.0,0.0,0.0,0.0,0.0,0.0,0.0,0.0,0.0,0.0,0.0,0.0,0.0,0.0,0.0,0.0,0.0,0.0,0.0,0.0,0.0,0.0,0.0,0.0,0.0,0.0,0.0,0.0,0.0,0.0,0.0,0.0,0.0,0.0,0.0,0.0,0.0,0.0,0.0,0.0,0.0,0.0,2.3417,2.2943,2.1599,2.0827,2.0055,1.9344,1.9809,2.0479,2.1312,0.0,0.0,0.0,0.0,0.0,0.0,0.0,0.0,0.0,0.0,0.0,0.0,0.0,0.0,0.0,0.0,0.0,0.0,0.0,0.0,0.0,0.0,0.0,0.0,0.0,0.0,0.0,0.0,0.0,0.0,0.0,0.0,0.0,0.0,0.0,0.0,0.0,0.0,2.4036,2.3774,0.0,0.0,0.0,0.0,0.0,0.0,0.0,0.0,2.2248,0.0,0.0,0.0,0.0,0.0,0.0,0.0,0.0,0.0,0.0,0.0,0.0,0.0,0.0,0.0,0.0,0.0,0.0,0.0,0.0,0.0,0.0,0.0,0.0,0.0,0.0,0.0,0.0,0.0,0.0,0.0,0.0,0.0,0.0,0.0,0.0,0.0,0.0,0.0,0.0,0.0,0.0,0.0,0.0,0.0,0.0,0.0,0.0,0.0,0.0,0.0,0.0,0.0,0.0,0.0,0.0,2.3879,2.3169,2.2334,2.136,1.9682,1.8952,1.9308,1.9405,1.9454,1.945,0.0,0.0,0.0,0.0,0.0,0.0,0.0,0.0,0.0,0.0,0.0,0.0,0.0,0.0,0.0,0.0,0.0,0.0,0.0,0.0,0.0,0.0,0.0,0.0,0.0,0.0,0.0,0.0,0.0,0.0,0.0,0.0,0.0,0.0,0.0,0.0,0.0,0.0,0.0,2.3069,2.2764,0.0,0.0,0.0,0.0,0.0,0.0,0.0,0.0,2.2153,0.0,0.0,0.0,0.0,0.0,0.0,0.0,0.0,0.0,0.0,0.0,0.0,0.0,0.0,0.0,0.0,0.0,0.0,0.0,0.0,0.0,0.0,0.0,0.0,0.0,0.0,0.0,0.0,0.0,0.0,0.0,0.0,0.0,0.0,0.0,0.0,0.0,0.0,0.0,0.0,0.0,0.0,0.0,0.0,0.0,0.0,0.0,0.0,0.0,0.0,0.0,0.0,0.0,0.0,0.0,2.3409,2.2798,2.1787,2.0425,1.8988,1.8324,1.8467,1.8358,1.8266,0.0,0.0,0.0,0.0,0.0,0.0,0.0,0.0,0.0,0.0,0.0,0.0,0.0,0.0,0.0,0.0,0.0,0.0,0.0,0.0,0.0,0.0,0.0,0.0,0.0,0.0,0.0,0.0,0.0,0.0,0.0,0.0,0.0,0.0,0.0,0.0,0.0,0.0,0.0,0.0,2.3069,2.2721,2.2027,0.0,0.0,0.0,0.0,0.0,0.0,2.1475,2.1549,0.0,0.0,0.0,0.0,0.0,0.0,0.0,0.0,0.0,0.0,0.0,0.0,0.0,0.0,0.0,0.0,0.0,0.0,0.0,0.0,0.0,0.0,0.0,0.0,0.0,0.0,0.0,0.0,0.0,0.0,0.0,0.0,0.0,0.0,0.0,0.0,0.0,0.0,0.0,0.0,0.0,0.0,0.0,0.0,0.0,0.0,0.0,0.0,0.0,0.0,0.0,0.0,0.0,0.0,0.0,2.2862,2.2502,2.1437,1.9673,1.8456,1.7829,1.7716,1.7263,1.7029,0.0,0.0,0.0,0.0,0.0,0.0,0.0,0.0,0.0,0.0,0.0,0.0,0.0,0.0,0.0,0.0,0.0,0.0,0.0,0.0,0.0,0.0,0.0,0.0,0.0,0.0,0.0,0.0,0.0,0.0,0.0,0.0,0.0,0.0,0.0,0.0,0.0,0.0,0.0,0.0,0.0,2.2635,2.1744,2.184,0.0,0.0,0.0,0.0,2.0916,2.0939,0.0,0.0,0.0,0.0,0.0,0.0,0.0,0.0,0.0,0.0,0.0,0.0,0.0,0.0,0.0,0.0,0.0,0.0,0.0,0.0,0.0,0.0,0.0,0.0,0.0,0.0,0.0,0.0,0.0,0.0,0.0,0.0,0.0,0.0,0.0,0.0,0.0,0.0,0.0,0.0,0.0,0.0,0.0,0.0,0.0,0.0,0.0,0.0,0.0,0.0,0.0,0.0,0.0,0.0,0.0,0.0,2.2803,2.2475,2.1475,1.9797,1.7974,1.7278,1.776,1.6399,1.5791,0.0,0.0,0.0,0.0,0.0,0.0,0.0,0.0,0.0,0.0,0.0,0.0,0.0,0.0,0.0,0.0,0.0,0.0,0.0,0.0,0.0,0.0,0.0,0.0,0.0,0.0,0.0,0.0,0.0,0.0,0.0,0.0,0.0,0.0,0.0,0.0,0.0,0.0,0.0,0.0,0.0,2.2085,2.1672,2.1337,2.1086,0.0,0.0,2.0894,2.0448,2.073,0.0,0.0,0.0,0.0,0.0,0.0,0.0,0.0,0.0,0.0,0.0,0.0,0.0,0.0,0.0,0.0,0.0,0.0,0.0,0.0,0.0,0.0,0.0,0.0,0.0,0.0,0.0,0.0,0.0,0.0,0.0,0.0,0.0,0.0,0.0,0.0,0.0,0.0,0.0,0.0,0.0,0.0,0.0,0.0,0.0,0.0,0.0,0.0,0.0,0.0,0.0,0.0,0.0,0.0,0.0,2.2785,2.2747,2.2448,2.1457,1.9701,1.7866,1.6972,1.7116,1.5846,1.5223,0.0,0.0,0.0,0.0,0.0,0.0,0.0,0.0,0.0,0.0,0.0,0.0,0.0,0.0,0.0,0.0,0.0,0.0,0.0,0.0,0.0,0.0,0.0,0.0,0.0,0.0,0.0,0.0,0.0,0.0,0.0,0.0,0.0,0.0,0.0,0.0,0.0,0.0,0.0,0.0,0.0,0.0,2.1321,2.1118,0.0,0.0,0.0,2.035,1.9626,0.0,0.0,0.0,0.0,0.0,0.0,0.0,0.0,0.0,0.0,0.0,0.0,0.0,0.0,0.0,0.0,0.0,0.0,0.0,0.0,0.0,0.0,0.0,0.0,0.0,0.0,0.0,0.0,0.0,0.0,0.0,0.0,0.0,0.0,0.0,0.0,0.0,0.0,0.0,0.0,0.0,0.0,0.0,0.0,0.0,0.0,0.0,0.0,0.0,0.0,0.0,0.0,0.0,0.0,0.0,0.0,0.0,2.2304,2.2237,2.1285,1.9335,1.7674,1.6624,1.6211,1.5201,0.0,0.0,0.0,0.0,0.0,0.0,0.0,0.0,0.0,0.0,0.0,0.0,0.0,0.0,0.0,0.0,0.0,0.0,0.0,0.0,0.0,0.0,0.0,0.0,0.0,0.0,0.0,1.4749,0.0,0.0,0.0,0.0,0.0,0.0,0.0,0.0,0.0,0.0,0.0,0.0,0.0,0.0,2.1678,2.091,2.0747,2.0398,0.0,0.0,1.9638,1.8838,1.8688,1.8547,0.0,0.0,0.0,0.0,0.0,0.0,0.0,0.0,0.0,0.0,0.0,0.0,0.0,0.0,0.0,0.0,0.0,0.0,0.0,0.0,0.0,0.0,0.0,0.0,0.0,0.0,0.0,0.0,0.0,0.0,0.0,0.0,0.0,0.0,0.0,0.0,0.0,0.0,0.0,0.0,0.0,0.0,0.0,0.0,0.0,0.0,0.0,0.0,0.0,0.0,0.0,0.0,0.0,0.0,0.0,2.1254,2.1746,2.0882,1.8559,1.7266,1.6175,1.5228,1.4224,1.3642,0.0,0.0,0.0,0.0,0.0,0.0,0.0,0.0,0.0,0.0,0.0,0.0,0.0,0.0,0.0,0.0,0.0,0.0,0.0,0.0,0.0,0.0,0.0,0.0,0.0,0.0,0.0,0.0,0.0,0.0,0.0,0.0,0.0,0.0,0.0,0.0,0.0,0.0,0.0,0.0,0.0,2.124,2.0467,2.0035,1.9588,0.0,0.0,1.8792,1.8245,1.8167,1.815,1.8091,0.0,0.0,0.0,0.0,0.0,0.0,0.0,0.0,0.0,0.0,0.0,0.0,0.0,0.0,0.0,0.0,0.0,0.0,0.0,0.0,0.0,0.0,0.0,0.0,0.0,0.0,0.0,0.0,0.0,0.0,0.0,0.0,0.0,0.0,0.0,0.0,0.0,0.0,0.0,0.0,0.0,0.0,0.0,0.0,0.0,0.0,0.0,0.0,0.0,0.0,0.0,0.0,0.0,2.1878,2.0939,2.1625,2.0774,1.8301,1.7162,1.6127,1.5125,1.4106,1.354,0.0,0.0,0.0,0.0,0.0,0.0,0.0,0.0,0.0,0.0,0.0,0.0,0.0,0.0,0.0,0.0,0.0,0.0,0.0,0.0,0.0,0.0,0.0,0.0,0.0,0.0,0.0,0.0,1.6353,1.7004,1.7887,0.0,0.0,0.0,0.0,0.0,0.0,0.0,0.0,0.0,0.0,2.0536,1.9939,1.9773,0.0,0.0,1.8686,1.8604,1.7727,1.7612,1.7508,1.7149,1.7361,0.0,0.0,0.0,0.0,0.0,0.0,0.0,0.0,0.0,0.0,0.0,0.0,0.0,0.0,0.0,0.0,0.0,0.0,0.0,0.0,0.0,0.0,0.0,0.0,0.0,0.0,0.0,0.0,0.0,0.0,0.0,0.0,0.0,0.0,0.0,0.0,0.0,0.0,0.0,0.0,0.0,0.0,0.0,0.0,0.0,0.0,0.0,0.0,0.0,0.0,0.0,0.0,2.1709,2.073,2.1529,2.0548,1.7713,1.6917,1.5944,1.4682,1.3926,1.3613,0.0,0.0,0.0,0.0,0.0,0.0,0.0,0.0,0.0,0.0,0.0,0.0,0.0,0.0,0.0,0.0,0.0,0.0,0.0,0.0,0.0,0.0,0.0,0.0,0.0,0.0,0.0,0.0,1.6383,1.7015,1.7937,0.0,0.0,0.0,0.0,0.0,0.0,0.0,0.0,0.0,0.0,2.0093,1.9477,1.9449,1.9095,1.8013,1.8153,1.8031,1.6955,1.6777,1.667,1.6194,0.0,0.0,0.0,0.0,0.0,0.0,0.0,0.0,0.0,0.0,0.0,0.0,0.0,0.0,0.0,0.0,0.0,0.0,0.0,0.0,0.0,0.0,0.0,0.0,0.0,0.0,0.0,1.5671,0.0,0.0,1.4558,0.0,0.0,0.0,0.0,0.0,0.0,0.0,0.0,0.0,0.0,0.0,0.0,0.0,0.0,0.0,0.0,0.0,0.0,0.0,0.0,0.0,0.0,2.1522,2.0537,2.138,2.0124,1.679,1.6478,1.5544,1.3719,1.3495,1.3735,1.4427,0.0,0.0,0.0,0.0,0.0,0.0,0.0,0.0,0.0,0.0,0.0,0.0,0.0,0.0,0.0,0.0,0.0,0.0,0.0,0.0,0.0,0.0,0.0,0.0,0.0,0.0,1.6738,1.7285,1.7653,0.0,0.0,0.0,0.0,0.0,0.0,0.0,0.0,0.0,0.0,2.0782,1.9954,1.9029,1.893,1.8535,1.7463,1.7325,1.6957,1.5831,1.5648,1.555,0.0,0.0,0.0,0.0,0.0,0.0,0.0,0.0,0.0,0.0,0.0,0.0,0.0,0.0,0.0,0.0,0.0,0.0,0.0,0.0,0.0,0.0,0.0,0.0,0.0,0.0,0.0,1.6143,1.5377,0.0,0.0,0.0,0.0,0.0,0.0,0.0,0.0,0.0,0.0,0.0,1.9137,2.012,0.0,0.0,0.0,0.0,0.0,0.0,0.0,0.0,0.0,0.0,0.0,0.0,2.1947,2.0594,2.1188,1.9936,1.6721,1.6284,1.5313,1.3669,1.3462,1.3543,1.3913,0.0,0.0,0.0,0.0,0.0,0.0,0.0,0.0,0.0,0.0,0.0,0.0,0.0,0.0,0.0,0.0,0.0,0.0,0.0,0.0,0.0,0.0,0.0,0.0,0.0,1.5476,0.0,0.0,0.0,0.0,0.0,0.0,0.0,0.0,0.0,0.0,0.0,2.0575,2.0669,1.9924,1.9126,1.8458,1.838,1.784,0.0,0.0,0.0,0.0,0.0,0.0,0.0,0.0,0.0,0.0,0.0,0.0,0.0,0.0,1.6348,1.6987,1.739,1.7751,1.7909,0.0,0.0,0.0,0.0,0.0,0.0,0.0,0.0,0.0,0.0,0.0,0.0,0.0,0.0,1.5909,0.0,1.5814,0.0,0.0,0.0,0.0,0.0,0.0,0.0,0.0,1.7511,1.7927,1.8187,1.9316,2.0204,0.0,2.1229,2.1233,0.0,0.0,0.0,0.0,0.0,0.0,0.0,0.0,2.2061,2.0895,2.1077,1.9668,1.6576,1.6308,1.5401,1.361,1.3599,1.3705,1.3826,1.4311,1.4745,0.0,0.0,0.0,0.0,0.0,0.0,0.0,0.0,0.0,0.0,0.0,0.0,0.0,0.0,0.0,0.0,0.0,0.0,0.0,0.0,0.0,0.0,0.0,1.4741,0.0,0.0,0.0,0.0,0.0,0.0,0.0,0.0,0.0,2.1258,2.0774,2.0239,2.0062,1.9383,1.8574,1.7626,0.0,0.0,0.0,0.0,0.0,0.0,0.0,1.4446,1.465,1.4676,1.4764,1.5064,1.5371,1.5497,1.5202,0.0,0.0,1.5945,1.6247,1.6345,1.6414,1.589,1.5271,1.4852,1.4372,1.3764,0.0,0.0,0.0,0.0,0.0,0.0,0.0,0.0,1.5285,1.5381,0.0,1.5781,0.0,0.0,0.0,0.0,0.0,1.5489,0.0,0.0,1.6198,1.6241,1.6342,1.7303,1.8061,1.8639,2.0303,2.1083,2.0975,2.1227,0.0,0.0,0.0,0.0,0.0,0.0,2.1793,2.1366,2.1054,1.9283,1.6167,1.65,1.5679,1.3498,1.382,1.4078,1.4225,1.4866,1.5446,1.5754,1.5184,0.0,0.0,0.0,0.0,0.0,0.0,0.0,0.0,0.0,0.0,0.0,0.0,0.0,0.0,0.0,0.0,0.0,0.0,0.0,0.0,1.4465,0.0,0.0,0.0,0.0,0.0,0.0,0.0,0.0,0.0,0.0,2.0706,2.0512,2.0059,1.9615,0.0,0.0,0.0,0.0,1.5947,1.4835,1.4652,1.4448,1.386,1.3793,1.3715,1.3573,0.0,0.0,1.3542,1.4551,1.5078,1.4297,1.3978,1.3995,1.4619,1.4333,1.4029,1.4153,1.3506,1.2906,1.3042,1.284,1.2322,1.4025,0.0,0.0,0.0,0.0,1.3869,1.4371,1.5266,1.5405,1.5243,1.4865,1.5018,0.0,0.0,0.0,0.0,0.0,0.0,1.4227,1.4451,1.4809,1.5033,1.5077,1.6191,1.7079,1.7723,1.8523,1.9299,1.999,2.0391,2.0863,2.1351,0.0,0.0,0.0,0.0,2.226,2.1102,2.0758,1.9133,1.6062,1.6282,1.5356,1.3103,1.3304,1.37,1.4177,1.4668,1.5219,1.5754,1.5634,0.0,0.0,0.0,0.0,0.0,0.0,0.0,0.0,0.0,0.0,0.0,0.0,0.0,0.0,0.0,0.0,0.0,0.0,0.0,1.2962,1.3263,1.3593,0.0,0.0,0.0,0.0,0.0,0.0,0.0,0.0,0.0,1.8893,1.9157,1.9104,0.0,0.0,1.6957,1.6476,1.5684,1.4903,1.4133,1.405,0.0,1.3273,1.3168,1.3228,1.3438,1.3749,1.3932,1.3949,1.4258,1.4369,1.4107,1.4077,1.3855,1.3226,1.289,1.2659,1.2661,1.246,1.2111,1.1638,1.1425,1.1092,1.3641,1.3409,1.2745,1.2986,1.3768,1.3768,1.4204,1.4858,1.5095,1.4896,1.435,1.461,1.416,1.3263,1.272,0.0,0.0,0.0,1.2686,1.2916,1.301,1.3037,1.3121,1.4326,1.5252,1.5858,1.6604,1.7571,1.8651,1.9161,1.9878,2.083,0.0,0.0,2.2695,2.2494,2.186,2.0767,2.0166,1.8697,1.6345,1.5818,1.4656,1.2781,1.3125,1.3565,1.4023,1.4528,1.5124,1.5784,1.6053,1.607,0.0,0.0,0.0,0.0,0.0,0.0,0.0,0.0,0.0,0.0,0.0,1.3611,1.3084,0.0,0.0,0.0,1.2328,1.2215,1.2604,1.2858,0.0,0.0,0.0,0.0,0.0,0.0,0.0,1.7567,1.7538,1.7526,1.776,1.8085,1.8058,1.7504,1.6844,1.625,1.5784,0.0,1.4236,1.3862,1.36,1.3324,1.2968,1.2891,1.2998,1.3213,1.3606,1.3768,1.3657,1.3896,1.4062,1.3883,1.3676,1.3271,1.2597,1.1842,1.1166,1.117,1.1084,1.0739,1.0169,1.0122,0.996,1.3389,1.2978,1.2958,1.3266,1.3779,1.3732,1.3779,1.3815,1.4329,1.4262,1.3762,1.4334,1.4212,1.357,1.2299,0.0,1.258,1.1323,1.104,1.1504,1.0998,1.0695,1.0772,1.2113,1.2992,1.3445,1.4856,1.6059,1.7137,1.7772,1.8627,1.9692,2.0911,2.1903,2.253,2.1659,2.0969,2.0437,1.9433,1.8149,1.6644,1.5185,1.3762,1.2431,1.3129,1.3664,1.3895,1.4468,1.5109,1.5769,1.6308,1.6437,1.5966,0.0,0.0,0.0,0.0,0.0,0.0,0.0,0.0,0.0,0.0,0.0,0.0,0.0,0.0,0.0,1.2261,0.0,1.2748,1.2808,0.0,0.0,0.0,1.3948,1.4495,1.4605,1.523,1.6822,0.0,0.0,1.7076,1.7145,1.6956,1.6416,1.6348,1.5947,1.488,1.419,1.3768,1.3768,1.3286,1.2939,1.2929,1.2891,1.2939,1.2949,1.3213,1.334,1.3086,1.3477,1.3809,1.3525,1.2936,1.2489,1.2484,1.1173,0.9918,0.9888,0.9528,0.9116,0.8977,0.9092,0.918,1.2957,1.3589,1.3596,1.3653,1.3779,1.3334,1.3372,1.3779,1.3467,1.323,1.3125,1.3268,1.3224,1.3049,1.2199,1.1895,1.1935,1.0653,1.0115,1.0254,1.0108,0.9933,0.9802,1.1326,1.1983,1.2071,1.4362,1.5874,1.6561,1.797,1.9185,2.0128,2.0813,2.1399,2.1828,2.1434,2.0857,2.011,1.9314,1.7968,1.6076,1.4624,1.3572,1.2929,1.2961,1.3476,1.4498,1.4707,1.5096,1.5769,1.5948,1.5802,1.532,1.504,0.0,0.0,0.0,0.0,0.0,0.0,0.0,0.0,0.0,1.3362,1.2445,0.0,1.2711,0.0,1.1228,1.0993,1.0865,1.1331,0.0,0.0,1.1888,1.2569,1.3164,1.3695,1.4356,1.5194,1.518,1.5336,1.5911,1.5979,1.596,1.5828,1.5796,1.5543,1.4789,1.419,1.3768,1.3779,1.3334,1.2929,1.2891,1.2891,1.2891,1.2891,1.3008,1.3008,1.2939,1.3027,1.3145,1.3057,1.2929,1.2594,1.209,1.1548,1.0922,1.0038,0.9348,0.8871,0.8811,0.8864,0.8891,1.2577,1.3184,1.3379,1.3596,1.3862,1.3481,1.3457,1.3721,1.3142,1.2891,1.2881,1.256,1.2403,1.2376,1.1669,1.1366,1.1266,1.0269,0.9821,0.9755,0.9372,0.9112,0.9004,1.0002,1.0581,1.0707,1.2971,1.462,1.5677,1.733,1.8664,1.9671,2.0583,2.1134,2.1289,2.0905,2.0424,1.9985,1.8961,1.7704,1.6231,1.5298,1.4497,1.3832,1.3843,1.4157,1.4779,1.5109,1.5424,1.5799,1.6039,1.6006,1.5553,1.5402,1.5121,0.0,0.0,0.0,0.0,0.0,0.0,0.0,0.0,0.0,0.0,0.0,1.2562,1.1388,1.0758,1.0432,1.0455,1.0805,1.0944,1.0847,1.1416,1.1953,1.2297,1.2959,1.3621,1.4247,1.4275,1.4643,1.5463,1.5348,1.5198,1.5247,1.5267,1.5219,1.5106,1.456,1.419,1.419,1.3695,1.32,1.2978,1.2891,1.2891,1.2891,1.2891,1.2891,1.2891,1.2891,1.2891,1.2891,1.2891,1.2803,1.2366,1.199,1.1509,1.0897,1.0131,0.9517,0.891,0.8804,0.8804,1.2318,1.2468,1.2952,1.3513,1.4097,1.3883,1.3832,1.3786,1.3162,1.2918,1.2881,1.2319,1.2011,1.1874,1.1223,1.0914,1.0864,1.021,0.9894,0.9783,0.9026,0.8572,0.8497,0.8974,0.9424,0.9925,1.1649,1.3317,1.4902,1.6465,1.7804,1.8875,2.0302,2.1007,2.0975,2.0334,1.9934,1.9833,1.8521,1.7417,1.6652,1.6376,1.5733,1.4865,1.5077,1.5117,1.4944,1.5574,1.5918,1.5919,1.6412,1.6543,1.6148,1.6154,1.6032,0.0,1.5141,0.0,0.0,0.0,0.0,0.0,0.0,0.0,0.0,1.2847,1.2351,1.125,1.0556,1.0278,1.0612,1.0754,1.0813,1.0813,1.1408,1.1814,1.1823,1.2452,1.3086,1.3616,1.3744,1.4217,1.5175,1.496,1.4739,1.4806,1.4845,1.5001,1.531,1.4931,1.453,1.4609,1.4011,1.3304,1.2968,1.2822,1.2813,1.2881,1.2891,1.2891,1.2891,1.2891,1.2891,1.2891,1.2891,1.2881,1.2891,1.2366,1.1932,1.1719,1.1172,1.0426,0.9458,0.9159,0.9061,1.2315,1.307,1.3606,1.416,1.4683,1.4146,1.3981,1.3898,1.3246,1.3007,1.3027,1.329,1.3185,1.2628,1.1913,1.1616,1.1566,1.0914,1.0464,1.014,0.9938,0.9557,0.9067,1.0262,1.0768,1.0813,1.2707,1.4247,1.5285,1.6633,1.7773,1.8758,2.025,2.1007,2.0959,0.0,0.0,0.0,1.8251,1.735,1.6398,1.6298,1.5915,1.5218,1.5251,0.0,1.5632,1.6219,1.6532,1.6562,1.6731,0.0,0.0,0.0,0.0,0.0,0.0,0.0,0.0,0.0,0.0,0.0,1.2619,1.2403,1.2345,1.167,1.1146,1.0872,1.0245,0.9906,0.9977,1.0503,1.0813,1.0813,1.1416,1.1814,1.1814,1.2452,1.2949,1.3066,1.3478,1.3879,1.4169,1.4488,1.4768,1.4773,1.4862,1.492,1.4995,1.4497,1.4128,1.4069,1.3337,1.2744,1.2939,1.2657,1.255,1.2754,1.2891,1.2929,1.2978,1.2929,1.2929,1.2929,1.2891,1.2891,1.2891,1.2754,1.2492,1.1923,1.1412,1.0987,1.0535,1.0407,1.0415,1.1959,1.2892,1.3382,1.3801,0.0,1.3729,1.3605,1.3555,1.3179,1.3173,1.3429,1.3712,1.3833,1.3742,1.3416,1.2952,1.2424,1.1739,1.1196,1.0729,1.0014,0.972,0.9851,1.0195,1.0685,1.1281,1.2837,1.4187,1.541,1.6553,1.7665,1.8702,1.9891,2.067,2.0975,2.0334,1.9444,1.8369,1.7997,1.7541,1.706,1.6868,1.6782,1.6834,1.6459,0.0,0.0,0.0,0.0,0.0,0.0,0.0,0.0,0.0,0.0,1.5709,1.5693,1.5298,1.4444,1.4089,1.3673,1.2969,1.2681,1.2549,1.2559,1.1773,1.1166,1.0813,1.0167,0.9813,0.9809,1.0097,1.0466,1.0762,1.1416,1.1814,1.1873,1.2452,1.3008,1.333,1.3606,1.3894,1.4227,1.4273,1.4377,1.4408,1.4165,1.4049,1.41,1.4298,1.4356,1.4038,1.3258,1.2726,1.2904,1.2829,1.2792,1.3233,1.3402,1.3517,1.3732,1.3515,1.3324,1.3334,1.3104,1.2891,1.2891,1.2891,1.2754,1.2387,1.2016,1.1683,1.1478,1.0959,1.0523,1.1594,1.2235,1.2728,1.296,1.3048,1.3048,1.311,1.3191,0.0,0.0,0.0,1.3868,1.4093,1.4417,1.4395,1.3893,1.3082,1.2518,1.1999,1.1443,1.0267,1.0132,1.0875,1.0349,1.0728,1.1977,1.2895,1.4053,1.538,1.6368,1.747,1.8637,1.9594,2.0312,2.0758,2.014,1.9164,1.7873,1.7789,1.7789,1.7789,1.7526,1.7715,1.8392,1.7745,1.7692,1.8376,1.8046,1.7894,1.7861,1.79,1.7722,1.7319,1.7222,1.693,1.6557,1.6534,1.6008,1.4926,1.4744,1.4212,1.2968,1.2891,1.2891,1.2891,1.2246,1.1566,1.1032,1.0356,1.0033,1.016,1.0163,1.0415,1.1124,1.1674,1.2003,1.2067,1.2609,1.326,1.3585,1.3838,1.4076,1.4349,1.4211,1.4048,1.4014,1.3766,1.3386,1.3516,1.4082,1.4312,1.3994,1.3309,1.2914,1.2975,1.2901,1.3121,1.3543,1.3696,1.3927,1.4193,1.3987,1.3712,1.3535,1.3222,1.2959,1.2934,1.2948,1.2929,1.2939,1.255,1.2261,1.2149,1.1373,1.0677,1.141,1.1109,1.1616,1.209,1.2529,1.2529,1.276,1.3248,1.374,1.3656,1.3228,1.3768,1.3719,1.3237,1.3253,1.3167,1.3017,1.2933,1.2631,1.2265,1.203,1.2031,1.2173,1.244,1.2914,1.3506,1.4042,1.4596,1.5208,1.6163,1.7255,1.8485,1.978,2.035,2.0116,1.9436,1.864,1.7845,1.7789,1.7789,1.7789,1.7766,1.794,1.8334,1.7979,1.7953,1.8376,1.8485,1.8553,1.8568,1.8687,1.8512,1.7968,1.7531,1.7027,1.6552,1.6522,1.6194,1.5487,1.5017,1.4154,1.3065,1.2891,1.2891,1.2881,1.2215,1.1747,1.1639,1.1065,1.0905,1.1429,1.1443,1.1697,1.2442,1.2647,1.2763,1.2807,1.3274,1.3484,1.325,1.4041,1.4227,1.3631,1.4085,1.4401,1.4037,1.405,1.4276,1.4184,1.3799,1.3607,1.3719,1.3144,1.277,1.3059,1.2758,1.2836,1.3059,1.3209,1.334,1.3488,1.3375,1.3247,1.3159,1.3054,1.3001,1.2994,1.2973,1.2992,1.2954,1.2609,1.2347,1.2361,1.2114,1.1952,1.1508,1.1745,1.1985,1.2241,1.2489,1.2821,1.3327,1.3901,1.4212,1.4196,1.4007,1.4259,1.4481,1.4642,1.445,1.4179,1.3874,1.3631,1.3394,1.3142,1.2647,1.283,1.3496,1.3509,1.3838,1.4509,1.4905,1.5343,1.5766,1.6385,1.7379,1.8691,2.0297,2.0727,2.0027,1.9664,1.8944,1.7822,1.7789,1.7789,1.7789,1.7789,1.8259,1.9227,1.8681,1.8797,1.9751,1.9473,1.9241,1.9241,1.9316,1.8968,1.8145,1.7867,1.734,1.6552,1.6233,1.5805,1.5226,1.4616,1.4022,1.3437,1.3429,1.3284,1.2969,1.2619,1.2209,1.1856,1.15,1.1385,1.148,1.1486,1.1892,1.2913,1.2757,1.2841,1.3332,1.3356,1.3405,1.3569,1.4171,1.4494,1.3963,1.4585,1.4814,1.4346,1.44,1.4578,1.4783,1.431,1.3986,1.4163,1.3873,1.3711,1.3796,1.3509,1.3449,1.3857,1.3755,1.3754,1.3903,1.383,1.3576,1.3517,1.329,1.3021,1.3001,1.3001,1.3,1.2987,1.2669,1.243,1.2374,1.2383,1.2441,1.1589,1.2142,1.2144,1.2273,1.2594,1.3224,1.3874,1.4487,1.4596,1.4672,1.4755,1.47,1.5065,1.5681,1.5399,1.4995,1.457,1.4267,1.4054,1.3881,1.3196,1.3544,1.4613,1.4363,1.4671,1.5448,1.5741,1.607,1.6436,1.6767,1.7682,1.9163,2.0726,2.1078,2.0272,2.0086,1.9427,1.8363,1.8278,1.8234,1.8065,1.8217,1.892,2.0111,1.9579,1.9757,2.0863,2.0243,1.9782,1.9726,1.9705,1.9244,1.838,1.8171,1.7612,1.659,1.6014,1.5447,1.4862,1.437,1.3994,1.3847,1.3872,1.3663,1.3104,1.2945,1.2655,1.2041,1.1803,1.1659,1.1508,1.1464,1.1911,1.2931,1.2743,1.2797,1.3502,1.3489,1.3493,1.3959,1.4417,1.4777,1.4754,1.5,1.5108,1.4902,1.4783,1.4937,1.5165,1.4968,1.4814,1.476,1.4643,1.4446,1.4466,1.4226,1.4186,1.4633,1.4377,1.4341,1.452,1.4337,1.4135,1.4023,1.3718,1.3471,1.3368,1.3376,1.3394,1.341,1.313,1.2754,1.2624,1.2639,1.2544,1.1444,1.1045,1.1132,1.1688,1.2747,1.3312,1.3949,1.4554,1.4907,1.5034,1.5103,1.4699,1.463,1.4648,1.4667,1.4635,1.4598,1.4488,1.4479,1.4487,1.436,1.4727,1.5448,1.5437,1.5861,1.6553,1.6642,1.6663,1.6763,1.714,1.8165,1.9799,2.082,2.1201,2.1017,2.0382,1.9934,1.9799,1.9782,1.9486,1.8877,1.9444,2.0213,2.1042,2.0611,2.0538,2.0975,2.0532,2.007,1.9762,1.9726,1.9442,1.8855,1.838,1.7622,1.6613,1.599,1.5435,1.4893,1.4723,1.4468,1.3938,1.3894,1.3638,1.307,1.2986,1.279,1.2317,1.1846,1.1837,1.2121,1.2161,1.2393,1.2931,1.2938,1.3022,1.3295,1.3939,1.4325,1.395,1.466,1.506,1.4703,1.4947,1.5286,1.5522,1.5522,1.5551,1.561,1.561,1.5551,1.5477,1.5025,1.4616,1.457,1.4487,1.4502,1.4567,1.4498,1.449,1.4526,1.4513,1.4455,1.433,1.4333,1.4206,1.4233,1.4365,1.4297,1.4137,1.3861,1.3591,1.3257,1.3166,1.2985,1.2102,1.1915,1.1911,1.2666,1.3879,1.4587,1.5254,1.5877,1.6047,1.6104,1.6084,1.5945,1.5732,1.5542,1.5272,1.5404,1.5836,1.5606,1.5635,1.5836,1.5606,1.5777,1.6266,1.6283,1.6491,1.6789,1.6991,1.71,1.7281,1.8293,1.9301,2.0069,2.1228,2.1708,2.1413,2.0943,2.0653,2.0592,2.0678,2.0603,2.0377,2.0119,2.0356,2.1066,2.0755,2.0767,2.1209,2.0682,2.0212,2.0054,1.9839,1.9479,1.893,1.8688,1.8229,1.746,1.6626,1.5865,1.523,1.4992,1.4723,1.4421,1.4175,1.3753,1.311,1.2819,1.2621,1.2472,1.244,1.2439,1.2407,1.2349,1.2593,1.2986,1.2896,1.3063,1.3974,1.4088,1.4154,1.4281,1.4789,1.5106,1.4956,1.5228,1.5564,1.5799,1.5814,1.5814,1.5814,1.5814,1.5814,1.577,1.5477,1.5329,1.5226,1.5023,1.4905,1.4838,1.4661,1.449,1.4544,1.4515,1.4501,1.4533,1.4564,1.4564,1.4447,1.4502,1.4504,1.4471,1.4457,1.4159,1.4,1.3954,1.3742,1.2606,1.2626,1.2819,1.3716,1.503,1.559,1.6192,1.6741,1.6789,1.6781,1.6787,1.6786,1.6712,1.6536,1.6126,1.6262,1.6722,1.6491,1.6533,1.6747,1.6491,1.657,1.6901,1.6933,1.7034,1.7207,1.7449,1.7586,1.7844,1.9307,2.0159,2.0438,2.1702,2.2279,2.2049,2.1832,2.1687,2.1627,2.1722,2.1798,2.1781,2.1129,2.0977,2.1431,2.1184,2.1189,2.1549,2.1007,2.0616,2.0499,2.0104,1.9681,1.9325,1.9029,1.8579,1.7893,1.7025,1.6364,1.6008,1.5563,1.5274,1.5172,1.4726,1.4092,1.3495,1.3163,1.2998,1.2918,1.32,1.3216,1.2651,1.2574,1.2884,1.3495,1.3243,1.3531,1.4451,1.4332,1.4383,1.4655,1.5074,1.528,1.5316,1.5549,1.5799,1.5814,1.5814,1.5856,1.5898,1.597,1.597,1.5942,1.6017,1.5976,1.5829,1.5534,1.5329,1.5256,1.5067,1.4921,1.4843,1.485,1.4876,1.5104,1.4907,1.4876,1.5043,1.4966,1.4769,1.4713,1.4682,1.4637,1.4404,1.4471,1.4487,1.2614,1.271,1.3384,1.447,1.5758,1.5839,1.6208,1.6866,1.6841,1.6805,1.6837,1.6815,1.6987,1.7209,1.688,1.6763,1.6815,1.6799,1.6815,1.6866,1.6815,1.6952,1.7272,1.7281,1.7592,1.8018,1.8048,1.8249,1.8592,1.9794,2.0535,2.0925,2.2108,2.283,2.3012,2.2994,2.3094,2.3005,2.2965,2.3071,2.3053,2.2726,2.2374,2.2231,2.2215,2.1965,2.1688,2.1568,2.1368,2.0991,2.0516,2.0246,2.0128,1.9383,1.8484,1.7492,1.6884,1.6786,1.7061,1.6542,1.6145,1.6091,1.5453,1.4816,1.3986,1.4075,1.4072,1.3831,1.4114,1.3965,1.3324,1.3187,1.348,1.423,1.4383,1.4388,1.4493,1.4822,1.5011,1.5131,1.5462,1.5727,1.577,1.5799,1.5871,1.5856,1.5827,1.5942,1.6219,1.6274,1.6274,1.6323,1.6453,1.651,1.599,1.5872,1.5814,1.5797,1.5767,1.5737,1.5725,1.5741,1.5741,1.5741,1.5711,1.5711,1.5741,1.5638,1.5418,1.5257,1.5111,1.5008,1.489,1.4628,1.4634,1.3545,1.4054,1.466,1.5483,1.6381,1.6864,1.7206,1.7432,1.7432,1.7432,1.7448,1.7432,1.7516,1.7609,1.7492,1.7432,1.7432,1.7432,1.7448,1.7432,1.7432,1.7595,1.7827,1.7704,1.7905,1.8375,1.8269,1.8609,1.9498,2.0788,2.1542,2.179,2.2582,2.3189,2.3414,2.3323,2.3392,2.3735,2.3455,2.3394,2.3737,2.3301,2.2925,2.2676,2.2422,2.2209,2.2077,2.1764,2.1538,2.1368,2.0975,2.0616,2.028,1.9737,1.9038,1.8323,1.8115,1.791,1.761,1.6822,1.6297,1.6228,1.5338,1.4713,1.4368,1.4413,1.4445,1.4351,1.4418,1.4384,1.4401,1.4149,1.4124,1.441,1.4501,1.4658,1.4859,1.4998,1.5209,1.5536,1.5903,1.6109,1.6133,1.6289,1.6366,1.6194,1.6301,1.6448,1.6581,1.6607,1.6607,1.6617,1.6697,1.6712,1.6537,1.6468,1.6449,1.6458,1.6437,1.6398,1.6389,1.6351,1.6324,1.6285,1.6328,1.6265,1.6169,1.5931,1.5769,1.5725,1.5578,1.553,1.5358,1.5227,1.5256,1.4722,1.561,1.5724,1.6297,1.7164,1.7347,1.7591,1.7755,1.7789,1.7789,1.7789,1.7789,1.7789,1.7789,1.7789,1.7789,1.7789,1.7789,1.7789,1.7789,1.7789,1.7949,1.8125,1.8014,1.8208,1.8698,1.8904,1.9335,2.0119,2.1527,2.2257,2.2431,2.3039,2.3522,2.3756,2.3631,2.3774,2.4054,2.3735,2.3779,2.4091,2.3674,2.3294,2.3109,2.2677,2.2388,2.231,2.1986,2.1823,2.1764,2.1415,2.0991,2.055,2.0124,1.9712,1.928,1.8969,1.8637,1.8121,1.7076,1.642,1.6392,1.5545,1.4876,1.4749,1.4842,1.4828,1.478,1.4874,1.5066,1.5198,1.5081,1.4943,1.4923,1.5015,1.5196,1.5448,1.5477,1.5639,1.5916,1.6258,1.6432,1.6506,1.6653,1.6664,1.649,1.6686,1.6815,1.6942,1.6968,1.6952,1.6984,1.7101,1.7093,1.6995,1.7003,1.6823,1.6805,1.6765,1.6815,1.6871,1.6853,1.6825,1.6815,1.6769,1.6675,1.6523,1.6264,1.615,1.6106,1.6141,1.6114,1.6006,1.5942,1.5827,1.5991,1.7135,1.6413,1.6858,1.7907,1.7291,1.7211,1.781,1.7839,1.7895,1.7901,1.785,1.7895,1.7828,1.7895,1.7856,1.7861,1.7883,1.7861,1.7839,1.7833,1.7975,1.827,1.8229,1.8522,1.9146,2.0074,2.0523,2.0747,2.1986,2.2765,2.3068,2.3454,2.3837,2.417,2.4113,2.4151,2.417,2.4132,2.4151,2.417,2.3876,2.3653,2.3566,2.3063,2.2643,2.2377,2.2293,2.2254,2.2209,2.1869,2.143,2.1023,2.055,2.0299,2.0091,1.9338,1.8796,1.8616,1.752,1.6801,1.6712,1.6144,1.5609,1.5374,1.5551,1.5625,1.5402,1.5551,1.5799,1.5811,1.5811,1.574,1.5827,1.5911,1.6093,1.6176,1.6262,1.6296,1.636,1.663,1.6779,1.6815,1.6905,1.6911,1.6847,1.6892,1.7018,1.7248,1.7313,1.728,1.7344,1.7427,1.7452,1.7485,1.7509,1.7273,1.7063,1.7003,1.7003,1.7067,1.7067,1.7109,1.7093,1.6993,1.6889,1.6833,1.6642,1.6585,1.6554,1.6611,1.657,1.6433,1.6285,1.6163,1.61,1.7535,1.7205,1.7576,1.8399,1.8128,1.8161,1.8351,1.8351,1.836,1.8356,1.8367,1.836,1.8349,1.8364,1.8351,1.8351,1.8351,1.8249,1.8121,1.8095,1.831,1.8659,1.8601,1.8962,1.9975,2.1479,2.2208,2.2374,2.3178,2.3728,2.384,2.3966,2.4094,2.419,2.419,2.419,2.419,2.419,2.419,2.4208,2.4094,2.3937,2.3692,2.35,2.3253,2.2933,2.2535,2.231,2.231,2.2163,2.1869,2.143,2.1007,2.0797,2.0685,2.0003,1.9499,1.9374,1.828,1.7468,1.7343,1.6854,1.6495,1.6301,1.6381,1.6386,1.6235,1.6414,1.6471,1.6496,1.6507,1.6313,1.5841,1.6095,1.6328,1.6371,1.6549,1.6713,1.6955,1.7085,1.7148,1.7194,1.7285,1.7345,1.7191,1.7296,1.7502,1.7589,1.7612,1.7658,1.7658,1.7766,1.7839,1.7866,1.787,1.7692,1.7535,1.7466,1.7292,1.7319,1.7326,1.7365,1.7337,1.724,1.7158,1.7092,1.7039,1.6959,1.6885,1.6824,1.6743,1.6645,1.6584,1.6502,1.6761,1.8197,1.7799,1.8039,1.8645,1.8376,1.8339,1.8569,1.8585,1.859,1.8586,1.8592,1.8582,1.8575,1.8601,1.859,1.8574,1.859,1.8707,1.8806,1.8478,1.8746,1.9434,1.9741,2.0102,2.0898,2.2283,2.3015,2.3052,2.3786,2.419,2.419,2.419,2.419,2.419,2.419,2.419,2.419,2.419,2.419,2.419,2.419,2.4094,2.3896,2.3774,2.3588,2.3369,2.2883,2.2651,2.2624,2.2517,2.2254,2.1853,2.1477,2.1213,2.1052,2.0461,1.9922,1.9824,1.8882,1.8267,1.8155,1.7583,1.7215,1.7146,1.7047,1.6784,1.6797,1.6781,1.6775,1.6779,1.6783,1.6572,1.6231,1.6485,1.6644,1.6701,1.6961,1.7146,1.7302,1.7401,1.7467,1.7535,1.7625,1.7726,1.7572,1.7658,1.7789,1.7789,1.7789,1.7828,1.7828,1.7789,1.7912,1.8167,1.8184,1.811,1.8059,1.802,1.7771,1.7636,1.7636,1.7635,1.7612,1.7542,1.7502,1.7465,1.7394,1.7321,1.7203,1.7087,1.7119,1.7089,1.7003,1.691,1.786,1.9109,1.8312,1.8364,1.8875,1.8109,1.8146,1.8589,1.866,1.8679,1.8678,1.8715,1.8681,1.8651,1.8699,1.8698,1.8663,1.886,1.9326,1.9686,1.9451,1.9524,2.0336,2.1206,2.166,2.1951,2.2722,2.3107,2.3254,2.3859,2.419,2.419,2.419,2.419,2.419,2.419,2.419,2.419,2.419,2.419,2.419,2.419,2.4208,2.4152,2.3917,2.3735,2.3692,2.3432,2.323,2.3141,2.2873,2.2599,2.2298,2.1882,2.1702,2.1609,2.0641,2.0226,1.9957,1.9459,1.9049,1.8984,1.8486,1.7963,1.7914,1.7494,1.7154,1.7043,1.7001,1.6974,1.7011,1.7054,1.702,1.697,1.7085,1.7224,1.7344,1.7582,1.7588,1.7461,1.7605,1.7789,1.7755,1.7789,1.7789,1.7766,1.7766,1.7789,1.7845,1.7901,1.794,1.807,1.8324,1.879,1.928,1.9234,1.9127,1.8788,1.8688,1.8402,1.8053,1.7971,1.7856,1.7833,1.7839,1.7816,1.7749,1.7635,1.7612,1.7563,1.7535,1.7575,1.7501,1.7382,1.728,1.8359,1.9234,1.9005,1.9044,1.9193,1.8927,1.8913,1.9113,1.9115,1.9081,1.9097,1.9113,1.913,1.9112,1.9127,1.9123,1.9303,1.9747,2.0078,2.0456,2.0877,2.1042,2.1497,2.2264,2.2685,2.2813,2.3456,2.3878,2.3896,2.4099,2.4209,2.419,2.4209,2.4209,2.419,2.4209,2.419,2.419,2.4209,2.4209,2.4209,2.4209,2.419,2.419,2.4094,2.4056,2.4074,2.3996,2.3671,2.3212,2.3117,2.294,2.2625,2.2476,2.2313,2.2012,2.1407,2.0889,2.0738,2.0231,1.9786,1.9736,1.9629,1.9202,1.8668,1.8471,1.82,1.7957,1.7827,1.7893,1.8052,1.8072,1.8072,1.8059,1.7682,1.7462,1.7641,1.7726,1.7737,1.7719,1.7754,1.7822,1.7856,1.7828,1.7833,1.7833,1.7833,1.7907,1.8097,1.8542,1.8802,1.9252,1.9595,2.0075,2.0402,2.0365,2.0154,1.9669,1.9378,1.9112,1.8712,1.8353,1.8125,1.7944,1.8061,1.8086,1.7905,1.776,1.7805,1.7896,1.7805,1.7772,1.7755,1.7675,1.7635,1.8554,1.9286,1.9286,1.9286,1.9286,1.9286,1.9286,1.9286,1.9286,1.9286,1.936,1.9675,1.9813,1.9823,2.0195,2.0338,2.0413,2.0833,2.1218,2.1695,2.2428,2.2593,2.2593,2.3125,2.3548,2.3656,2.4081,2.4338,2.4409,2.4375,2.4339,2.4321,2.4247,2.4228,2.4321,2.4339,2.4375,2.4445,2.4444,2.4428,2.4321,2.4339,2.4284,2.4228,2.419,2.419,2.419,2.419,2.3937,2.3544,2.3392,2.3259,2.2947,2.2923,2.284,2.2669,2.2255,2.2055,2.1986,2.1589,2.1381,2.1295,2.1115,2.0707,2.0241,1.9739,1.9117,1.8906,1.8603,1.8473,1.8547,1.8585,1.8585,1.8471,1.8153,1.7941,1.8125,1.8146,1.8138,1.8133,1.8116,1.812,1.8113,1.8039,1.8039,1.8074,1.8057,1.8327,1.8672,1.9258,1.9823,2.0234,2.0601,2.098,2.1238,2.1243,2.1214,2.0735,1.9947,1.9689,1.9092,1.866,1.845,1.8249,1.833,1.8307,1.8147,1.8075,1.8167,1.8223,1.8059,1.7997,1.798,1.7922,1.79,1.866,1.9286,1.9286,1.9286,1.9286,1.9305,1.9381,1.9436,1.951,1.9577,1.9813,2.0352,2.0623,2.0712,2.1224,2.1696,2.1697,2.1805,2.2409,2.2997,2.3602,2.3694,2.3254,2.3731,2.41,2.4281,2.4425,2.4543,2.4575,2.4528,2.4495,2.4461,2.4358,2.4357,2.4476,2.4545,2.4623,2.4731,2.4731,2.4654,2.4526,2.4495,2.4393,2.4284,2.4209,2.419,2.419,2.419,2.4054,2.3774,2.3753,2.3584,2.3323,2.3253,2.3206,2.3141,2.3041,2.3029,2.313,2.2941,2.3018,2.2835,2.2399,2.2154,2.1688,2.0805,2.0136,1.9957,1.9286,1.9197,1.9237,1.9072,1.9199,1.9271,1.9036,1.8821,1.8763,1.8673,1.8584,1.8589,1.8594,1.8624,1.8635,1.856,1.8529,1.9248,1.9122,1.9318,1.9756,2.0324,2.0797,2.1197,2.1491,2.177,2.1956,2.2102,2.2048,2.179,2.0715,2.0058,1.9231,1.8825,1.8698,1.8604,1.8585,1.8555,1.8468,1.8478,1.8547,1.8489,1.8321,1.8277,1.8241,1.8168,1.8121,1.9127,1.9286,1.9286,1.9286,1.9286,1.9305,1.9675,2.0244,2.0244,2.0599,2.1155,2.1424,2.1514,2.1549,2.179,2.1788,2.2025,2.252,2.318,2.3896,2.4061,2.4135,2.3933,2.4154,2.4191,2.4284,2.4284,2.4393,2.4476,2.4495,2.4444,2.4685,2.4543,2.4526,2.4682,2.4727,2.4746,2.4804,2.4818,2.4804,2.4712,2.4591,2.4476,2.4392,2.4266,2.4209,2.419,2.419,2.417,2.4132,2.4054,2.3896,2.3653,2.3588,2.35,2.3323,2.3236,2.3236,2.3212,2.3259,2.3212,2.3223,2.3087,2.2716,2.2114,2.1859,2.1383,2.1162,2.0891,2.0721,2.0824,2.1024,2.0897,2.0716,2.037,2.0061,1.9936,1.9235,1.8772,1.8688,1.8753,1.8856,1.9452,1.9525,1.9753,2.0283,2.0436,2.0486,2.0912,2.1393,2.1792,2.2177,2.26,2.2877,2.2915,2.2954,2.2719,2.252,2.1581,2.0707,1.9877,1.9322,1.9344,1.9112,1.8825,1.8765,1.8737,1.8665,1.8669,1.8627,1.8609,1.8555,1.8492,1.8417,1.831,1.9378,1.9305,1.9286,1.951,1.984,1.9877,2.0354,2.1015,2.1106,2.1359,2.1828,2.2147,2.2355,2.2425,2.274,2.296,2.3015,2.3327,2.3768,2.4135,2.4209,2.4266,2.4358,2.4358,2.4339,2.4357,2.4444,2.4572,2.4663,2.4648,2.4723,2.485,2.4727,2.4741,2.4864,2.4891,2.4962,2.5043,2.5043,2.4987,2.4877,2.4757,2.4526,2.4402,2.4248,2.419,2.419,2.419,2.419,2.419,2.4208,2.4132,2.3976,2.3955,2.3816,2.3714,2.3671,2.3671,2.3653,2.3653,2.3692,2.3649,2.3671,2.3455,2.3058,2.2794,2.244,2.2152,2.1826,2.1623,2.1771,2.1768,2.1804,2.1712,2.14,2.1125,2.0944,2.0169,1.9503,1.9592,1.9941,2.0287,2.0581,2.0589,2.077,2.1204,2.1089,2.1159,2.1912,2.2389,2.2809,2.323,2.3709,2.3986,2.3986,2.3803,2.338,2.3015,2.2371,2.1651,2.0963,2.0509,2.0182,1.977,1.9305,1.9067,1.9036,1.8929,1.8948,1.8995,1.8972,1.8866,1.8802,1.8806,1.8656,1.9648,1.9491,1.962,2.006,2.0631,2.0721,2.118,2.1914,2.1987,2.2115,2.228,2.2923,2.318,2.3325,2.3803,2.4153,2.4135,2.4117,2.4172,2.4247,2.4266,2.4393,2.4512,2.4561,2.4561,2.4578,2.467,2.4823,2.4924,2.4986,2.4911,2.4986,2.4891,2.4923,2.503,2.5046,2.5118,2.5233,2.5243,2.5192,2.5046,2.4929,2.4671,2.4388,2.4301,2.4284,2.4266,2.4228,2.419,2.419,2.419,2.419,2.419,2.419,2.419,2.417,2.4132,2.4094,2.4074,2.4113,2.4151,2.419,2.4209,2.4228,2.4007,2.3673,2.3398,2.3088,2.2777,2.2372,2.2188,2.2374,2.2336,2.2226,2.2134,2.1969,2.1839,2.1299,2.0968,2.0731,2.0941,2.1275,2.1606,2.1753,2.1917,2.2026,2.188,2.1988,2.2722,2.3217,2.3546,2.371,2.4042,2.419,2.419,2.4153,2.3785,2.3326,2.2831,2.2372,2.1821,2.1345,2.0816,2.0246,1.9847,1.968,1.9641,1.9701,1.9698,1.9559,1.9732,1.9998,1.9753,1.9272,1.9237,2.0341,2.0356,2.107,2.149,2.1582,2.1601,2.206,2.2721,2.2813,2.3199,2.3712,2.3933,2.3933,2.4005,2.408,2.419,2.4228,2.4247,2.4303,2.4409,2.4461,2.4561,2.4697,2.4727,2.476,2.476,2.4814,2.4904,2.4937,2.4904,2.5037,2.5141,2.5065,2.5084,2.5192,2.5253,2.5234,2.5284,2.5303,2.5264,2.5329,2.5249,2.4943,2.4655,2.4599,2.4535,2.441,2.4303,2.419,2.419,2.419,2.4209,2.4247,2.4247,2.4228,2.4209,2.4228,2.4247,2.4247,2.4228,2.4209,2.4247,2.4357,2.4444,2.4446,2.4432,2.4229,2.4099,2.3897,2.373,2.3803,2.3603,2.3731,2.3621,2.3217,2.2849,2.2793,2.2625,2.2271,2.1927,2.2007,2.2136,2.2483,2.2757,2.2886,2.3033,2.3087,2.3086,2.3491,2.3804,2.3969,2.408,2.4153,2.419,2.419,2.4153,2.395,2.349,2.307,2.2832,2.2318,2.1896,2.1435,2.1308,2.0919,2.0623,2.0581,2.0554,2.0633,2.0659,2.0939,2.1216,2.0841,2.0463,2.0768,2.1537,2.1469,2.1897,2.2261,2.2541,2.2562,2.2974,2.3566,2.3639,2.3823,2.4098,2.419,2.419,2.419,2.419,2.4266,2.4339,2.4357,2.4461,2.4623,2.467,2.4741,2.4891,2.4904,2.4987,2.5043,2.5068,2.5005,2.4991,2.5053,2.5138,2.5214,2.5203,2.5214,2.5274,2.5284,2.5313,2.5313,2.5322,2.5572,2.6004,2.6087,2.5914,2.5205,2.5137,2.5064,2.4676,2.4575,2.4512,2.4528,2.4512,2.4512,2.4495,2.4478,2.4409,2.4284,2.4303,2.4357,2.4393,2.4426,2.4528,2.451,2.4607,2.4639,2.4676,2.4706,2.4773,2.4669,2.4599,2.4512,2.4454,2.4512,2.4512,2.4456,2.412,2.3936,2.3899,2.3901,2.3557,2.3123,2.3199,2.3308,2.3436,2.3675,2.3821,2.4005,2.4171,2.419,2.419,2.419,2.419,2.419,2.419,2.419,2.419,2.4171,2.4135,2.371,2.3435,2.3198,2.3125,2.2832,2.2923,2.3015,2.25,2.1651,2.1385,2.1324,2.1537,2.1709,2.1715,2.1717,2.1735,2.1753,2.197,2.2693,2.2565,2.2733,2.3107,2.3531,2.3558,2.3798,2.4192,2.4172,2.4153,2.419,2.419,2.419,2.4209,2.4247,2.4339,2.4512,2.451,2.467,2.478,2.4823,2.4898,2.501,2.5069,2.5111,2.5233,2.5273,2.5214,2.5122,2.5173,2.5274,2.5284,2.5303,2.5303,2.5313,2.5313,2.5313,2.5341,2.5553,2.6043,2.6927,2.7347,2.7217,2.6079,2.6195,2.5958,2.5296,2.5114,2.4949,2.4836,2.4775,2.479,2.4804,2.4804,2.4673,2.4428,2.4478,2.4526,2.4591,2.467,2.4746,2.4731,2.4818,2.4828,2.4828,2.4851,2.4855,2.4839,2.4797,2.4757,2.4747,2.4795,2.4771,2.4775,2.4775,2.4771,2.467,2.4591,2.4498,2.4293,2.4377,2.4209,2.4061,2.4116,2.4153,2.4042,2.419,2.419,2.419,2.419,2.419,2.419,2.419,2.419,2.419,2.419,2.4171,2.4024,2.3914,2.3785,2.3896,2.3933,2.3988,2.3823,2.3401,2.2592,2.2347,2.2159,2.2368,2.2464,2.23,2.2408,2.2721,2.2758,2.2813,2.3381,2.3428,2.4167,2.4548,2.4553,2.4388,2.4364,2.4425,2.4266,2.419,2.4246,2.419,2.419,2.4247,2.4393,2.4461,2.4526,2.4682,2.4842,2.4937,2.4974,2.5065,2.5224,2.5264,2.5234,2.5313,2.5313,2.5303,2.5388,2.5408,2.5303,2.5322,2.539,2.5313,2.5313,2.5313,2.5313,2.5428,2.6063,2.7073,2.8074,2.811,2.8069,2.795,2.7625,2.7007,2.6218,2.591,2.5561,2.4979,2.4851,2.4804,2.4804,2.4804,2.479,2.4746,2.476,2.4741,2.4775,2.4832,2.4874,2.4883,2.493,2.4962,2.4974,2.4986,2.4998,2.4979,2.4898,2.486,2.487,2.4835,2.4823,2.4847,2.4888,2.4861,2.4865,2.4955,2.4865,2.4798,2.4642,2.4394,2.4228,2.4338,2.4412,2.4301,2.419,2.419,2.419,2.419,2.419,2.419,2.419,2.419,2.419,2.419,2.419,2.419,2.419,2.419,2.419,2.419,2.419,2.3988,2.3657,2.3566,2.3364,2.3271,2.3309,2.329,2.3215,2.3527,2.395,2.3859,2.3547,2.4521,2.4549,2.4936,2.5015,2.4885,2.4741,2.467,2.4591,2.4339,2.4264,2.4319,2.4246,2.419,2.4247,2.4392,2.4495,2.4559,2.478,2.4924,2.5041,2.5111,2.5233,2.5274,2.5303,2.5313,2.5428,2.539,2.5697,2.5832,2.6005,2.587,2.5457,2.5755,2.5755,2.5543,2.5332,2.5313,2.5678,2.6582,2.7736,2.8544,2.9044,2.9102,2.8747,2.8545,2.7992,2.7297,2.6572,2.6237,2.5722,2.5435,2.5072,2.5091,2.5091,2.5091,2.5091,2.5091,2.5037,2.4943,2.5012,2.5037,2.5061,2.513,2.5163,2.5163,2.5163,2.5154,2.5187,2.5122,2.5083,2.507,2.5083,2.5077,2.508,2.5043,2.5056,2.5056,2.5084,2.5096,2.4993,2.4891,2.4639,2.4413,2.4338,2.4375,2.4282,2.419,2.419,2.419,2.419,2.419,2.419,2.419,2.419,2.419,2.419,2.419,2.419,2.419,2.419,2.419,2.419,2.419,2.419,2.4006,2.4006,2.419,2.4062,2.3805,2.397,2.4171,2.4208,2.4208,2.4153,2.3933,2.5313,2.5313,2.5313,2.5194,2.5065,2.4923,2.4855,2.4795,2.4512,2.445,2.4487,2.443,2.4355,2.4375,2.451,2.4623,2.4648,2.4898,2.501,2.5111,2.5252,2.5427,2.5659,2.5678,2.5813,2.5947,2.6217,2.6438,2.6813,2.7063,2.6909,2.6024,2.6659,2.6601,2.6197,2.614,2.6274,2.6717,2.764,2.8506,2.9198,2.9917,2.9744,2.9467,2.9236,2.9044,2.8236,2.7687,2.7283,2.6773,2.6416,2.6156,2.6128,2.6175,2.5945,2.583,2.5714,2.5472,2.5275,2.5182,2.5274,2.5313,2.5313,2.5274,2.5274,2.5313,2.5293,2.5284,2.5274,2.5274,2.5284,2.5274,2.5253,2.5243,2.5253,2.5284,2.5284,2.5244,2.5205,2.5143,2.503,2.4883,2.4642,2.4395,2.4301,2.4227,2.419,2.419,2.4209,2.4209,2.4209,2.4209,2.4208,2.4208,2.419,2.419,2.419,2.4228,2.4247,2.4209,2.4228,2.4209,2.419,2.419,2.4228,2.4264,2.4282,2.4282,2.4264,2.4246,2.4246,2.4246,2.4246,2.4208,2.419,2.5313,2.5313,2.5313,2.5303,2.5264,2.5077,2.4986,2.4993,2.4814,2.4714,2.4722,2.4756,2.471,2.4752,2.4737,2.4842,2.4949,2.4998,2.5203,2.5318,2.538,2.5947,2.6294,2.6611,2.6852,2.74,2.7353,2.7439,2.7901,2.8294,2.8179,2.789,2.7775,2.7775,2.7544,2.7274,2.7698,2.8102,2.8756,2.9294,2.9871,3.0302,3.0244,3.0244,3.0167,2.991,2.9083,2.8756,2.839,2.7813,2.7467,2.7332,2.7236,2.7274,2.7005,2.664,2.6505,2.6215,2.5859,2.5417,2.5284,2.5313,2.5313,2.5313,2.5313,2.5313,2.5313,2.5313,2.5313,2.5313,2.5313,2.5313,2.5313,2.5313,2.5313,2.5313,2.5313,2.5284,2.5254,2.5245,2.5143,2.5012,2.484,2.4576,2.4339,2.4264,2.419,2.419,2.4228,2.4228,2.4228,2.4227,2.4227,2.4208,2.419,2.4227,2.4284,2.4339,2.4356,2.4284,2.4266,2.4247,2.4339,2.4284,2.4321,2.4376,2.4431,2.4506,2.4487,2.432,2.4282,2.4301,2.4264,2.4208,2.419,2.5313,2.5313,2.5313,2.5313,2.5293,2.5088,2.5077,2.5107,2.4785,2.4632,2.4655,2.4737,2.4809,2.4846,2.4898,2.4891,2.5012,2.5742,2.588,2.6197,2.6557,2.7052,2.7381,2.7439,2.7574,2.7909,2.7967,2.8236,2.8659,2.9052,2.936,2.9187,2.8852,2.8294,2.8082,2.8102,2.8486,2.8929,2.9198,2.9544,3.0217,3.0398,3.0398,3.0398,3.0398,3.0263,2.9852,2.9333,2.8967,2.8621,2.8217,2.8102,2.8063,2.8044,2.7832,2.7467,2.739,2.714,2.6659,2.5986,2.5332,2.5313,2.5313,2.5332,2.5409,2.5322,2.5313,2.5313,2.5313,2.5313,2.5313,2.5313,2.5313,2.5313,2.5313,2.5313,2.5313,2.5313,2.5293,2.5264,2.5205,2.5107,2.4932,2.474,2.4487,2.4282,2.4246,2.4209,2.4247,2.4284,2.4321,2.4339,2.4339,2.4319,2.4301,2.4358,2.4395,2.4426,2.4468,2.4439,2.4407,2.4561,2.4626,2.4512,2.4464,2.4557,2.4647,2.4754,2.469,2.4504,2.4405,2.4374,2.4319,2.4227,2.419,2.5313,2.5313,2.5313,2.5313,2.5274,2.5152,2.5163,2.5233,2.4923,2.4724,2.4746,2.4891,2.4946,2.5011,2.5287,2.5418,2.5711,2.6343,2.6711,2.7052,2.7454,2.8005,2.8179,2.8324,2.8439,2.8514,2.8683,2.9048,2.9467,2.9483,2.9771,2.9956,2.9813,2.9198,2.8909,2.8659,2.8929,2.9352,2.9544,2.9698,3.0359,3.0398,3.0398,3.0398,3.0398,3.0379,3.0217,2.9852,2.9621,2.9371,2.9083,2.8756,2.8679,2.8621,2.8506,2.8352,2.8236,2.8179,2.7601,2.6967,2.6082,2.6294,2.586,2.5813,2.5659,2.5476,2.5313,2.5313,2.5313,2.5313,2.5313,2.5313,2.5313,2.5313,2.5313,2.5313,2.5313,2.5313,2.5313,2.5284,2.5224,2.5173,2.5005,2.4825,2.4623,2.4465,2.4498,2.4426,2.4375,2.4428,2.4478,2.4485,2.4487,2.4449,2.4448,2.445,2.4484,2.4563,2.4598,2.4605,2.4628,2.4776,2.4804,2.467,2.4679,2.4789,2.4839,2.4904,2.4796,2.4651,2.4559,2.4469,2.4395,2.4303,2.4228,2.5313,2.5313,2.5313,2.5313,2.5303,2.5284,2.5303,2.5303,2.5243,2.5192,2.5201,2.5271,2.536,2.5513,2.6029,2.6362,2.6638,2.7254,2.7687,2.7896,2.8214,2.8525,2.8863,2.9151,2.9344,3.0121,3.0071,2.9944,3.0225,3.0148,3.0321,3.0359,3.0217,3.0121,3.0275,3.0302,3.0321,3.0321,3.0263,3.0302,3.0359,3.0398,3.0398,3.0398,3.0398,3.0398,3.0302,3.0244,3.0102,3.0044,3.0025,2.989,2.9929,2.9956,2.9717,2.914,2.9102,2.8736,2.8063,2.789,2.7755,2.7371,2.6697,2.6428,2.6332,2.5909,2.5428,2.5543,2.539,2.5313,2.5313,2.5313,2.5313,2.5313,2.5313,2.5313,2.5313,2.5313,2.5313,2.5313,2.5293,2.5235,2.5045,2.4873,2.4723,2.4654,2.4716,2.467,2.4545,2.4545,2.461,2.4491,2.4485,2.4535,2.45,2.4524,2.4566,2.4664,2.476,2.4796,2.4809,2.4866,2.4864,2.4785,2.4847,2.4959,2.4996,2.5015,2.4939,2.4856,2.4634,2.4519,2.4446,2.441,2.4375,2.5313,2.5313,2.5313,2.5313,2.5313,2.5313,2.5313,2.5313,2.5293,2.5228,2.5297,2.5795,2.6168,2.6406,2.6924,2.7385,2.758,2.8253,2.8668,2.8744,2.9159,2.964,2.989,2.989,3.0083,3.0314,3.0398,3.0448,3.0359,3.0552,3.0456,3.0398,3.0629,3.0398,3.0379,3.0398,3.0379,3.0379,3.0379,3.0398,3.0398,3.0398,3.0398,3.0398,3.0417,3.0475,3.0513,3.0533,3.059,3.0544,3.0525,3.0456,3.0417,3.0398,3.0256,2.9948,2.9929,2.9871,2.9602,2.9467,2.8948,2.8159,2.7313,2.7044,2.7236,2.6043,2.5793,2.588,2.5736,2.5601,2.5313,2.5322,2.5341,2.5313,2.5313,2.5313,2.5313,2.5313,2.5313,2.5313,2.5293,2.5207,2.506,2.5034,2.4911,2.4823,2.4883,2.4727,2.4591,2.4623,2.467,2.4473,2.4391,2.4516,2.4565,2.4632,2.4748,2.4879,2.4989,2.5069,2.5061,2.5022,2.4986,2.4968,2.5061,2.5138,2.5141,2.516,2.516,2.5088,2.4869,2.4716,2.4648,2.4666,2.467,2.5313,2.5322,2.563,2.5745,2.5687,2.5437,2.5313,2.536,2.5591,2.5669,2.5817,2.6614,2.7042,2.73,2.786,2.8324,2.8409,2.9159,2.9563,2.964,3.0083,3.0244,3.0321,3.0398,3.0333,3.0467,3.0679,3.0775,3.0494,3.1044,3.1333,3.141,3.1256,3.1429,3.1256,3.0968,3.0398,3.0398,3.0398,3.0398,3.0398,3.0398,3.0398,3.0494,3.0648,3.0879,3.0948,3.1025,3.1121,3.0968,3.0833,3.0667,3.0533,3.0398,3.0398,3.0398,3.0379,3.0359,3.0283,3.0275,2.9679,2.9025,2.7948,2.7794,2.8005,2.7101,2.6814,2.6698,2.64,2.6274,2.613,2.6091,2.5986,2.5986,2.6005,2.6043,2.5505,2.5505,2.5563,2.5524,2.5293,2.5187,2.513,2.5118,2.5107,2.5072,2.5037,2.4855,2.47,2.4712,2.4746,2.4576,2.4542,2.4712,2.4793,2.4803,2.4926,2.5098,2.5202,2.5312,2.5216,2.5173,2.5143,2.5152,2.5231,2.5271,2.5283,2.5284,2.537,2.5312,2.5116,2.4984,2.4898,2.4858,2.4861,2.5322,2.5457,2.6245,2.6591,2.6524,2.588,2.5505,2.5476,2.6294,2.6621,2.6698,2.7533,2.7926,2.8103,2.8791,2.914,2.9217,2.9967,3.016,3.0275,3.034,3.0398,3.0398,3.0398,3.0513,3.0794,3.1076,3.1229,3.0756,3.1756,3.2506,3.266,3.2449,3.2449,3.2083,3.1564,3.0871,3.0763,3.0456,3.0436,3.0398,3.0552,3.0686,3.0917,3.1314,3.1641,3.1872,3.216,3.2141,3.1948,3.166,3.1179,3.0763,3.0436,3.0398,3.0398,3.0398,3.0398,3.0398,3.0398,3.0359,2.9871,2.941,2.9217,2.8794,2.8159,2.7689,2.7661,2.7525,2.7621,2.7648,2.7448,2.7255,2.7274,2.7294,2.6813,2.6024,2.5851,2.5928,2.5793,2.5447,2.5264,2.5245,2.5234,2.5203,2.5171,2.5153,2.5241,2.5059,2.4828,2.4837,2.4742,2.476,2.5009,2.5105,2.5313,2.5477,2.5735,2.5487,2.5505,2.5409,2.5303,2.5244,2.5243,2.537,2.5466,2.5678,2.5707,2.5659,2.5563,2.5582,2.5283,2.5195,2.5,2.4936,2.5659,2.6255,2.6505,2.6948,2.7448,2.7255,2.6813,2.6409,2.714,2.7535,2.7593,2.8401,2.8752,2.8833,2.9636,2.9917,3.009,3.0225,3.0321,3.0417,3.0494,3.0417,3.0436,3.0533,3.0775,3.1218,3.1595,3.1941,3.216,3.291,3.2968,3.2852,3.316,3.3083,3.2872,3.241,3.1891,3.1391,3.0936,3.0667,3.0763,3.1032,3.1282,3.1744,3.2218,3.2506,3.2699,3.2891,3.2833,3.2641,3.2025,3.1506,3.141,3.0794,3.0398,3.0398,3.0398,3.0398,3.0398,3.0398,3.0398,3.0398,3.0083,3.0102,2.966,2.8986,2.8352,2.8486,2.8437,2.8387,2.8368,2.8245,2.8063,2.7967,2.7986,2.7717,2.6967,2.6678,2.6717,2.6352,2.5976,2.5543,2.5505,2.5284,2.5253,2.5222,2.5294,2.5423,2.5386,2.5167,2.5215,2.5139,2.5265,2.5581,2.5944,2.6192,2.6269,2.6342,2.615,2.5909,2.5697,2.5572,2.539,2.5466,2.5726,2.6015,2.6256,2.6314,2.6487,2.6333,2.6275,2.5842,2.5466,2.5283,2.5111,2.611,2.6659,2.7332,2.7909,2.8371,2.8736,2.839,2.7794,2.8159,2.8382,2.8478,2.9256,2.961,2.9675,3.0129,3.034,3.034,3.034,3.0398,3.0456,3.0775,3.0621,3.0621,3.1044,3.1468,3.1872,3.2333,3.2833,3.3083,3.3391,3.3526,3.4045,3.393,3.391,3.3872,3.3603,3.3179,3.2602,3.2006,3.1379,3.1424,3.1782,3.2263,3.2776,3.3218,3.3353,3.3468,3.3603,3.3737,3.3506,3.2833,3.2506,3.2199,3.1429,3.0948,3.091,3.0533,3.0456,3.0398,3.0398,3.0398,3.0398,3.0417,3.0359,3.0148,2.9621,2.9475,2.9494,2.9183,2.896,2.8933,2.8887,2.8648,2.8448,2.8506,2.8582,2.8179,2.7755,2.742,2.7055,2.6593,2.6073,2.5755,2.5524,2.5292,2.5256,2.5466,2.5818,2.5721,2.5471,2.5708,2.5889,2.6042,2.6265,2.6626,2.6928,2.7005,2.7059,2.7093,2.6774,2.6283,2.6033,2.6024,2.6101,2.6236,2.6573,2.7006,2.7314,2.7488,2.7295,2.7093,2.6862,2.6332,2.5667,2.5482,2.6638,2.689,2.8506,2.9179,2.9294,2.9967,2.9852,2.9236,2.9179,2.9209,2.9355,3.0037,3.0283,3.0225,3.0379,3.0398,3.0494,3.0571,3.0737,3.0602,3.1448,3.1487,3.1506,3.2038,3.2326,3.2609,3.3038,3.3634,3.3526,3.391,3.4661,3.5488,3.5315,3.5141,3.4968,3.4564,3.4199,3.4007,3.3449,3.2897,3.2513,3.2776,3.3288,3.3846,3.4154,3.4314,3.4487,3.4776,3.5161,3.4584,3.4045,3.3641,3.2833,3.2237,3.1891,3.166,3.1256,3.1083,3.1025,3.1044,3.0802,3.0686,3.0513,3.0494,3.034,3.0129,3.0052,3.0033,2.9752,2.9713,2.9694,2.9687,2.9514,2.941,2.941,2.9313,2.8986,2.8544,2.8093,2.771,2.719,2.6727,2.665,2.6447,2.6322,2.5838,2.585,2.6346,2.6446,2.6178,2.6278,2.6692,2.6841,2.701,2.7213,2.7499,2.7679,2.7752,2.7854,2.7676,2.7185,2.6907,2.6697,2.689,2.7101,2.7428,2.7804,2.8258,2.8459,2.8118,2.7953,2.7918,2.736,2.6533,2.6274,2.6984,2.7736,2.941,3.0083,3.0121,3.0302,3.0294,3.0102,3.0083,3.0044,3.0121,3.0275,3.0398,3.0398,3.0398,3.0398,3.0475,3.0956,3.1333,3.1602,3.2199,3.241,3.2333,3.2788,3.3154,3.3622,3.4057,3.4461,3.4628,3.4988,3.5218,3.5468,3.5507,3.5507,3.5488,3.5084,3.5045,3.4988,3.4757,3.4141,3.357,3.3757,3.4218,3.4776,3.5122,3.5084,3.518,3.5257,3.5411,3.5161,3.4487,3.3776,3.2949,3.2737,3.2622,3.2545,3.2314,3.2083,3.2025,3.1948,3.1795,3.1487,3.1275,3.0917,3.0667,3.0494,3.0398,3.0417,3.0398,3.0398,3.0379,3.0359,3.0321,3.0263,3.0206,2.9967,2.9717,2.9275,2.8786,2.8343,2.7834,2.7593,2.7516,2.739,2.7302,2.7209,2.7141,2.7374,2.7642,2.7561,2.7295,2.7561,2.7653,2.7809,2.7958,2.812,2.8327,2.8455,2.8542,2.833,2.8046,2.7791,2.7582,2.7813,2.8074,2.8343,2.8767,2.9448,2.9494,2.9017,2.8806,2.8752,2.8387,2.7657,2.7475,2.7986,2.8582,2.9852,3.0398,3.0398,3.0398,3.0398,3.0398,3.0398,3.0398,3.0398,3.0398,3.0398,3.0398,3.0398,3.0436,3.059,3.1295,3.1525,3.1948,3.2833,3.3026,3.3276,3.3622,3.3872,3.4334,3.4705,3.5089,3.5449,3.5488,3.5468,3.5507,3.5507,3.5507,3.5507,3.5507,3.5507,3.5468,3.5507,3.5103,3.4493,3.4737,3.493,3.5449,3.5507,3.5507,3.5507,3.5507,3.5507,3.5468,3.5026,3.4776,3.416,3.3757,3.3526,3.3333,3.3122,3.2891,3.2949,3.2929,3.2776,3.2391,3.1814,3.1352,3.1263,3.1083,3.0737,3.0698,3.0436,3.0398,3.0398,3.0379,3.0379,3.034,3.0321,3.0186,3.009,2.989,2.964,2.9486,2.8948,2.8445,2.8253,2.7811,2.7712,2.7611,2.7695,2.8114,2.8442,2.868,2.8487,2.8359,2.8437,2.8465,2.8535,2.8765,2.9045,2.9154,2.9169,2.8989,2.8741,2.8571,2.8467,2.8621,2.8832,2.9121,2.964,3.0121,3.0237,2.979,2.9644,2.9579,2.9144,2.8799,2.8783,2.9113,2.9371,3.0083,3.0398,3.0398,3.0398,3.0398,3.0398,3.0398,3.0398,3.0398,3.0398,3.0398,3.0398,3.0552,3.0571,3.1006,3.2045,3.216,3.2622,3.3737,3.3968,3.4257,3.4603,3.4718,3.4834,3.5103,3.5282,3.5488,3.5507,3.5507,3.5507,3.5507,3.5507,3.5507,3.5507,3.5507,3.5507,3.5507,3.5507,3.5468,3.5507,3.5468,3.5468,3.5507,3.5507,3.5507,3.5507,3.5507,3.5468,3.5411,3.5295,3.5103,3.4641,3.4468,3.4237,3.393,3.3641,3.3487,3.3564,3.3353,3.2968,3.2314,3.1987,3.1968,3.1698,3.1364,3.1102,3.084,3.0544,3.0564,3.0456,3.0456,3.0456,3.0456,3.0456,3.0436,3.0417,3.039,3.0333,2.9906,2.9337,2.9029,2.8549,2.8368,2.8224,2.83,2.8681,2.9027,2.9216,2.9228,2.911,2.908,2.9096,2.9089,2.9189,2.9447,2.9576,2.9559,2.9522,2.9475,2.934,2.9294,2.9294,2.9525,2.9737,2.9948,3.0294,3.0321,3.0398,3.0167,3.0002,2.9994,2.9763,3.0033,2.9502,3.0179,3.0352,3.0398,3.0398,3.0398,3.0398,3.0398,3.0398,3.0398,3.0467,3.0417,3.0398,3.0456,3.1198,3.1455,3.1674,3.2782,3.3526,3.3987,3.4603,3.4891,3.5045,3.5122,3.5315,3.5353,3.5372,3.5449,3.5507,3.5507,3.5507,3.5507,3.5507,3.5507,3.5507,3.5507,3.5526,3.5603,3.5661,3.5661,3.5628,3.5589,3.5507,3.5507,3.5507,3.5507,3.5507,3.5507,3.5507,3.5507,3.5507,3.5507,3.5411,3.5276,3.5141,3.5007,3.4699,3.4699,3.4584,3.4584,3.441,3.3949,3.341,3.3122,3.2981,3.2666,3.2403,3.2231,3.1866,3.1218,3.1064,3.0794,3.0717,3.0717,3.0717,3.0717,3.0717,3.0698,3.0679,3.066,3.0544,3.0302,3.0263,2.9956,2.984,2.9704,2.9569,2.9851,2.9664,2.9808,3.0003,2.9964,2.9885,2.9638,2.9544,2.9471,2.963,2.9802,2.9945,2.9855,2.9939,3.0186,3.0129,2.991,3.0006,3.0217,3.0398,3.0679,3.0698,3.0737,3.0487,3.034,3.0475,3.0686,3.0948]},{"header":{"parameterUnit":"m.s-1","parameterCategory":1,"la1":31.0,"la2":29.5877,"lo1":-88.7671,"lo2":-86.6584,"dy":0.0162,"dx":0.0185,"nx":115,"ny":88,"refTime":"2024-09-17T06:00:00:Z","depth":0,"parameterNumber":3,"parameterNumberName":"V-component_of_WINDS"},"data":[0.0,0.0,0.0,0.0,0.0,0.0,0.0,0.0,0.0,0.0,0.0,0.0,0.0,0.0,0.0,0.0,0.0,0.0,0.0,0.0,0.0,0.0,0.0,0.0,0.0,0.0,0.0,0.0,0.0,0.0,0.0,0.0,0.0,0.0,0.0,0.0,0.0,0.0,0.0,0.0,0.0,0.0,0.0,0.0,0.0,0.0,0.0,0.0,0.0,0.0,0.0,0.0,0.0,0.0,0.0,0.0,0.0,0.0,0.0,0.0,0.0,0.0,0.0,0.0,0.0,0.0,0.0,0.0,0.0,0.0,0.0,0.0,0.0,0.0,0.0,0.0,0.0,0.0,0.0,0.0,0.0,0.0,0.0,0.0,0.0,0.0,0.0,0.0,0.0,0.0,0.0,0.0,0.0,0.0,0.0,0.0,0.0,0.0,0.0,0.0,0.0,0.0,0.0,0.0,0.0,0.0,0.0,0.0,0.0,0.0,0.0,0.0,0.0,0.0,0.0,0.0,0.0,0.0,0.0,0.0,0.0,0.0,0.0,0.0,0.0,0.0,0.0,0.0,0.0,0.0,0.0,0.0,0.0,0.0,0.0,0.0,0.0,0.0,0.0,0.0,0.0,0.0,0.0,0.0,0.0,0.0,0.0,0.0,0.0,0.0,0.0,0.0,0.0,0.0,0.0,0.0,0.0,0.0,0.0,0.0,0.0,0.0,0.0,0.0,0.0,0.0,0.0,0.0,0.0,0.0,0.0,0.0,0.0,0.0,0.0,0.0,0.0,0.0,0.0,0.0,0.0,0.0,0.0,0.0,0.0,0.0,0.0,0.0,0.0,0.0,0.0,0.0,0.0,0.0,0.0,0.0,0.0,0.0,0.0,0.0,0.0,0.0,0.0,0.0,0.0,0.0,0.0,0.0,0.0,0.0,0.0,0.0,0.0,0.0,0.0,0.0,0.0,0.0,0.0,0.0,0.0,0.0,0.0,0.0,0.0,0.0,0.0,0.0,0.0,0.0,0.0,0.0,0.0,0.0,0.0,0.0,0.0,0.0,0.0,0.0,0.0,0.0,0.0,0.0,0.0,0.0,0.0,0.0,0.0,0.0,0.0,0.0,0.0,0.0,0.0,0.0,0.0,0.0,0.0,0.0,0.0,0.0,0.0,0.0,0.0,0.0,0.0,0.0,0.0,0.0,0.0,0.0,0.0,0.0,0.0,0.0,0.0,0.0,0.0,0.0,0.0,0.0,0.0,0.0,0.0,0.0,0.0,0.0,0.0,0.0,0.0,0.0,0.0,0.0,0.0,0.0,0.0,0.0,0.0,0.0,0.0,0.0,0.0,0.0,0.0,0.0,0.0,0.0,0.0,0.0,0.0,0.0,0.0,0.0,0.0,0.0,0.0,0.0,0.0,0.0,0.0,0.0,0.0,0.0,0.0,0.0,0.0,0.0,0.0,0.0,0.0,0.0,0.0,0.0,0.0,0.0,0.0,0.0,0.0,0.0,0.0,0.0,0.0,0.0,0.0,0.0,0.0,0.0,0.0,0.0,0.0,0.0,0.0,0.0,0.0,0.0,0.0,0.0,0.0,0.0,0.0,0.0,0.0,0.0,0.0,0.0,0.0,0.0,0.0,0.0,0.0,0.0,0.0,0.0,0.0,0.0,0.0,0.0,0.0,0.0,0.0,0.0,0.0,0.0,0.0,0.0,0.0,0.0,0.0,0.0,0.0,0.0,0.0,0.0,0.0,0.0,0.0,0.0,0.0,0.0,0.0,0.0,0.0,0.0,0.0,0.0,0.0,0.0,0.0,0.0,0.0,0.0,0.0,0.0,0.0,0.0,0.0,0.0,0.0,0.0,0.0,0.0,0.0,0.0,0.0,0.0,0.0,0.0,0.0,0.0,0.0,0.0,0.0,0.0,0.0,0.0,0.0,0.0,0.0,0.0,0.0,0.0,0.0,0.0,0.0,0.0,0.0,0.0,0.0,0.0,0.0,0.0,0.0,0.0,0.0,0.0,0.0,0.0,0.0,0.0,0.0,0.0,0.0,0.0,0.0,0.0,0.0,0.0,0.0,0.0,0.0,0.0,0.0,0.0,0.0,0.0,0.0,0.0,0.0,0.0,0.0,0.0,0.0,0.0,0.0,0.0,0.0,0.0,0.0,0.0,0.0,0.0,0.0,0.0,0.0,0.0,0.0,0.0,0.0,0.0,0.0,0.0,0.0,0.0,0.0,0.0,0.0,0.0,0.0,0.0,0.0,0.0,0.0,0.0,0.0,0.0,0.0,0.0,0.0,0.0,0.0,0.0,0.0,0.0,0.0,0.0,0.0,0.0,0.0,0.0,0.0,0.0,0.0,0.0,0.0,0.0,0.0,0.0,0.0,0.0,0.0,0.0,0.0,0.0,0.0,0.0,0.0,0.0,0.0,0.0,0.0,0.0,0.0,0.0,0.0,0.0,0.0,0.0,0.0,0.0,0.0,0.0,0.0,0.0,0.0,0.0,0.0,0.0,0.0,0.0,0.0,0.0,0.0,0.0,0.0,0.0,0.0,0.0,0.0,0.0,0.0,0.0,0.0,0.0,0.0,0.0,0.0,0.0,0.0,0.0,0.0,0.0,0.0,0.0,0.0,0.0,0.0,0.0,0.0,0.0,0.0,0.0,0.0,0.0,0.0,0.0,0.0,0.0,0.0,0.0,0.0,0.0,0.0,0.0,0.0,0.0,0.0,0.0,0.0,0.0,0.0,0.0,0.0,0.0,0.0,0.0,0.0,0.0,0.0,0.0,0.0,0.0,0.0,0.0,0.0,0.0,0.0,0.0,0.0,0.0,0.0,0.0,0.0,0.0,0.0,0.0,0.0,0.0,0.0,0.0,0.0,0.0,0.0,0.0,0.0,0.0,0.0,0.0,0.0,0.0,0.0,0.0,0.0,0.0,0.0,0.0,0.0,0.0,0.0,0.0,0.0,0.0,0.0,0.0,0.0,0.0,0.0,0.0,0.0,0.0,0.0,0.0,0.0,0.0,0.0,0.0,0.0,0.0,0.0,0.0,0.0,0.0,0.0,0.0,0.0,0.0,0.0,0.0,0.0,0.0,0.0,0.0,0.0,0.0,0.0,0.0,0.0,0.0,0.0,0.0,0.0,0.0,0.0,0.0,0.0,0.0,0.0,0.0,0.0,0.0,0.0,0.0,0.0,0.0,0.0,0.0,0.0,0.0,0.0,0.0,0.0,0.0,0.0,0.0,0.0,0.0,0.0,0.0,0.0,0.0,0.0,0.0,0.0,0.0,0.0,0.0,0.0,0.0,0.0,0.0,0.0,0.0,0.0,0.0,0.0,0.0,0.0,0.0,0.0,0.0,0.0,0.0,0.0,0.0,0.0,0.0,0.0,0.0,0.0,0.0,0.0,0.0,0.0,0.0,0.0,0.0,0.0,0.0,0.0,0.0,0.0,0.0,0.0,0.0,0.0,0.0,0.0,0.0,0.0,0.0,0.0,0.0,0.0,0.0,0.0,0.0,0.0,0.0,0.0,0.0,0.0,0.0,0.0,0.0,0.0,0.0,0.0,0.0,0.0,0.0,0.0,0.0,0.0,0.0,0.0,0.0,0.0,0.0,0.0,0.0,0.0,0.0,0.0,0.0,0.0,0.0,0.0,0.0,0.0,0.0,0.0,0.0,0.0,0.0,0.0,0.0,0.0,0.0,0.0,0.0,0.0,0.0,0.0,0.0,0.0,0.0,0.0,0.0,0.0,0.0,0.0,0.0,0.0,0.0,0.0,0.0,0.0,0.0,0.0,0.0,0.0,0.0,0.0,0.0,0.0,0.0,0.0,0.0,0.0,0.0,0.0,0.0,0.0,0.0,0.0,0.0,0.0,0.0,0.0,0.0,0.0,0.0,0.0,0.0,0.0,0.0,0.0,0.0,0.0,0.0,0.0,0.0,0.0,0.0,0.0,0.0,0.0,0.0,0.0,0.0,0.0,0.0,0.0,0.0,0.0,0.0,0.0,0.0,0.0,0.0,0.0,0.0,0.0,0.0,0.0,0.0,0.0,0.0,0.0,0.0,0.0,0.0,0.0,0.0,0.0,0.0,0.0,0.0,0.0,0.0,0.0,0.0,0.0,0.0,0.0,0.0,0.0,0.0,0.0,0.0,0.0,0.0,0.0,0.0,0.0,0.0,0.0,0.0,0.0,0.0,0.0,0.0,0.0,0.0,0.0,0.0,0.0,0.0,0.0,0.0,0.0,0.0,0.0,0.0,0.0,0.0,-0.4477,0.0,0.0,0.0,0.0,0.0,0.0,0.0,0.0,0.0,0.0,0.0,0.0,0.0,0.0,0.0,0.0,0.0,0.0,0.0,0.0,0.0,0.0,0.0,0.0,0.0,0.0,0.0,0.0,0.0,0.0,0.0,0.0,0.0,0.0,0.0,0.0,0.0,0.0,0.0,0.0,0.0,0.0,0.0,0.0,0.0,0.0,0.0,0.0,0.0,0.0,0.0,0.0,0.0,0.0,0.0,0.0,0.0,0.0,0.0,0.0,0.0,0.0,0.0,0.0,0.0,0.0,0.0,0.0,0.0,0.0,0.0,0.0,0.0,0.0,0.0,0.0,0.0,0.0,0.0,0.0,0.0,0.0,0.0,0.0,0.0,0.0,0.0,0.0,0.0,0.0,0.0,0.0,0.0,0.0,0.0,0.0,0.0,0.0,0.0,0.0,0.0,0.0,0.0,0.0,0.0,0.0,0.0,0.0,0.0,0.0,-0.4848,-0.4755,-0.4776,-0.4691,-0.4529,0.0,0.0,0.0,0.0,0.0,0.0,0.0,0.0,0.0,0.0,0.0,0.0,0.0,0.0,0.0,0.0,0.0,0.0,0.0,0.0,0.0,0.0,0.0,0.0,0.0,0.0,0.0,0.0,0.0,0.0,0.0,0.0,0.0,0.0,0.0,0.0,0.0,0.0,0.0,0.0,0.0,0.0,0.0,0.0,0.0,0.0,0.0,0.0,0.0,0.0,0.0,0.0,0.0,0.0,0.0,0.0,0.0,0.0,0.0,0.0,0.0,0.0,0.0,0.0,0.0,0.0,0.0,0.0,0.0,0.0,0.0,0.0,0.0,0.0,0.0,0.0,0.0,0.0,0.0,0.0,0.0,0.0,0.0,0.0,0.0,0.0,0.0,0.0,0.0,0.0,0.0,0.0,0.0,0.0,0.0,0.0,0.0,0.0,0.0,0.0,0.0,0.0,0.0,0.0,0.0,0.0,0.0,0.0,0.0,0.0,0.0,0.0,-0.4663,-0.4653,-0.4529,0.0,0.0,0.0,0.0,0.0,0.0,0.0,0.0,0.0,0.0,0.0,0.0,0.0,0.0,0.0,0.0,0.0,0.0,0.0,0.0,0.0,0.0,0.0,0.0,0.0,0.0,0.0,0.0,0.0,0.0,0.0,0.0,0.0,0.0,0.0,0.0,0.0,0.0,0.0,0.0,0.0,0.0,0.0,0.0,0.0,0.0,0.0,0.0,0.0,0.0,0.0,0.0,0.0,0.0,0.0,0.0,0.0,0.0,0.0,0.0,0.0,0.0,0.0,0.0,0.0,0.0,0.0,0.0,0.0,0.0,0.0,0.0,0.0,0.0,0.0,0.0,0.0,0.0,0.0,0.0,0.0,0.0,0.0,0.0,0.0,0.0,0.0,0.0,0.0,0.0,0.0,0.0,0.0,0.0,0.0,0.0,0.0,0.0,0.0,0.0,0.0,0.0,0.0,0.0,0.0,0.0,0.0,0.0,0.0,0.0,-0.4742,-0.4789,-0.4813,0.0,-0.4553,0.0,0.0,0.0,0.0,0.0,0.0,0.0,0.0,0.0,0.0,0.0,0.0,0.0,0.0,0.0,0.0,0.0,0.0,0.0,0.0,0.0,0.0,0.0,0.0,0.0,0.0,0.0,0.0,0.0,0.0,0.0,0.0,0.0,0.0,0.0,0.0,0.0,0.0,0.0,0.0,0.0,0.0,0.0,0.0,0.0,0.0,0.0,0.0,0.0,0.0,0.0,0.0,0.0,0.0,0.0,0.0,0.0,0.0,0.0,0.0,0.0,0.0,0.0,0.0,0.0,0.0,0.0,0.0,0.0,0.0,0.0,0.0,0.0,0.0,0.0,0.0,0.0,0.0,0.0,0.0,0.0,0.0,0.0,0.0,0.0,0.0,0.0,0.0,0.0,0.0,0.0,0.0,0.0,0.0,0.0,0.0,0.0,0.0,0.0,0.0,0.0,0.0,0.0,0.0,0.0,0.0,0.0,0.0,0.0,0.0,-0.4716,-0.4749,-0.4721,-0.4592,0.0,0.0,0.0,0.0,0.0,0.0,0.0,0.0,0.0,0.0,0.0,0.0,0.0,0.0,0.0,0.0,0.0,0.0,0.0,0.0,0.0,0.0,0.0,0.0,0.0,0.0,0.0,0.0,0.0,0.0,0.0,0.0,0.0,0.0,0.0,0.0,0.0,0.0,0.0,0.0,0.0,0.0,0.0,0.0,0.0,0.0,0.0,0.0,0.0,0.0,0.0,0.0,0.0,0.0,0.0,0.0,0.0,0.0,0.0,0.0,0.0,0.0,0.0,0.0,0.0,0.0,0.0,0.0,0.0,0.0,0.0,0.0,0.0,0.0,0.0,0.0,0.0,0.0,0.0,0.0,0.0,0.0,0.0,0.0,0.0,0.0,0.0,0.0,0.0,0.0,0.0,0.0,0.0,0.0,0.0,0.0,0.0,0.0,0.0,0.0,0.0,0.0,0.0,0.0,0.0,0.0,0.0,0.0,0.0,0.0,-0.4598,-0.465,-0.4677,-0.4585,-0.4487,-0.4409,0.0,0.0,0.0,0.0,0.0,0.0,0.0,0.0,0.0,0.0,0.0,0.0,0.0,0.0,0.0,0.0,0.0,0.0,0.0,0.0,0.0,0.0,0.0,0.0,0.0,0.0,0.0,0.0,0.0,0.0,0.0,0.0,0.0,0.0,0.0,0.0,0.0,0.0,0.0,0.0,0.0,0.0,0.0,0.0,0.0,0.0,0.0,0.0,0.0,0.0,0.0,0.0,0.0,0.0,0.0,0.0,0.0,0.0,0.0,0.0,0.0,0.0,0.0,0.0,0.0,0.0,0.0,0.0,0.0,0.0,0.0,0.0,0.0,0.0,0.0,0.0,0.0,0.0,0.0,0.0,0.0,0.0,0.0,0.0,0.0,0.0,0.0,0.0,0.0,0.0,0.0,0.0,0.0,0.0,0.0,0.0,0.0,0.0,0.0,0.0,0.0,0.0,0.0,0.0,0.0,0.0,0.0,0.0,0.0,-0.4594,-0.4594,-0.4687,-0.468,-0.4548,0.0,0.0,0.0,0.0,0.0,0.0,0.0,0.0,0.0,0.0,0.0,0.0,0.0,0.0,0.0,0.0,0.0,0.0,0.0,0.0,0.0,0.0,0.0,0.0,0.0,0.0,0.0,0.0,0.0,0.0,0.0,0.0,0.0,0.0,0.0,0.0,0.0,0.0,0.0,0.0,0.0,0.0,0.0,0.0,0.0,0.0,0.0,0.0,0.0,0.0,0.0,0.0,0.0,0.0,0.0,0.0,0.0,0.0,0.0,0.0,0.0,0.0,0.0,0.0,0.0,0.0,0.0,0.0,0.0,0.0,0.0,0.0,0.0,0.0,0.0,0.0,0.0,0.0,0.0,0.0,0.0,0.0,0.0,0.0,0.0,0.0,0.0,0.0,0.0,0.0,0.0,0.0,0.0,0.0,0.0,0.0,0.0,0.0,0.0,0.0,0.0,0.0,0.0,0.0,0.0,0.0,0.0,0.0,0.0,-0.4597,-0.4585,-0.4704,-0.4845,-0.4524,-0.4513,0.0,0.0,0.0,0.0,0.0,0.0,0.0,0.0,0.0,0.0,0.0,0.0,0.0,0.0,0.0,0.0,0.0,0.0,0.0,0.0,0.0,0.0,0.0,0.0,0.0,0.0,0.0,0.0,0.0,0.0,0.0,0.0,0.0,0.0,0.0,0.0,0.0,0.0,0.0,0.0,0.0,0.0,0.0,0.0,0.0,0.0,0.0,0.0,0.0,0.0,0.0,0.0,0.0,0.0,0.0,0.0,0.0,0.0,0.0,0.0,0.0,0.0,0.0,0.0,0.0,0.0,0.0,0.0,0.0,0.0,0.0,0.0,0.0,0.0,0.0,0.0,0.0,0.0,0.0,0.0,0.0,0.0,0.0,0.0,0.0,0.0,0.0,0.0,0.0,0.0,0.0,0.0,0.0,0.0,0.0,0.0,0.0,0.0,0.0,0.0,0.0,0.0,0.0,0.0,0.0,0.0,0.0,0.0,0.0,-0.4522,0.0,-0.469,0.0,-0.4395,-0.448,0.0,0.0,0.0,0.0,0.0,0.0,0.0,0.0,0.0,0.0,0.0,0.0,0.0,0.0,0.0,0.0,0.0,0.0,0.0,0.0,0.0,0.0,0.0,0.0,0.0,0.0,0.0,0.0,0.0,0.0,0.0,0.0,0.0,0.0,0.0,0.0,0.0,0.0,0.0,0.0,0.0,0.0,0.0,0.0,0.0,0.0,0.0,0.0,0.0,0.0,0.0,0.0,0.0,0.0,0.0,0.0,0.0,0.0,0.0,0.0,0.0,0.0,0.0,0.0,0.0,0.0,0.0,0.0,0.0,0.0,0.0,0.0,0.0,0.0,0.0,0.0,0.0,0.0,0.0,0.0,0.0,0.0,0.0,0.0,0.0,0.0,0.0,0.0,0.0,0.0,0.0,0.0,0.0,0.0,0.0,0.0,0.0,0.0,0.0,0.0,0.0,0.0,0.0,0.0,0.0,0.0,0.0,0.0,-0.4512,-0.4512,-0.4519,-0.4529,-0.4463,-0.4317,-0.4426,0.0,0.0,0.0,0.0,0.0,0.0,0.0,0.0,0.0,0.0,0.0,0.0,0.0,0.0,0.0,0.0,0.0,0.0,0.0,0.0,0.0,0.0,0.0,0.0,0.0,0.0,0.0,0.0,0.0,0.0,0.0,0.0,0.0,0.0,0.0,0.0,0.0,0.0,0.0,0.0,0.0,0.0,0.0,0.0,0.0,0.0,0.0,0.0,0.0,0.0,0.0,0.0,0.0,0.0,0.0,0.0,0.0,0.0,0.0,0.0,0.0,0.0,0.0,0.0,0.0,0.0,0.0,0.0,0.0,0.0,0.0,0.0,0.0,0.0,0.0,0.0,0.0,0.0,0.0,0.0,0.0,0.0,0.0,0.0,0.0,0.0,0.0,0.0,0.0,0.0,0.0,0.0,0.0,0.0,0.0,0.0,0.0,0.0,0.0,0.0,0.0,0.0,0.0,0.0,0.0,0.0,0.0,0.0,0.0,-0.4317,-0.4412,-0.4463,-0.4512,-0.4636,-0.496,0.0,0.0,0.0,0.0,0.0,0.0,0.0,0.0,0.0,0.0,0.0,0.0,0.0,0.0,0.0,0.0,0.0,0.0,0.0,0.0,0.0,0.0,0.0,0.0,0.0,0.0,0.0,0.0,0.0,0.0,0.0,0.0,0.0,0.0,0.0,0.0,0.0,0.0,0.0,0.0,0.0,0.0,0.0,0.0,0.0,0.0,0.0,0.0,0.0,0.0,0.0,0.0,0.0,0.0,0.0,0.0,0.0,0.0,0.0,0.0,0.0,0.0,0.0,0.0,0.0,0.0,0.0,0.0,0.0,0.0,0.0,0.0,0.0,0.0,0.0,0.0,0.0,0.0,0.0,0.0,0.0,0.0,0.0,0.0,0.0,0.0,0.0,0.0,0.0,0.0,0.0,0.0,0.0,0.0,0.0,0.0,0.0,0.0,0.0,0.0,0.0,0.0,0.0,0.0,0.0,0.0,0.0,0.0,0.0,-0.4204,-0.4385,-0.4463,-0.4463,-0.4848,-0.5263,-0.577,0.0,0.0,0.0,0.0,0.0,0.0,0.0,0.0,0.0,0.0,0.0,0.0,0.0,0.0,0.0,0.0,0.0,0.0,0.0,0.0,0.0,0.0,0.0,0.0,0.0,0.0,0.0,0.0,0.0,0.0,0.0,0.0,0.0,0.0,0.0,0.0,0.0,0.0,0.0,0.0,0.0,0.0,0.0,0.0,0.0,0.0,0.0,0.0,0.0,0.0,0.0,0.0,0.0,0.0,0.0,0.0,0.0,0.0,0.0,0.0,0.0,0.0,0.0,0.0,0.0,0.0,0.0,0.0,0.0,0.0,0.0,0.0,0.0,0.0,0.0,0.0,0.0,0.0,0.0,0.0,0.0,0.0,0.0,0.0,0.0,0.0,0.0,0.0,0.0,0.0,0.0,0.0,0.0,0.0,0.0,0.0,0.0,0.0,0.0,0.0,0.0,0.0,0.0,0.0,0.0,0.0,0.0,0.0,-0.421,-0.4392,-0.4519,-0.457,-0.5055,-0.5497,0.0,0.0,0.0,0.0,0.0,0.0,0.0,0.0,0.0,0.0,0.0,0.0,0.0,0.0,0.0,0.0,0.0,0.0,0.0,0.0,0.0,0.0,0.0,0.0,0.0,0.0,0.0,0.0,0.0,0.0,0.0,0.0,0.0,0.0,0.0,0.0,0.0,0.0,0.0,0.0,0.0,0.0,0.0,0.0,0.0,0.0,0.0,0.0,0.0,0.0,0.0,0.0,0.0,0.0,0.0,0.0,0.0,0.0,0.0,0.0,0.0,0.0,0.0,0.0,0.0,0.0,0.0,0.0,0.0,0.0,0.0,0.0,0.0,0.0,0.0,0.0,0.0,0.0,0.0,0.0,0.0,0.0,0.0,0.0,0.0,0.0,0.0,0.0,0.0,0.0,0.0,0.0,0.0,0.0,0.0,0.0,0.0,0.0,0.0,0.0,0.0,0.0,0.0,0.0,0.0,0.0,0.0,0.0,0.0,-0.4406,-0.4498,-0.4732,-0.5214,-0.5676,-0.6273,0.0,0.0,0.0,0.0,0.0,0.0,0.0,0.0,0.0,0.0,0.0,0.0,0.0,0.0,0.0,0.0,0.0,0.0,0.0,0.0,0.0,0.0,0.0,0.0,0.0,0.0,0.0,0.0,0.0,0.0,0.0,0.0,0.0,0.0,0.0,0.0,0.0,0.0,0.0,0.0,0.0,0.0,0.0,0.0,0.0,0.0,0.0,0.0,0.0,0.0,0.0,0.0,0.0,0.0,0.0,0.0,0.0,0.0,0.0,0.0,0.0,0.0,0.0,0.0,0.0,0.0,0.0,0.0,0.0,0.0,0.0,0.0,0.0,0.0,0.0,0.0,0.0,0.0,0.0,0.0,0.0,0.0,0.0,0.0,0.0,0.0,0.0,0.0,0.0,0.0,0.0,0.0,0.0,0.0,0.0,0.0,0.0,0.0,0.0,0.0,0.0,0.0,0.0,0.0,0.0,0.0,0.0,0.0,-0.4456,-0.4739,-0.4739,-0.5214,-0.6226,-0.6355,-0.666,0.0,0.0,0.0,0.0,0.0,0.0,0.0,0.0,0.0,0.0,0.0,0.0,0.0,0.0,0.0,0.0,0.0,0.0,0.0,0.0,0.0,0.0,0.0,0.0,0.0,0.0,0.0,0.0,0.0,0.0,0.0,0.0,0.0,0.0,0.0,0.0,0.0,0.0,0.0,0.0,0.0,0.0,0.0,0.0,0.0,0.0,0.0,0.0,0.0,0.0,0.0,0.0,0.0,0.0,0.0,0.0,0.0,0.0,0.0,0.0,0.0,0.0,0.0,0.0,0.0,0.0,0.0,0.0,0.0,0.0,0.0,0.0,0.0,0.0,0.0,0.0,0.0,0.0,0.0,0.0,0.0,0.0,0.0,0.0,0.0,0.0,0.0,0.0,0.0,0.0,0.0,0.0,0.0,0.0,0.0,0.0,0.0,0.0,0.0,0.0,0.0,0.0,0.0,0.0,0.0,0.0,0.0,0.0,-0.4649,-0.5096,-0.5108,-0.5752,-0.7182,-0.6907,-0.6939,0.0,0.0,0.0,0.0,0.0,0.0,0.0,0.0,0.0,0.0,0.0,0.0,0.0,0.0,0.0,0.0,0.0,0.0,0.0,0.0,0.0,0.0,0.0,0.0,0.0,0.0,0.0,0.0,0.0,0.0,0.0,0.0,0.0,0.0,0.0,0.0,0.0,0.0,0.0,0.0,0.0,0.0,0.0,0.0,0.0,0.0,0.0,0.0,0.0,0.0,0.0,0.0,0.0,0.0,0.0,0.0,0.0,0.0,0.0,0.0,0.0,0.0,0.0,0.0,0.0,0.0,0.0,0.0,0.0,0.0,0.0,0.0,0.0,0.0,0.0,0.0,0.0,0.0,0.0,0.0,0.0,0.0,0.0,0.0,0.0,0.0,0.0,0.0,0.0,0.0,0.0,0.0,0.0,0.0,0.0,0.0,0.0,0.0,0.0,0.0,0.0,0.0,0.0,0.0,0.0,0.0,0.0,0.0,-0.4552,-0.5074,-0.4964,-0.5555,-0.686,-0.7074,-0.7451,0.0,0.0,0.0,0.0,0.0,0.0,0.0,0.0,0.0,0.0,0.0,0.0,0.0,0.0,0.0,0.0,0.0,0.0,0.0,0.0,0.0,0.0,0.0,0.0,0.0,0.0,0.0,0.0,0.0,0.0,0.0,0.0,0.0,0.0,0.0,0.0,0.0,0.0,0.0,0.0,0.0,0.0,0.0,0.0,0.0,0.0,0.0,0.0,-1.2871,0.0,0.0,0.0,0.0,0.0,0.0,0.0,0.0,0.0,0.0,0.0,0.0,0.0,0.0,0.0,0.0,0.0,0.0,0.0,0.0,0.0,0.0,0.0,0.0,0.0,0.0,0.0,0.0,0.0,0.0,0.0,0.0,0.0,0.0,0.0,0.0,0.0,0.0,0.0,0.0,0.0,0.0,0.0,0.0,0.0,0.0,0.0,0.0,0.0,0.0,0.0,0.0,0.0,0.0,0.0,0.0,0.0,0.0,0.0,-0.4848,-0.5272,-0.5478,-0.611,-0.709,-0.755,-0.7907,0.0,0.0,0.0,0.0,0.0,0.0,0.0,0.0,0.0,0.0,0.0,0.0,0.0,0.0,0.0,0.0,0.0,0.0,0.0,0.0,0.0,0.0,0.0,0.0,0.0,0.0,0.0,0.0,0.0,0.0,0.0,0.0,0.0,0.0,0.0,0.0,0.0,0.0,0.0,0.0,0.0,0.0,0.0,0.0,0.0,0.0,0.0,0.0,0.0,0.0,0.0,0.0,0.0,0.0,0.0,0.0,0.0,0.0,0.0,0.0,0.0,0.0,0.0,0.0,0.0,0.0,0.0,0.0,0.0,0.0,0.0,0.0,0.0,0.0,0.0,0.0,0.0,0.0,0.0,0.0,0.0,0.0,0.0,0.0,0.0,0.0,0.0,0.0,0.0,0.0,0.0,0.0,0.0,0.0,0.0,0.0,0.0,0.0,0.0,0.0,0.0,0.0,0.0,0.0,0.0,0.0,0.0,-0.4711,-0.5244,-0.5486,-0.6021,-0.6662,-0.7377,-0.7853,-0.8015,-0.7915,0.0,0.0,0.0,0.0,0.0,0.0,0.0,0.0,0.0,0.0,0.0,0.0,0.0,0.0,0.0,0.0,0.0,0.0,0.0,0.0,0.0,0.0,0.0,0.0,0.0,0.0,0.0,0.0,0.0,0.0,0.0,0.0,0.0,0.0,0.0,0.0,0.0,0.0,-0.9106,-0.9666,0.0,0.0,0.0,0.0,0.0,0.0,0.0,0.0,-1.291,0.0,0.0,0.0,0.0,0.0,0.0,0.0,0.0,0.0,0.0,0.0,0.0,0.0,0.0,0.0,0.0,0.0,0.0,0.0,0.0,0.0,0.0,0.0,0.0,0.0,0.0,0.0,0.0,0.0,0.0,0.0,0.0,0.0,0.0,0.0,0.0,0.0,0.0,0.0,0.0,0.0,0.0,0.0,0.0,0.0,0.0,0.0,0.0,0.0,0.0,0.0,0.0,0.0,0.0,0.0,0.0,-0.4157,-0.4661,-0.5105,-0.5474,-0.569,-0.6204,-0.7027,-0.7159,-0.7419,-0.7908,0.0,0.0,0.0,0.0,0.0,0.0,0.0,0.0,0.0,0.0,0.0,0.0,0.0,0.0,0.0,0.0,0.0,0.0,0.0,0.0,0.0,0.0,0.0,0.0,0.0,0.0,0.0,0.0,0.0,0.0,0.0,0.0,0.0,0.0,0.0,0.0,0.0,0.0,0.0,-1.1065,-1.1724,0.0,0.0,0.0,0.0,0.0,0.0,0.0,0.0,-1.2919,0.0,0.0,0.0,0.0,0.0,0.0,0.0,0.0,0.0,0.0,0.0,0.0,0.0,0.0,0.0,0.0,0.0,0.0,0.0,0.0,0.0,0.0,0.0,0.0,0.0,0.0,0.0,0.0,0.0,0.0,0.0,0.0,0.0,0.0,0.0,0.0,0.0,0.0,0.0,0.0,0.0,0.0,0.0,0.0,0.0,0.0,0.0,0.0,0.0,0.0,0.0,0.0,0.0,0.0,0.0,-0.4233,-0.5002,-0.5382,-0.5425,-0.5896,-0.6354,-0.6767,-0.7324,-0.7754,0.0,0.0,0.0,0.0,0.0,0.0,0.0,0.0,0.0,0.0,0.0,0.0,0.0,0.0,0.0,0.0,0.0,0.0,0.0,0.0,0.0,0.0,0.0,0.0,0.0,0.0,0.0,0.0,0.0,0.0,0.0,0.0,0.0,0.0,0.0,0.0,0.0,0.0,0.0,0.0,-1.1065,-1.1765,-1.317,0.0,0.0,0.0,0.0,0.0,0.0,-1.3946,-1.4331,0.0,0.0,0.0,0.0,0.0,0.0,0.0,0.0,0.0,0.0,0.0,0.0,0.0,0.0,0.0,0.0,0.0,0.0,0.0,0.0,0.0,0.0,0.0,0.0,0.0,0.0,0.0,0.0,0.0,0.0,0.0,0.0,0.0,0.0,0.0,0.0,0.0,0.0,0.0,0.0,0.0,0.0,0.0,0.0,0.0,0.0,0.0,0.0,0.0,0.0,0.0,0.0,0.0,0.0,0.0,-0.4186,-0.5247,-0.5644,-0.5363,-0.6086,-0.6578,-0.6712,-0.7417,-0.7941,0.0,0.0,0.0,0.0,0.0,0.0,0.0,0.0,0.0,0.0,0.0,0.0,0.0,0.0,0.0,0.0,0.0,0.0,0.0,0.0,0.0,0.0,0.0,0.0,0.0,0.0,0.0,0.0,0.0,0.0,0.0,0.0,0.0,0.0,0.0,0.0,0.0,0.0,0.0,0.0,0.0,-1.1846,-1.3521,-1.3515,0.0,0.0,0.0,0.0,-1.3261,-1.5074,0.0,0.0,0.0,0.0,0.0,0.0,0.0,0.0,0.0,0.0,0.0,0.0,0.0,0.0,0.0,0.0,0.0,0.0,0.0,0.0,0.0,0.0,0.0,0.0,0.0,0.0,0.0,0.0,0.0,0.0,0.0,0.0,0.0,0.0,0.0,0.0,0.0,0.0,0.0,0.0,0.0,0.0,0.0,0.0,0.0,0.0,0.0,0.0,0.0,0.0,0.0,0.0,0.0,0.0,0.0,0.0,-0.4072,-0.5189,-0.5654,-0.5351,-0.5927,-0.6546,-0.7085,-0.6751,-0.703,0.0,0.0,0.0,0.0,0.0,0.0,0.0,0.0,0.0,0.0,0.0,0.0,0.0,0.0,0.0,0.0,0.0,0.0,0.0,0.0,0.0,0.0,0.0,0.0,0.0,0.0,0.0,0.0,0.0,0.0,0.0,0.0,0.0,0.0,0.0,0.0,0.0,0.0,0.0,0.0,0.0,-1.288,-1.3674,-1.419,-1.456,0.0,0.0,-1.4495,-1.4518,-1.5621,0.0,0.0,0.0,0.0,0.0,0.0,0.0,0.0,0.0,0.0,0.0,0.0,0.0,0.0,0.0,0.0,0.0,0.0,0.0,0.0,0.0,0.0,0.0,0.0,0.0,0.0,0.0,0.0,0.0,0.0,0.0,0.0,0.0,0.0,0.0,0.0,0.0,0.0,0.0,0.0,0.0,0.0,0.0,0.0,0.0,0.0,0.0,0.0,0.0,0.0,0.0,0.0,0.0,0.0,0.0,-0.4172,-0.4576,-0.5389,-0.5799,-0.5836,-0.6065,-0.6472,-0.6959,-0.6808,-0.7099,0.0,0.0,0.0,0.0,0.0,0.0,0.0,0.0,0.0,0.0,0.0,0.0,0.0,0.0,0.0,0.0,0.0,0.0,0.0,0.0,0.0,0.0,0.0,0.0,0.0,0.0,0.0,0.0,0.0,0.0,0.0,0.0,0.0,0.0,0.0,0.0,0.0,0.0,0.0,0.0,0.0,0.0,-1.4179,-1.4514,0.0,0.0,0.0,-1.4921,-1.5611,0.0,0.0,0.0,0.0,0.0,0.0,0.0,0.0,0.0,0.0,0.0,0.0,0.0,0.0,0.0,0.0,0.0,0.0,0.0,0.0,0.0,0.0,0.0,0.0,0.0,0.0,0.0,0.0,0.0,0.0,0.0,0.0,0.0,0.0,0.0,0.0,0.0,0.0,0.0,0.0,0.0,0.0,0.0,0.0,0.0,0.0,0.0,0.0,0.0,0.0,0.0,0.0,0.0,0.0,0.0,0.0,0.0,-0.5149,-0.5751,-0.6053,-0.6096,-0.6259,-0.6506,-0.6798,-0.7008,0.0,0.0,0.0,0.0,0.0,0.0,0.0,0.0,0.0,0.0,0.0,0.0,0.0,0.0,0.0,0.0,0.0,0.0,0.0,0.0,0.0,0.0,0.0,0.0,0.0,0.0,0.0,-0.7274,0.0,0.0,0.0,0.0,0.0,0.0,0.0,0.0,0.0,0.0,0.0,0.0,0.0,0.0,-1.348,-1.4778,-1.5073,-1.5511,0.0,0.0,-1.5691,-1.6376,-1.6753,-1.6995,0.0,0.0,0.0,0.0,0.0,0.0,0.0,0.0,0.0,0.0,0.0,0.0,0.0,0.0,0.0,0.0,0.0,0.0,0.0,0.0,0.0,0.0,0.0,0.0,0.0,0.0,0.0,0.0,0.0,0.0,0.0,0.0,0.0,0.0,0.0,0.0,0.0,0.0,0.0,0.0,0.0,0.0,0.0,0.0,0.0,0.0,0.0,0.0,0.0,0.0,0.0,0.0,0.0,0.0,0.0,-0.5497,-0.6287,-0.6384,-0.5763,-0.6412,-0.6783,-0.69,-0.7014,-0.7292,0.0,0.0,0.0,0.0,0.0,0.0,0.0,0.0,0.0,0.0,0.0,0.0,0.0,0.0,0.0,0.0,0.0,0.0,0.0,0.0,0.0,0.0,0.0,0.0,0.0,0.0,0.0,0.0,0.0,0.0,0.0,0.0,0.0,0.0,0.0,0.0,0.0,0.0,0.0,0.0,0.0,-1.4125,-1.5353,-1.6008,-1.6582,0.0,0.0,-1.722,-1.6573,-1.7316,-1.8309,-1.9316,0.0,0.0,0.0,0.0,0.0,0.0,0.0,0.0,0.0,0.0,0.0,0.0,0.0,0.0,0.0,0.0,0.0,0.0,0.0,0.0,0.0,0.0,0.0,0.0,0.0,0.0,0.0,0.0,0.0,0.0,0.0,0.0,0.0,0.0,0.0,0.0,0.0,0.0,0.0,0.0,0.0,0.0,0.0,0.0,0.0,0.0,0.0,0.0,0.0,0.0,0.0,0.0,0.0,-0.5811,-0.6054,-0.656,-0.66,-0.6302,-0.6631,-0.6845,-0.6893,-0.7033,-0.7275,0.0,0.0,0.0,0.0,0.0,0.0,0.0,0.0,0.0,0.0,0.0,0.0,0.0,0.0,0.0,0.0,0.0,0.0,0.0,0.0,0.0,0.0,0.0,0.0,0.0,0.0,0.0,0.0,-0.9681,-0.9329,-0.8772,0.0,0.0,0.0,0.0,0.0,0.0,0.0,0.0,0.0,0.0,-1.5196,-1.6003,-1.6299,0.0,0.0,-1.8045,-1.8045,-1.7573,-1.8398,-1.919,-1.9641,-1.9113,0.0,0.0,0.0,0.0,0.0,0.0,0.0,0.0,0.0,0.0,0.0,0.0,0.0,0.0,0.0,0.0,0.0,0.0,0.0,0.0,0.0,0.0,0.0,0.0,0.0,0.0,0.0,0.0,0.0,0.0,0.0,0.0,0.0,0.0,0.0,0.0,0.0,0.0,0.0,0.0,0.0,0.0,0.0,0.0,0.0,0.0,0.0,0.0,0.0,0.0,0.0,0.0,-0.6482,-0.6736,-0.6995,-0.6975,-0.6667,-0.6878,-0.6974,-0.6964,-0.7172,-0.7468,0.0,0.0,0.0,0.0,0.0,0.0,0.0,0.0,0.0,0.0,0.0,0.0,0.0,0.0,0.0,0.0,0.0,0.0,0.0,0.0,0.0,0.0,0.0,0.0,0.0,0.0,0.0,0.0,-1.0741,-1.0173,-0.9739,0.0,0.0,0.0,0.0,0.0,0.0,0.0,0.0,0.0,0.0,-1.584,-1.6562,-1.6685,-1.7118,-1.8171,-1.8553,-1.8672,-1.8584,-1.9214,-1.9692,-1.9733,0.0,0.0,0.0,0.0,0.0,0.0,0.0,0.0,0.0,0.0,0.0,0.0,0.0,0.0,0.0,0.0,0.0,0.0,0.0,0.0,0.0,0.0,0.0,0.0,0.0,0.0,0.0,-1.1755,0.0,0.0,-1.305,0.0,0.0,0.0,0.0,0.0,0.0,0.0,0.0,0.0,0.0,0.0,0.0,0.0,0.0,0.0,0.0,0.0,0.0,0.0,0.0,0.0,0.0,-0.7201,-0.7475,-0.7729,-0.7524,-0.6826,-0.7165,-0.7289,-0.7104,-0.748,-0.789,-0.8371,0.0,0.0,0.0,0.0,0.0,0.0,0.0,0.0,0.0,0.0,0.0,0.0,0.0,0.0,0.0,0.0,0.0,0.0,0.0,0.0,0.0,0.0,0.0,0.0,0.0,0.0,-1.1884,-1.0853,-1.0244,0.0,0.0,0.0,0.0,0.0,0.0,0.0,0.0,0.0,0.0,-1.4824,-1.6015,-1.7133,-1.7271,-1.7666,-1.8727,-1.8907,-1.9082,-1.955,-1.9672,-1.9725,0.0,0.0,0.0,0.0,0.0,0.0,0.0,0.0,0.0,0.0,0.0,0.0,0.0,0.0,0.0,0.0,0.0,0.0,0.0,0.0,0.0,0.0,0.0,0.0,0.0,0.0,0.0,-1.3909,-1.2789,0.0,0.0,0.0,0.0,0.0,0.0,0.0,0.0,0.0,0.0,0.0,-1.4032,-1.3828,0.0,0.0,0.0,0.0,0.0,0.0,0.0,0.0,0.0,0.0,0.0,0.0,-0.7826,-0.7547,-0.8133,-0.7903,-0.6841,-0.755,-0.7676,-0.7116,-0.75,-0.8178,-0.9165,0.0,0.0,0.0,0.0,0.0,0.0,0.0,0.0,0.0,0.0,0.0,0.0,0.0,0.0,0.0,0.0,0.0,0.0,0.0,0.0,0.0,0.0,0.0,0.0,0.0,-1.3692,0.0,0.0,0.0,0.0,0.0,0.0,0.0,0.0,0.0,0.0,0.0,-1.4744,-1.4948,-1.599,-1.6995,-1.7747,-1.7827,-1.8313,0.0,0.0,0.0,0.0,0.0,0.0,0.0,0.0,0.0,0.0,0.0,0.0,0.0,0.0,-2.4123,-2.1452,-2.0362,-1.9628,-1.8789,0.0,0.0,0.0,0.0,0.0,0.0,0.0,0.0,0.0,0.0,0.0,0.0,0.0,0.0,-1.5297,0.0,-1.4427,0.0,0.0,0.0,0.0,0.0,0.0,0.0,0.0,-1.6617,-1.6717,-1.6375,-1.5994,-1.5856,0.0,-1.5003,-1.3527,0.0,0.0,0.0,0.0,0.0,0.0,0.0,0.0,-0.869,-0.7969,-0.8677,-0.845,-0.738,-0.791,-0.7932,-0.7351,-0.7852,-0.8731,-1.0045,-1.0833,-1.1676,0.0,0.0,0.0,0.0,0.0,0.0,0.0,0.0,0.0,0.0,0.0,0.0,0.0,0.0,0.0,0.0,0.0,0.0,0.0,0.0,0.0,0.0,0.0,-1.4173,0.0,0.0,0.0,0.0,0.0,0.0,0.0,0.0,0.0,-1.5233,-1.5302,-1.546,-1.5816,-1.6701,-1.7626,-1.8493,0.0,0.0,0.0,0.0,0.0,0.0,0.0,-2.1118,-2.2134,-2.3487,-2.4693,-2.5446,-2.5581,-2.5413,-2.493,0.0,0.0,-2.4671,-2.3861,-2.3127,-2.2283,-2.4822,-2.713,-2.7072,-2.6333,-2.5219,0.0,0.0,0.0,0.0,0.0,0.0,0.0,0.0,-1.7353,-1.6422,0.0,-1.5373,0.0,0.0,0.0,0.0,0.0,-1.8056,0.0,0.0,-1.8966,-1.9441,-1.9304,-1.8314,-1.7595,-1.7155,-1.6515,-1.5672,-1.4687,-1.2566,0.0,0.0,0.0,0.0,0.0,0.0,-0.9874,-0.8795,-0.9374,-0.9249,-0.8237,-0.8227,-0.8075,-0.7754,-0.8511,-0.9585,-1.0915,-1.1459,-1.2176,-1.316,-1.2685,0.0,0.0,0.0,0.0,0.0,0.0,0.0,0.0,0.0,0.0,0.0,0.0,0.0,0.0,0.0,0.0,0.0,0.0,0.0,0.0,-1.4592,0.0,0.0,0.0,0.0,0.0,0.0,0.0,0.0,0.0,0.0,-1.6544,-1.6536,-1.6536,-1.6459,0.0,0.0,0.0,0.0,-1.9958,-2.0894,-2.1023,-2.1022,-2.104,-2.1038,-2.1322,-2.2149,0.0,0.0,-2.3575,-2.5203,-2.6116,-2.4763,-2.5347,-2.6182,-2.651,-2.6399,-2.6385,-2.6341,-2.6941,-2.7211,-2.6016,-2.6181,-2.6127,-2.1189,0.0,0.0,0.0,0.0,-2.0659,-2.0241,-1.9451,-1.9366,-1.8492,-1.7176,-1.7276,0.0,0.0,0.0,0.0,0.0,0.0,-2.0604,-2.0448,-2.0383,-2.0316,-2.0283,-1.9381,-1.9051,-1.9257,-1.8044,-1.73,-1.6923,-1.5227,-1.3809,-1.2702,0.0,0.0,0.0,0.0,-1.0262,-0.9506,-1.0013,-0.9644,-0.8228,-0.8567,-0.8556,-0.8148,-0.9229,-1.0184,-1.0977,-1.1773,-1.249,-1.316,-1.306,0.0,0.0,0.0,0.0,0.0,0.0,0.0,0.0,0.0,0.0,0.0,0.0,0.0,0.0,0.0,0.0,0.0,0.0,0.0,-1.7597,-1.6976,-1.6637,0.0,0.0,0.0,0.0,0.0,0.0,0.0,0.0,0.0,-1.7542,-1.7631,-1.7659,0.0,0.0,-1.9082,-1.9549,-2.0165,-2.0797,-2.1352,-2.143,0.0,-2.1874,-2.1915,-2.2015,-2.2254,-2.2658,-2.3187,-2.4039,-2.4695,-2.5014,-2.4557,-2.4754,-2.5124,-2.5681,-2.5436,-2.5115,-2.4983,-2.5127,-2.5535,-2.6139,-2.6276,-2.5973,-2.2152,-2.1882,-2.2186,-2.2046,-2.1612,-2.1612,-2.1258,-2.0734,-2.0586,-2.0223,-1.9751,-1.9389,-2.0223,-2.1857,-2.1703,0.0,0.0,0.0,-2.2084,-2.1928,-2.1759,-2.1697,-2.1623,-2.0845,-2.0518,-2.0574,-1.9441,-1.8679,-1.8249,-1.7102,-1.5954,-1.479,0.0,0.0,-1.1814,-1.1523,-1.0959,-1.0129,-1.0498,-1.0099,-0.8782,-0.8768,-0.8676,-0.854,-0.9448,-1.0362,-1.1204,-1.1976,-1.2634,-1.3185,-1.3411,-1.3664,0.0,0.0,0.0,0.0,0.0,0.0,0.0,0.0,0.0,0.0,0.0,-1.5051,-1.4789,0.0,0.0,0.0,-1.6584,-1.7364,-1.9225,-1.8535,0.0,0.0,0.0,0.0,0.0,0.0,0.0,-1.8033,-1.7925,-1.7991,-1.8634,-1.8728,-1.87,-1.8688,-1.9207,-1.9713,-2.0112,0.0,-2.1306,-2.1552,-2.1764,-2.1957,-2.2237,-2.2327,-2.2288,-2.232,-2.2312,-2.2578,-2.3418,-2.4069,-2.4357,-2.4167,-2.4173,-2.4442,-2.4993,-2.4689,-2.436,-2.4229,-2.4182,-2.4551,-2.5488,-2.5695,-2.5612,-2.2283,-2.2254,-2.222,-2.1969,-2.1628,-2.1658,-2.1628,-2.1582,-2.1244,-2.1547,-2.2239,-2.1453,-2.1884,-2.3152,-2.277,0.0,-2.201,-2.2835,-2.3017,-2.2701,-2.3058,-2.32,-2.31,-2.2426,-2.1838,-2.1308,-2.0542,-1.9743,-1.8867,-1.8243,-1.737,-1.6305,-1.471,-1.3226,-1.2043,-1.213,-1.1683,-1.0695,-1.0828,-1.0478,-0.9609,-0.8855,-0.8641,-0.8908,-0.9408,-1.0297,-1.1608,-1.214,-1.2622,-1.3173,-1.3745,-1.4226,-1.4695,0.0,0.0,0.0,0.0,0.0,0.0,0.0,0.0,0.0,0.0,0.0,0.0,0.0,0.0,0.0,-1.8092,0.0,-2.0108,-1.9628,0.0,0.0,0.0,-2.0013,-1.95,-2.0194,-2.012,-1.852,0.0,0.0,-1.973,-1.9723,-1.9679,-1.9651,-1.9656,-1.9958,-2.0862,-2.1337,-2.1612,-2.1612,-2.2003,-2.2299,-2.2282,-2.2327,-2.2299,-2.2316,-2.232,-2.2312,-2.2439,-2.3342,-2.3917,-2.3427,-2.3579,-2.3863,-2.424,-2.4098,-2.4093,-2.4169,-2.4187,-2.422,-2.4334,-2.4812,-2.5051,-2.2108,-2.1748,-2.1444,-2.1431,-2.1628,-2.1974,-2.1928,-2.1628,-2.1869,-2.2128,-2.2281,-2.2082,-2.2449,-2.3181,-2.2823,-2.2609,-2.2565,-2.3241,-2.3544,-2.3441,-2.3526,-2.3261,-2.2679,-2.2593,-2.2185,-2.1445,-2.0606,-1.9867,-1.922,-1.8048,-1.6899,-1.5796,-1.4915,-1.4097,-1.3311,-1.2562,-1.1921,-1.1378,-1.1039,-1.0479,-0.9612,-0.9361,-0.9459,-0.9876,-1.0217,-1.1011,-1.2165,-1.2341,-1.2667,-1.3173,-1.3323,-1.3616,-1.4099,-1.4397,0.0,0.0,0.0,0.0,0.0,0.0,0.0,0.0,0.0,-1.8562,-1.7609,0.0,-1.9668,0.0,-1.9745,-2.0567,-2.2277,-2.1537,0.0,0.0,-2.2125,-2.1881,-2.1482,-2.1705,-2.1485,-2.044,-1.9962,-1.9718,-1.9737,-1.9732,-1.9797,-2.0078,-2.0128,-2.0348,-2.0926,-2.1337,-2.1612,-2.1628,-2.1974,-2.2282,-2.2327,-2.2327,-2.2327,-2.2327,-2.2304,-2.2304,-2.2299,-2.2564,-2.2767,-2.2615,-2.2621,-2.272,-2.2859,-2.2788,-2.3159,-2.3938,-2.4194,-2.4207,-2.4208,-2.4355,-2.4428,-2.1674,-2.0595,-1.9835,-1.9782,-2.0263,-2.147,-2.1853,-2.1642,-2.2089,-2.2327,-2.231,-2.2313,-2.249,-2.2794,-2.2902,-2.2923,-2.2972,-2.3477,-2.371,-2.3696,-2.3492,-2.3133,-2.2714,-2.2464,-2.1937,-2.1243,-2.1166,-2.0496,-1.9273,-1.8262,-1.7329,-1.6361,-1.5231,-1.4525,-1.4157,-1.2686,-1.1851,-1.1596,-1.0947,-1.0273,-0.9657,-0.9793,-1.001,-1.0235,-1.0864,-1.1567,-1.2346,-1.2622,-1.2885,-1.3198,-1.3458,-1.4037,-1.5019,-1.5202,-1.5726,0.0,0.0,0.0,0.0,0.0,0.0,0.0,0.0,0.0,0.0,0.0,-2.05,-2.044,-2.0888,-2.1749,-2.3074,-2.2653,-2.2564,-2.313,-2.2898,-2.26,-2.2415,-2.2333,-2.2119,-2.1627,-2.1163,-2.0719,-2.0335,-2.0276,-2.0169,-1.996,-1.9896,-2.0104,-2.0602,-2.1086,-2.1337,-2.1337,-2.1705,-2.2077,-2.2254,-2.2327,-2.2327,-2.2327,-2.2327,-2.2327,-2.2327,-2.2327,-2.2327,-2.2327,-2.2327,-2.2287,-2.231,-2.2315,-2.2588,-2.3106,-2.358,-2.3855,-2.4151,-2.419,-2.419,-2.0807,-1.929,-1.7991,-1.777,-1.8455,-2.039,-2.1199,-2.1229,-2.169,-2.204,-2.231,-2.2224,-2.2237,-2.2332,-2.2884,-2.3141,-2.3165,-2.3482,-2.3595,-2.3473,-2.3062,-2.2776,-2.2575,-2.2073,-2.1417,-2.0692,-2.1567,-2.0904,-1.8818,-1.8447,-1.7882,-1.707,-1.5508,-1.4709,-1.4619,-1.2645,-1.1567,-1.1508,-1.0693,-1.0106,-0.9711,-1.0134,-1.0413,-1.0506,-1.131,-1.2025,-1.2484,-1.301,-1.3298,-1.3358,-1.3955,-1.4961,-1.6361,-1.6438,-1.7043,0.0,-1.8044,0.0,0.0,0.0,0.0,0.0,0.0,0.0,0.0,-2.0761,-2.0969,-2.127,-2.1884,-2.2553,-2.3152,-2.3194,-2.3189,-2.3189,-2.288,-2.2695,-2.2712,-2.2463,-2.2327,-2.2328,-2.2319,-2.1997,-2.1275,-2.0877,-2.0193,-1.9559,-1.9259,-1.9287,-1.9862,-2.027,-2.056,-2.0671,-2.1269,-2.1924,-2.2237,-2.2321,-2.2304,-2.231,-2.2327,-2.2327,-2.2327,-2.2327,-2.2327,-2.2327,-2.2327,-2.231,-2.2327,-2.231,-2.2324,-2.2392,-2.2779,-2.328,-2.3858,-2.4016,-2.4074,-1.8784,-1.884,-1.6953,-1.6801,-1.7891,-1.8687,-1.8981,-1.9042,-1.9454,-2.0615,-2.2225,-2.1795,-2.1836,-2.232,-2.2643,-2.2797,-2.2822,-2.3141,-2.2962,-2.238,-2.2321,-2.1593,-2.0485,-2.1158,-2.0685,-1.9307,-2.0042,-1.9342,-1.7353,-1.7604,-1.7163,-1.6021,-1.5122,-1.4709,-1.4607,0.0,0.0,0.0,-1.0537,-1.022,-1.0098,-1.0184,-1.0634,-1.1415,-1.1598,0.0,-1.3001,-1.3609,-1.3934,-1.3959,-1.4868,0.0,0.0,0.0,0.0,0.0,0.0,0.0,0.0,0.0,0.0,0.0,-2.0694,-2.0847,-2.1063,-2.2065,-2.2726,-2.2794,-2.3146,-2.3336,-2.3221,-2.3181,-2.3189,-2.3189,-2.2898,-2.2695,-2.2695,-2.2463,-2.2316,-2.2293,-2.2321,-2.2212,-2.1818,-1.9941,-1.865,-1.9166,-1.86,-1.81,-1.819,-1.8639,-1.892,-1.9013,-2.0635,-2.2073,-2.2299,-2.2258,-2.2296,-2.2315,-2.2327,-2.2282,-2.2254,-2.2282,-2.2282,-2.2282,-2.2327,-2.2327,-2.2327,-2.2315,-2.2307,-2.2306,-2.2397,-2.2652,-2.3252,-2.3374,-2.3392,-1.773,-1.7503,-1.6306,-1.6159,0.0,-1.703,-1.7104,-1.7194,-1.8477,-1.9996,-2.1595,-2.0717,-2.0801,-2.1675,-2.1786,-2.177,-2.1627,-2.1962,-2.1739,-2.1057,-2.0996,-2.0379,-1.9334,-1.9794,-1.9177,-1.7708,-1.7832,-1.7287,-1.6098,-1.564,-1.5492,-1.5693,-1.4786,-1.4406,-1.4619,-1.2645,-1.1283,-1.0605,-1.0391,-1.0281,-1.025,-1.0489,-1.0951,-1.1678,-1.2234,0.0,0.0,0.0,0.0,0.0,0.0,0.0,0.0,0.0,0.0,-1.8638,-1.8702,-1.8976,-1.961,-1.9843,-2.0367,-2.1373,-2.1636,-2.1735,-2.1752,-2.2496,-2.3021,-2.3189,-2.3522,-2.3545,-2.325,-2.336,-2.3369,-2.3212,-2.2898,-2.2695,-2.2686,-2.2463,-2.2304,-2.2295,-2.2312,-2.181,-2.0224,-1.9202,-1.8237,-1.8113,-1.7807,-1.7349,-1.6954,-1.7499,-1.8129,-1.8377,-1.9564,-2.0766,-2.1161,-2.1888,-2.2046,-2.1807,-2.1657,-2.1632,-2.1658,-2.184,-2.1957,-2.1974,-2.2135,-2.2327,-2.2327,-2.2327,-2.2315,-2.2231,-2.1678,-2.0969,-2.0814,-2.186,-2.2957,-1.6869,-1.5945,-1.5579,-1.5514,-1.5619,-1.5619,-1.5694,-1.5931,0.0,0.0,0.0,-1.9353,-1.9576,-2.04,-2.0559,-2.0501,-2.0242,-2.0527,-2.0269,-1.9622,-1.9515,-1.9056,-1.837,-1.8291,-1.7592,-1.626,-1.5643,-1.5203,-1.4917,-1.3613,-1.3772,-1.5159,-1.4301,-1.3895,-1.4002,-1.2402,-1.1064,-1.0371,-1.0322,-1.0322,-1.0322,-1.0687,-1.1123,-1.1661,-1.2657,-1.3454,-1.3974,-1.4678,-1.5015,-1.5054,-1.522,-1.5957,-1.7319,-1.7525,-1.8235,-1.9558,-1.9705,-2.0035,-2.0829,-2.0959,-2.137,-2.2237,-2.2327,-2.2327,-2.2327,-2.2554,-2.2822,-2.2999,-2.3397,-2.3494,-2.3227,-2.3374,-2.3392,-2.3063,-2.2789,-2.2574,-2.234,-2.2286,-2.2178,-2.2278,-2.2145,-2.0967,-1.8284,-1.7945,-1.79,-1.7,-1.6774,-1.6604,-1.5965,-1.6561,-1.7362,-1.7593,-1.8069,-1.8615,-1.9236,-2.0057,-2.0796,-1.9984,-2.0116,-2.0455,-2.0651,-2.0933,-2.1114,-2.1042,-2.147,-2.1675,-2.1849,-2.2091,-2.2282,-2.2299,-2.1305,-1.9814,-1.8355,-1.9798,-2.1651,-1.549,-1.4543,-1.4217,-1.4408,-1.4932,-1.4932,-1.5274,-1.5858,-1.6668,-1.6863,-1.663,-1.7943,-1.8372,-1.8219,-1.8927,-1.9248,-1.9208,-1.9264,-1.8903,-1.8184,-1.8176,-1.7587,-1.6601,-1.6889,-1.6381,-1.5198,-1.4104,-1.373,-1.3874,-1.2685,-1.2768,-1.3993,-1.3531,-1.284,-1.2027,-1.1335,-1.0762,-1.0303,-1.0322,-1.0322,-1.0322,-1.0361,-1.0833,-1.168,-1.2357,-1.3104,-1.3974,-1.5036,-1.5567,-1.558,-1.646,-1.7263,-1.7968,-1.8394,-1.8993,-1.9639,-1.969,-1.9909,-2.0366,-2.0764,-2.1385,-2.218,-2.2327,-2.2327,-2.231,-2.2615,-2.2686,-2.2478,-2.294,-2.3253,-2.3175,-2.295,-2.2712,-2.2446,-2.2354,-2.1995,-2.1106,-2.1346,-2.179,-2.2161,-2.1622,-2.0319,-1.7926,-1.6275,-1.5785,-1.6291,-1.5812,-1.4913,-1.4947,-1.546,-1.5862,-1.5713,-1.5945,-1.6271,-1.6714,-1.6552,-1.7033,-1.6565,-1.7608,-1.853,-1.9263,-1.946,-1.9547,-1.9418,-1.963,-1.9829,-2.0299,-2.1485,-2.1838,-2.1883,-2.1406,-2.0448,-1.7572,-1.7625,-1.867,-1.295,-1.3392,-1.2965,-1.3127,-1.3749,-1.4054,-1.4544,-1.5104,-1.5375,-1.5628,-1.5902,-1.6769,-1.6732,-1.612,-1.7374,-1.7746,-1.7364,-1.7605,-1.7221,-1.6374,-1.6784,-1.6348,-1.5389,-1.5817,-1.5504,-1.4383,-1.3598,-1.3162,-1.3054,-1.2235,-1.2397,-1.3517,-1.3498,-1.2826,-1.1679,-1.141,-1.0937,-1.0342,-1.0322,-1.0322,-1.0322,-1.0322,-1.0755,-1.161,-1.2541,-1.347,-1.435,-1.549,-1.6145,-1.6145,-1.657,-1.7229,-1.8066,-1.8341,-1.8841,-1.9639,-1.9346,-1.9345,-1.9754,-2.021,-2.0886,-2.182,-2.1387,-2.1156,-2.1373,-2.2078,-2.2485,-2.2298,-2.2571,-2.2345,-2.1591,-2.1831,-2.1902,-2.1384,-2.1022,-2.0649,-2.0335,-2.0179,-2.0544,-2.1299,-2.0619,-1.8889,-1.6277,-1.5103,-1.4685,-1.5384,-1.4847,-1.4452,-1.4214,-1.469,-1.4998,-1.4859,-1.5341,-1.5772,-1.5801,-1.5817,-1.5817,-1.58,-1.6248,-1.706,-1.8037,-1.8436,-1.86,-1.8691,-1.8805,-1.8945,-1.9006,-1.9735,-1.9923,-1.8897,-1.8783,-1.7834,-1.6647,-1.6811,-1.8017,-1.0855,-1.2302,-1.183,-1.2061,-1.2816,-1.3457,-1.3996,-1.4487,-1.4406,-1.48,-1.5481,-1.5695,-1.5263,-1.4687,-1.5946,-1.6221,-1.5762,-1.5985,-1.5677,-1.5016,-1.5519,-1.5242,-1.436,-1.4938,-1.4607,-1.3547,-1.3267,-1.2897,-1.233,-1.174,-1.1927,-1.2804,-1.3268,-1.2853,-1.1763,-1.1655,-1.1273,-1.0655,-1.0606,-1.0527,-1.043,-1.0518,-1.0979,-1.1728,-1.2776,-1.377,-1.4676,-1.5744,-1.638,-1.6479,-1.6534,-1.6951,-1.7827,-1.8013,-1.8478,-1.9169,-1.8917,-1.8906,-1.9369,-1.9688,-2.0267,-2.1119,-2.0469,-2.0067,-2.0275,-2.1021,-2.1809,-2.2176,-2.2082,-2.1361,-2.0238,-2.0576,-2.084,-2.02,-1.9717,-1.9426,-1.9372,-1.8999,-1.8829,-1.948,-1.9045,-1.761,-1.5212,-1.4297,-1.4212,-1.4203,-1.4214,-1.4052,-1.3835,-1.4019,-1.4181,-1.4378,-1.4966,-1.5424,-1.5513,-1.5256,-1.5346,-1.5624,-1.5621,-1.5997,-1.6777,-1.7315,-1.7455,-1.7395,-1.7637,-1.7556,-1.7265,-1.7751,-1.7615,-1.656,-1.6359,-1.6034,-1.6013,-1.6545,-1.7586,-1.0349,-1.0997,-1.0797,-1.1486,-1.2692,-1.337,-1.3949,-1.4365,-1.4084,-1.4205,-1.4585,-1.4635,-1.4566,-1.452,-1.4667,-1.4699,-1.4598,-1.4679,-1.4606,-1.4487,-1.4613,-1.416,-1.3369,-1.4145,-1.3667,-1.2304,-1.277,-1.2613,-1.1847,-1.0972,-1.0914,-1.1721,-1.2142,-1.2302,-1.2073,-1.1768,-1.1567,-1.1489,-1.1479,-1.125,-1.0898,-1.1283,-1.167,-1.2148,-1.2754,-1.3594,-1.4619,-1.5332,-1.5964,-1.6436,-1.6479,-1.6752,-1.7353,-1.7827,-1.8089,-1.8129,-1.8475,-1.8891,-1.9321,-1.945,-1.9641,-2.0092,-2.0028,-1.9658,-1.9196,-1.9252,-2.0174,-2.1441,-2.137,-2.0297,-1.9303,-1.9462,-1.9547,-1.9171,-1.9002,-1.8683,-1.7885,-1.7761,-1.7224,-1.5561,-1.6939,-1.6874,-1.4575,-1.3697,-1.3406,-1.3493,-1.3493,-1.3459,-1.3391,-1.3391,-1.3459,-1.3514,-1.4072,-1.4552,-1.457,-1.3929,-1.4251,-1.5283,-1.5079,-1.5005,-1.5241,-1.5227,-1.4903,-1.5638,-1.5236,-1.5301,-1.5329,-1.5473,-1.6089,-1.5839,-1.5667,-1.5773,-1.58,-1.5901,-1.6325,-0.9413,-0.9649,-0.956,-1.0211,-1.1289,-1.1812,-1.2353,-1.2857,-1.2707,-1.3041,-1.3617,-1.3144,-1.2911,-1.2926,-1.3452,-1.339,-1.2938,-1.3153,-1.3119,-1.2938,-1.3153,-1.2948,-1.2425,-1.2722,-1.2484,-1.1811,-1.1623,-1.1426,-1.133,-1.1155,-1.1256,-1.1645,-1.2256,-1.2282,-1.1687,-1.1849,-1.1448,-1.0436,-1.1403,-1.1657,-1.1179,-1.1441,-1.1812,-1.2224,-1.2781,-1.3422,-1.4171,-1.5096,-1.572,-1.5952,-1.6281,-1.671,-1.7271,-1.7504,-1.7758,-1.8002,-1.8144,-1.817,-1.8071,-1.8268,-1.876,-1.9578,-1.8641,-1.8004,-1.8045,-1.7483,-1.7531,-1.8232,-1.8443,-1.8184,-1.7802,-1.8222,-1.8409,-1.8038,-1.7669,-1.7179,-1.6728,-1.635,-1.5719,-1.4853,-1.5314,-1.5305,-1.3946,-1.3354,-1.3234,-1.3198,-1.321,-1.321,-1.321,-1.321,-1.321,-1.3232,-1.3514,-1.3682,-1.3709,-1.3467,-1.3598,-1.3958,-1.3974,-1.3871,-1.4292,-1.4515,-1.4501,-1.447,-1.4438,-1.4438,-1.4637,-1.4693,-1.5019,-1.5051,-1.5037,-1.5051,-1.5013,-1.5029,-1.5196,-0.8623,-0.88,-0.8934,-0.956,-1.0475,-1.0765,-1.1233,-1.1777,-1.1811,-1.2192,-1.2708,-1.2084,-1.1648,-1.1525,-1.2318,-1.2366,-1.1872,-1.2092,-1.2067,-1.1836,-1.2092,-1.1984,-1.1616,-1.1638,-1.149,-1.1121,-1.0588,-1.0359,-1.0459,-1.1091,-1.129,-1.1271,-1.2092,-1.2097,-1.1234,-1.1608,-1.117,-1.0142,-1.1187,-1.159,-1.1158,-1.1472,-1.1868,-1.2373,-1.2791,-1.3305,-1.3794,-1.4641,-1.5186,-1.5377,-1.592,-1.6441,-1.6799,-1.7133,-1.7477,-1.7738,-1.7553,-1.732,-1.7092,-1.7209,-1.7648,-1.8323,-1.7166,-1.65,-1.6591,-1.6182,-1.5838,-1.5953,-1.6228,-1.654,-1.6265,-1.6839,-1.7021,-1.6591,-1.6065,-1.5773,-1.5633,-1.5102,-1.47,-1.4401,-1.4305,-1.394,-1.3372,-1.3221,-1.3198,-1.321,-1.321,-1.3129,-1.3047,-1.299,-1.299,-1.3025,-1.3087,-1.3229,-1.3223,-1.3209,-1.3208,-1.3203,-1.3271,-1.3435,-1.3781,-1.403,-1.4117,-1.3901,-1.4084,-1.4117,-1.3967,-1.4078,-1.42,-1.4146,-1.4178,-1.4196,-1.4155,-1.4282,-1.4487,-0.8153,-0.8817,-0.9285,-0.9945,-1.083,-1.0886,-1.1244,-1.17,-1.1737,-1.1822,-1.1844,-1.1774,-1.1244,-1.0494,-1.1439,-1.1847,-1.1774,-1.1763,-1.1774,-1.17,-1.1774,-1.1542,-1.1057,-1.1223,-1.0728,-0.9834,-0.9902,-0.9652,-0.9018,-1.0195,-1.0463,-0.9981,-1.1204,-1.1507,-1.0914,-1.0906,-1.083,-1.0605,-1.0831,-1.0881,-1.0872,-1.1455,-1.2085,-1.2706,-1.289,-1.3198,-1.3684,-1.3873,-1.4143,-1.4698,-1.532,-1.5676,-1.5796,-1.6701,-1.7236,-1.7115,-1.6592,-1.6496,-1.6913,-1.6687,-1.6501,-1.6445,-1.6002,-1.5477,-1.5397,-1.5632,-1.5766,-1.5771,-1.5676,-1.5442,-1.4863,-1.5372,-1.5507,-1.493,-1.47,-1.4641,-1.462,-1.4314,-1.4059,-1.3987,-1.3679,-1.3373,-1.3232,-1.3198,-1.3141,-1.3129,-1.3163,-1.3025,-1.2615,-1.2544,-1.2544,-1.2639,-1.2854,-1.3192,-1.3181,-1.3201,-1.321,-1.3138,-1.3113,-1.3088,-1.3195,-1.3267,-1.3267,-1.3267,-1.3242,-1.3242,-1.3267,-1.3297,-1.3403,-1.3439,-1.3487,-1.3454,-1.3585,-1.4065,-1.4256,-0.7431,-0.8196,-0.8896,-0.9535,-1.0088,-1.0385,-1.0648,-1.084,-1.084,-1.084,-1.085,-1.084,-1.0629,-1.0321,-1.0667,-1.084,-1.084,-1.084,-1.085,-1.084,-1.084,-1.0572,-1.0137,-1.0428,-1.0079,-0.9062,-0.847,-0.8383,-0.8834,-0.986,-1.0275,-1.0161,-1.0771,-1.0813,-1.0364,-1.0568,-1.0415,-0.971,-1.032,-1.06,-1.026,-1.0804,-1.1493,-1.2184,-1.2686,-1.3017,-1.32,-1.36,-1.392,-1.4143,-1.4687,-1.5186,-1.5632,-1.6343,-1.6622,-1.6282,-1.6599,-1.6849,-1.6711,-1.6459,-1.6297,-1.6228,-1.5405,-1.4842,-1.4878,-1.5321,-1.5558,-1.5057,-1.4418,-1.3952,-1.3907,-1.4273,-1.4626,-1.4537,-1.4501,-1.4342,-1.4163,-1.3986,-1.3815,-1.3565,-1.3286,-1.3221,-1.3006,-1.2841,-1.2615,-1.2709,-1.2508,-1.2282,-1.2102,-1.2066,-1.2066,-1.2184,-1.2697,-1.2998,-1.2293,-1.2866,-1.3143,-1.2974,-1.2842,-1.2413,-1.2294,-1.2378,-1.2413,-1.2496,-1.2473,-1.2651,-1.2804,-1.3191,-1.3173,-1.3195,-1.3187,-1.3031,-1.3234,-1.3591,-1.3676,-0.7062,-0.7911,-0.8493,-0.9033,-0.9563,-0.9915,-1.0156,-1.0302,-1.0322,-1.0322,-1.0322,-1.0322,-1.0322,-1.0322,-1.0322,-1.0322,-1.0322,-1.0322,-1.0322,-1.0322,-1.0322,-1.0,-0.9637,-0.9883,-0.9478,-0.8472,-0.759,-0.7616,-0.8385,-0.9416,-0.9793,-0.9637,-1.0198,-1.0167,-0.9658,-0.9909,-0.9666,-0.9113,-0.971,-0.991,-0.9611,-1.011,-1.0677,-1.1209,-1.2058,-1.2666,-1.2881,-1.3276,-1.3505,-1.36,-1.4107,-1.4698,-1.5276,-1.5864,-1.6034,-1.5823,-1.6344,-1.6634,-1.6244,-1.5854,-1.5582,-1.5555,-1.4688,-1.4117,-1.4305,-1.4713,-1.4699,-1.4273,-1.3689,-1.3213,-1.327,-1.3579,-1.3874,-1.4038,-1.394,-1.3742,-1.3488,-1.3454,-1.3357,-1.3179,-1.2532,-1.227,-1.2269,-1.2267,-1.2219,-1.2258,-1.1957,-1.1774,-1.159,-1.1553,-1.1542,-1.1564,-1.1808,-1.2024,-1.179,-1.2016,-1.2,-1.1822,-1.218,-1.1774,-1.1487,-1.1583,-1.1726,-1.1774,-1.1906,-1.2171,-1.2507,-1.2937,-1.3078,-1.3101,-1.2839,-1.259,-1.2789,-1.3025,-1.3163,-0.7204,-0.7944,-0.8139,-0.8729,-0.9421,-0.9535,-0.9837,-1.0128,-1.0196,-1.0176,-1.0283,-1.0254,-1.0176,-1.0293,-1.0176,-1.0205,-1.0157,-1.0118,-1.0157,-1.0196,-1.0244,-0.9913,-0.9359,-0.9439,-0.8984,-0.8029,-0.7656,-0.7571,-0.7809,-0.8827,-0.914,-0.874,-0.9416,-0.951,-0.8857,-0.8956,-0.891,-0.8857,-0.8962,-0.891,-0.8857,-0.9465,-0.9858,-1.0064,-1.1124,-1.2039,-1.2725,-1.2871,-1.2978,-1.3017,-1.3467,-1.405,-1.4652,-1.5276,-1.5576,-1.5557,-1.5659,-1.5702,-1.5552,-1.4701,-1.416,-1.4085,-1.3546,-1.3331,-1.3602,-1.3578,-1.3582,-1.3747,-1.3518,-1.3198,-1.3091,-1.3091,-1.3207,-1.3163,-1.3,-1.2743,-1.2638,-1.2591,-1.2674,-1.2782,-1.1698,-1.0485,-1.061,-1.1296,-1.1841,-1.1796,-1.1664,-1.1479,-1.1094,-1.1029,-1.1008,-1.0943,-1.0995,-1.1065,-1.1086,-1.1047,-1.0689,-1.0508,-1.1042,-1.1148,-1.0978,-1.0978,-1.1271,-1.1367,-1.1516,-1.1771,-1.1952,-1.2315,-1.2554,-1.2531,-1.2291,-1.1984,-1.2105,-1.2271,-1.2685,-0.7295,-0.7625,-0.7932,-0.8383,-0.8924,-0.8989,-0.9055,-0.9199,-0.9199,-0.9609,-1.0071,-0.9511,-0.9609,-0.9963,-0.956,-0.9199,-0.9199,-0.9199,-0.9399,-0.9686,-0.9774,-0.9279,-0.8602,-0.8773,-0.8692,-0.8274,-0.8138,-0.8138,-0.8254,-0.8724,-0.8871,-0.8795,-0.896,-0.9008,-0.8804,-0.8804,-0.8804,-0.8804,-0.8804,-0.8804,-0.8811,-0.9008,-0.9309,-0.9814,-1.0218,-1.072,-1.1434,-1.2363,-1.2881,-1.2881,-1.3055,-1.3467,-1.405,-1.4641,-1.4971,-1.4959,-1.4734,-1.4627,-1.4467,-1.3713,-1.3103,-1.3009,-1.2586,-1.2317,-1.2508,-1.2914,-1.3034,-1.2972,-1.2998,-1.2926,-1.2151,-1.2103,-1.2461,-1.3116,-1.2803,-1.2473,-1.2449,-1.2698,-1.2709,-1.215,-1.1095,-1.0406,-1.0331,-1.0853,-1.105,-1.1217,-1.1019,-1.0725,-1.0621,-1.0582,-1.0505,-1.0505,-1.0361,-1.0351,-1.0576,-1.0684,-1.0525,-1.0329,-1.0598,-1.0805,-1.0613,-1.0565,-1.0799,-1.0992,-1.1142,-1.1303,-1.1474,-1.1656,-1.1875,-1.1605,-1.1136,-1.1082,-1.1228,-1.1559,-1.2044,-0.7201,-0.7306,-0.7555,-0.7984,-0.8399,-0.8423,-0.8551,-0.8659,-0.8716,-0.9067,-0.947,-0.9018,-0.8814,-0.9009,-0.8773,-0.8472,-0.8173,-0.8472,-0.8823,-0.9071,-0.9163,-0.8741,-0.81,-0.8278,-0.8326,-0.8232,-0.8331,-0.8377,-0.839,-0.8657,-0.8804,-0.8804,-0.8804,-0.8804,-0.8804,-0.8804,-0.8804,-0.8804,-0.8804,-0.8804,-0.8804,-0.8804,-0.9008,-0.9413,-0.9666,-1.0012,-1.0466,-1.1534,-1.2107,-1.2157,-1.2353,-1.2783,-1.3457,-1.4014,-1.4376,-1.4334,-1.4194,-1.4079,-1.3946,-1.3283,-1.2731,-1.2653,-1.2312,-1.2054,-1.2118,-1.2556,-1.2419,-1.2203,-1.2025,-1.1966,-1.1586,-1.1267,-1.1712,-1.2567,-1.2198,-1.1982,-1.1968,-1.2042,-1.2118,-1.1616,-1.0926,-1.0444,-1.0329,-1.033,-1.039,-1.0611,-1.0505,-1.0322,-1.0322,-1.0322,-1.0293,-1.0293,-1.0322,-1.0342,-1.0331,-1.034,-1.0351,-1.0322,-1.0351,-1.0468,-1.0389,-1.0389,-1.0544,-1.0582,-1.0697,-1.0725,-1.086,-1.0975,-1.1088,-1.0542,-1.0318,-1.0491,-1.0835,-1.1148,-1.1568,-0.699,-0.7002,-0.7121,-0.7466,-0.7818,-0.7921,-0.8127,-0.8521,-0.8553,-0.8513,-0.8561,-0.848,-0.8026,-0.7488,-0.8082,-0.7985,-0.7351,-0.8054,-0.8403,-0.8407,-0.8508,-0.8439,-0.8216,-0.814,-0.8099,-0.8044,-0.8326,-0.841,-0.8464,-0.8684,-0.8804,-0.8804,-0.8804,-0.8804,-0.8804,-0.8804,-0.8804,-0.8804,-0.8804,-0.8804,-0.8804,-0.8804,-0.8811,-0.885,-0.9361,-0.971,-0.9814,-1.0372,-1.0771,-1.0914,-1.1466,-1.208,-1.2745,-1.3409,-1.3627,-1.37,-1.3792,-1.3707,-1.3652,-1.3064,-1.2728,-1.2685,-1.241,-1.2346,-1.214,-1.1855,-1.1625,-1.1442,-1.0936,-1.0761,-1.11,-1.0708,-1.0687,-1.1339,-1.1308,-1.1132,-1.0943,-1.0669,-1.0884,-1.134,-1.0894,-1.0322,-1.0302,-1.0322,-1.0322,-1.0361,-1.0361,-1.0322,-1.0303,-1.0283,-1.0254,-1.0224,-1.021,-1.0255,-1.0251,-1.1217,-1.0932,-0.9062,-0.9267,-0.9529,-0.9853,-0.9961,-1.0205,-1.0244,-1.0196,-1.0235,-1.0351,-1.0544,-1.0582,-1.0397,-1.0329,-1.0301,-1.0464,-1.0809,-1.1008,-0.7001,-0.7001,-0.7058,-0.712,-0.7224,-0.7265,-0.7355,-0.7433,-0.7482,-0.7516,-0.7474,-0.7433,-0.7391,-0.7051,-0.7342,-0.7245,-0.7265,-0.758,-0.7808,-0.775,-0.7962,-0.8077,-0.8091,-0.8214,-0.8257,-0.8247,-0.8479,-0.8691,-0.8697,-0.8712,-0.8752,-0.8804,-0.8752,-0.8752,-0.8804,-0.8752,-0.8804,-0.8804,-0.8752,-0.8752,-0.8752,-0.8752,-0.8804,-0.8804,-0.9008,-0.9054,-0.9061,-0.9211,-0.9865,-1.0762,-1.0965,-1.1375,-1.203,-1.2267,-1.256,-1.2966,-1.2799,-1.2675,-1.2584,-1.2216,-1.2007,-1.1976,-1.1852,-1.1652,-1.1328,-1.0935,-1.0508,-1.0264,-1.0137,-1.0021,-0.9649,-0.9358,-0.9358,-0.9552,-1.0312,-1.0753,-1.0495,-1.039,-1.0448,-1.0594,-1.0458,-1.0342,-1.0205,-1.0293,-1.0244,-1.0244,-1.0244,-1.0234,-1.0135,-1.0015,-0.9944,-0.9969,-0.9984,-1.0118,-1.0508,-1.164,-1.1057,-0.8298,-0.7878,-0.826,-0.8676,-0.9151,-0.9637,-1.0049,-0.9755,-0.9667,-1.0079,-1.0409,-1.0332,-1.0332,-1.0332,-1.0312,-1.0302,-1.0515,-1.0544,-0.6983,-0.6972,-0.6972,-0.6972,-0.6972,-0.6972,-0.6972,-0.6972,-0.6972,-0.6972,-0.6999,-0.7161,-0.7408,-0.7709,-0.75,-0.7453,-0.7531,-0.7634,-0.7775,-0.795,-0.8163,-0.8223,-0.8223,-0.8417,-0.8397,-0.8146,-0.8292,-0.8143,-0.799,-0.8156,-0.8321,-0.8374,-0.8646,-0.8639,-0.8315,-0.8321,-0.8156,-0.7943,-0.7883,-0.7996,-0.8315,-0.8321,-0.854,-0.8699,-0.8804,-0.8804,-0.8804,-0.8804,-0.9309,-1.0115,-1.0415,-1.0661,-1.1316,-1.1366,-1.1575,-1.199,-1.1771,-1.1604,-1.1568,-1.1358,-1.1249,-1.1204,-1.1168,-1.0895,-1.0649,-1.0385,-1.0058,-0.9529,-0.9174,-0.8861,-0.8797,-0.8716,-0.8716,-0.891,-0.95,-0.9894,-0.9637,-1.0007,-1.0262,-1.0311,-1.0302,-1.0096,-0.9783,-0.9999,-0.9999,-0.9813,-0.9804,-0.9796,-0.9772,-0.9654,-0.9615,-0.9705,-0.9661,-0.9727,-0.9679,-1.0533,-1.0809,-0.8272,-0.7211,-0.7459,-0.7957,-0.8553,-0.8999,-0.9399,-0.9239,-0.9328,-0.9802,-1.0175,-1.0331,-1.031,-1.0322,-1.0234,-1.0224,-1.0088,-1.0127,-0.6977,-0.6972,-0.6972,-0.6972,-0.6972,-0.6979,-0.7054,-0.7074,-0.7101,-0.7029,-0.7065,-0.7357,-0.7916,-0.8739,-0.8094,-0.8004,-0.8112,-0.799,-0.8156,-0.837,-0.8591,-0.8624,-0.8464,-0.8637,-0.8475,-0.8066,-0.7877,-0.7503,-0.7396,-0.7616,-0.7723,-0.783,-0.8268,-0.8209,-0.7717,-0.7563,-0.7235,-0.6858,-0.6858,-0.7128,-0.7557,-0.7723,-0.8103,-0.848,-0.8752,-0.8804,-0.8804,-0.8804,-0.9113,-0.9666,-0.9718,-1.0072,-1.0568,-1.072,-1.0821,-1.0914,-1.099,-1.0923,-1.0847,-1.0881,-1.0856,-1.0831,-1.0564,-1.0213,-1.0287,-1.0317,-1.0039,-0.9147,-0.7792,-0.7805,-0.8364,-0.8591,-0.8548,-0.853,-0.8625,-0.8577,-0.8749,-0.9514,-1.0143,-1.0093,-1.0043,-0.9438,-0.9241,-0.9304,-0.9749,-0.9544,-0.9534,-0.9579,-0.9529,-0.9423,-0.9423,-0.9438,-0.94,-0.9297,-0.9207,-0.9212,-0.9189,-0.831,-0.7386,-0.7251,-0.7721,-0.8185,-0.8472,-0.8675,-0.8716,-0.905,-0.9614,-0.9929,-0.9966,-0.9573,-0.9084,-0.9515,-0.9956,-0.9762,-0.9686,-0.7009,-0.6972,-0.6972,-0.6972,-0.6972,-0.6979,-0.7161,-0.7368,-0.7368,-0.7244,-0.713,-0.7429,-0.8044,-0.8761,-0.8364,-0.8092,-0.8071,-0.8196,-0.8437,-0.8697,-0.8758,-0.8784,-0.8711,-0.8732,-0.8685,-0.848,-0.854,-0.8103,-0.7717,-0.7723,-0.7883,-0.702,-0.7503,-0.7557,-0.6961,-0.6799,-0.6804,-0.6588,-0.6534,-0.6588,-0.6853,-0.7343,-0.7717,-0.8043,-0.8533,-0.8752,-0.8804,-0.8804,-0.8857,-0.8962,-0.9113,-0.9413,-0.9858,-1.0012,-1.0218,-1.0568,-1.0712,-1.0712,-1.0762,-1.0661,-1.0762,-1.0645,-1.0521,-1.0532,-1.0253,-1.0426,-0.9971,-0.8928,-0.7759,-0.7542,-0.8046,-0.8123,-0.8127,-0.8108,-0.7973,-0.7852,-0.7903,-0.8514,-0.9004,-0.8864,-0.8349,-0.7811,-0.8057,-0.8338,-0.8743,-0.9137,-0.9367,-0.9444,-0.931,-0.9136,-0.9194,-0.9186,-0.9131,-0.9069,-0.9027,-0.8926,-0.8778,-0.8532,-0.7748,-0.7231,-0.768,-0.7807,-0.8062,-0.8211,-0.8283,-0.87,-0.8987,-0.9003,-0.8904,-0.8342,-0.7947,-0.8407,-0.882,-0.8933,-0.9279,-0.7005,-0.6979,-0.6972,-0.7101,-0.7221,-0.7235,-0.7408,-0.7649,-0.7682,-0.7616,-0.7516,-0.7788,-0.8247,-0.8777,-0.8559,-0.8414,-0.8377,-0.849,-0.8651,-0.8784,-0.8752,-0.8593,-0.8268,-0.8268,-0.8262,-0.8209,-0.7883,-0.7337,-0.6956,-0.7009,-0.674,-0.6253,-0.6799,-0.6745,-0.6199,-0.6091,-0.5878,-0.5609,-0.5609,-0.5769,-0.6145,-0.646,-0.7149,-0.7694,-0.8408,-0.8804,-0.8804,-0.8804,-0.8804,-0.8804,-0.8811,-0.8962,-0.9263,-0.9316,-0.9562,-0.9762,-0.9865,-0.9865,-0.9858,-0.9858,-0.9814,-0.9917,-0.9865,-0.9775,-0.961,-0.9734,-0.9467,-0.8726,-0.8215,-0.8031,-0.8248,-0.7977,-0.7936,-0.7903,-0.7789,-0.7689,-0.7727,-0.7843,-0.788,-0.7816,-0.7456,-0.7534,-0.7695,-0.8058,-0.8129,-0.8675,-0.8952,-0.9036,-0.8853,-0.8763,-0.887,-0.8917,-0.8865,-0.8849,-0.8849,-0.8781,-0.8741,-0.8491,-0.8032,-0.7667,-0.7734,-0.7719,-0.7646,-0.7738,-0.7849,-0.7655,-0.7836,-0.7841,-0.7946,-0.7626,-0.7473,-0.7527,-0.7788,-0.8373,-0.8749,-0.7006,-0.7094,-0.7141,-0.7301,-0.756,-0.7542,-0.7709,-0.7976,-0.8003,-0.7995,-0.8054,-0.823,-0.8494,-0.8721,-0.8781,-0.8791,-0.8784,-0.8718,-0.8738,-0.8527,-0.8533,-0.8103,-0.767,-0.7509,-0.7509,-0.7456,-0.7074,-0.6362,-0.5869,-0.5597,-0.5923,-0.5597,-0.6091,-0.6041,-0.5492,-0.5324,-0.5167,-0.4791,-0.4736,-0.4897,-0.5324,-0.5584,-0.6323,-0.734,-0.8131,-0.848,-0.8533,-0.8699,-0.8804,-0.8804,-0.8804,-0.8804,-0.8804,-0.8804,-0.8804,-0.8857,-0.8962,-0.9008,-0.9061,-0.8956,-0.891,-0.8804,-0.8692,-0.8639,-0.8678,-0.8851,-0.8748,-0.8575,-0.8346,-0.8644,-0.874,-0.8421,-0.813,-0.809,-0.8056,-0.7996,-0.7895,-0.749,-0.7374,-0.7341,-0.7622,-0.7902,-0.8132,-0.8405,-0.8304,-0.8235,-0.8509,-0.8661,-0.8495,-0.8508,-0.8687,-0.8806,-0.881,-0.8804,-0.8804,-0.8791,-0.8716,-0.8606,-0.8254,-0.8088,-0.7888,-0.7769,-0.7679,-0.7419,-0.7371,-0.726,-0.7197,-0.7317,-0.7267,-0.7022,-0.7231,-0.7527,-0.7781,-0.8032,-0.8265,-0.7153,-0.7459,-0.7669,-0.7769,-0.7802,-0.7809,-0.7975,-0.827,-0.8303,-0.8444,-0.8631,-0.8652,-0.8711,-0.8797,-0.8764,-0.8804,-0.8699,-0.8646,-0.8427,-0.799,-0.783,-0.7509,-0.6907,-0.6799,-0.675,-0.675,-0.6475,-0.6036,-0.5814,-0.6036,-0.555,-0.5058,-0.5328,-0.5332,-0.4897,-0.468,-0.4677,-0.4515,-0.4519,-0.4625,-0.4809,-0.5309,-0.5873,-0.6838,-0.7521,-0.7854,-0.8049,-0.8427,-0.8804,-0.8804,-0.8804,-0.8752,-0.8646,-0.8646,-0.8699,-0.8752,-0.8699,-0.8646,-0.8646,-0.8699,-0.8752,-0.8646,-0.8209,-0.7883,-0.8002,-0.8353,-0.8343,-0.8239,-0.8404,-0.8696,-0.8781,-0.8416,-0.8579,-0.8539,-0.8278,-0.8147,-0.8071,-0.7901,-0.7669,-0.7765,-0.8119,-0.8387,-0.8518,-0.8622,-0.8557,-0.8497,-0.8632,-0.8747,-0.8666,-0.8664,-0.8724,-0.8764,-0.8791,-0.8804,-0.8804,-0.8791,-0.8776,-0.8783,-0.8568,-0.8367,-0.8178,-0.7969,-0.7749,-0.7756,-0.7511,-0.7354,-0.7238,-0.7077,-0.7206,-0.7367,-0.757,-0.7722,-0.7948,-0.8164,-0.7972,-0.6842,-0.6666,-0.7062,-0.7394,-0.7542,-0.7604,-0.7967,-0.8577,-0.8604,-0.8671,-0.8771,-0.8804,-0.8804,-0.8804,-0.8804,-0.8593,-0.8321,-0.8209,-0.783,-0.7235,-0.7074,-0.6745,-0.6091,-0.6036,-0.5769,-0.5609,-0.55,-0.5601,-0.5483,-0.5382,-0.5171,-0.4787,-0.4842,-0.4787,-0.457,-0.4515,-0.4463,-0.4463,-0.4522,-0.4567,-0.4702,-0.5307,-0.5923,-0.6284,-0.6853,-0.7187,-0.7192,-0.7396,-0.767,-0.7616,-0.767,-0.767,-0.7723,-0.7777,-0.799,-0.854,-0.8427,-0.8209,-0.8103,-0.7937,-0.7616,-0.761,-0.7289,-0.7182,-0.7192,-0.7436,-0.7751,-0.8075,-0.7521,-0.767,-0.7593,-0.767,-0.767,-0.7652,-0.7547,-0.7547,-0.7535,-0.7593,-0.7768,-0.8075,-0.8444,-0.8599,-0.8704,-0.8734,-0.8788,-0.8797,-0.8798,-0.8804,-0.8804,-0.8804,-0.8804,-0.8804,-0.8804,-0.8804,-0.8804,-0.8798,-0.8784,-0.8806,-0.8762,-0.8558,-0.8474,-0.831,-0.8343,-0.8377,-0.8078,-0.7667,-0.7363,-0.7239,-0.7521,-0.7795,-0.8065,-0.8282,-0.8234,-0.8241,-0.8105,-0.624,-0.5888,-0.6091,-0.6571,-0.7138,-0.7315,-0.7847,-0.8508,-0.8738,-0.8791,-0.8804,-0.8804,-0.8804,-0.8752,-0.8586,-0.8262,-0.767,-0.761,-0.7074,-0.6524,-0.6362,-0.5977,-0.5487,-0.5214,-0.5109,-0.4791,-0.4684,-0.4787,-0.5054,-0.4893,-0.457,-0.4515,-0.4519,-0.4519,-0.4463,-0.4463,-0.4463,-0.4525,-0.4563,-0.4592,-0.4869,-0.5378,-0.5723,-0.5722,-0.6349,-0.6653,-0.6483,-0.6788,-0.6802,-0.6771,-0.6696,-0.6642,-0.6588,-0.6588,-0.7133,-0.7996,-0.7777,-0.7557,-0.7343,-0.7074,-0.6804,-0.6858,-0.6534,-0.6421,-0.6421,-0.6485,-0.6776,-0.7535,-0.7404,-0.646,-0.6342,-0.647,-0.6637,-0.6696,-0.6696,-0.6637,-0.6784,-0.6993,-0.7315,-0.7776,-0.8453,-0.8752,-0.8758,-0.8778,-0.8791,-0.881,-0.8804,-0.8804,-0.8804,-0.8804,-0.8804,-0.8804,-0.8804,-0.8804,-0.8804,-0.8804,-0.8798,-0.8803,-0.8763,-0.8716,-0.8697,-0.8711,-0.8731,-0.8671,-0.8459,-0.8111,-0.7749,-0.7576,-0.7866,-0.8176,-0.8616,-0.8714,-0.8552,-0.8452,-0.836,-0.5344,-0.6059,-0.5137,-0.5498,-0.6694,-0.734,-0.7682,-0.7877,-0.8533,-0.8804,-0.8765,-0.8804,-0.8804,-0.8646,-0.8103,-0.783,-0.7557,-0.6961,-0.6367,-0.5814,-0.5651,-0.5328,-0.4732,-0.4625,-0.4677,-0.4463,-0.4463,-0.4519,-0.4705,-0.4595,-0.4519,-0.4522,-0.4477,-0.4463,-0.4463,-0.4463,-0.4463,-0.4484,-0.4596,-0.4713,-0.4887,-0.502,-0.5139,-0.5243,-0.5683,-0.6049,-0.5993,-0.628,-0.6551,-0.646,-0.6485,-0.6588,-0.6588,-0.6588,-0.6642,-0.6804,-0.675,-0.6745,-0.6696,-0.648,-0.6317,-0.6204,-0.5928,-0.5706,-0.5651,-0.5597,-0.5542,-0.4969,-0.5806,-0.5968,-0.54,-0.5905,-0.6362,-0.6426,-0.6263,-0.6372,-0.6431,-0.5991,-0.6431,-0.6761,-0.7241,-0.8221,-0.8699,-0.8738,-0.8765,-0.8785,-0.8804,-0.8804,-0.8804,-0.8804,-0.8804,-0.8804,-0.8804,-0.8804,-0.8804,-0.8804,-0.8804,-0.8804,-0.8804,-0.8804,-0.8804,-0.8804,-0.8804,-0.8731,-0.8611,-0.8577,-0.8331,-0.8241,-0.8369,-0.8477,-0.8737,-0.8796,-0.8776,-0.8684,-0.8571,-0.4766,-0.5218,-0.4678,-0.5089,-0.6032,-0.6745,-0.7074,-0.7343,-0.8321,-0.8771,-0.8791,-0.8765,-0.8804,-0.8586,-0.8043,-0.7723,-0.745,-0.6524,-0.5869,-0.5437,-0.5109,-0.4791,-0.457,-0.4519,-0.4463,-0.4484,-0.4477,-0.4531,-0.4555,-0.4585,-0.4562,-0.4546,-0.4541,-0.4541,-0.4504,-0.4467,-0.4463,-0.4528,-0.4687,-0.4891,-0.5033,-0.5121,-0.5131,-0.5004,-0.5355,-0.5441,-0.543,-0.5467,-0.5637,-0.5526,-0.5464,-0.5386,-0.5391,-0.5391,-0.5391,-0.5391,-0.5391,-0.555,-0.5873,-0.566,-0.555,-0.5441,-0.5113,-0.4948,-0.4948,-0.4948,-0.4889,-0.4611,-0.5054,-0.5046,-0.4703,-0.5046,-0.5273,-0.5445,-0.5609,-0.5555,-0.5555,-0.5332,-0.5277,-0.5655,-0.6091,-0.7182,-0.8228,-0.8738,-0.8751,-0.8778,-0.8804,-0.8804,-0.8804,-0.8804,-0.8804,-0.8804,-0.8804,-0.8804,-0.8804,-0.8804,-0.8804,-0.8804,-0.8804,-0.8804,-0.8804,-0.8804,-0.8804,-0.8804,-0.8738,-0.8738,-0.8745,-0.8698,-0.8605,-0.8665,-0.8798,-0.8811,-0.8811,-0.8791,-0.8711,-0.4463,-0.4463,-0.4463,-0.4783,-0.5328,-0.6041,-0.6312,-0.647,-0.767,-0.83,-0.8372,-0.8174,-0.809,-0.8156,-0.761,-0.7235,-0.7009,-0.5977,-0.5487,-0.5109,-0.4794,-0.4598,-0.4524,-0.4528,-0.4551,-0.4575,-0.4505,-0.4602,-0.4728,-0.4772,-0.4745,-0.4589,-0.4701,-0.4691,-0.4619,-0.4609,-0.4633,-0.4711,-0.4874,-0.5026,-0.5148,-0.5343,-0.5312,-0.5196,-0.5155,-0.5121,-0.4979,-0.4944,-0.4872,-0.4841,-0.4836,-0.4848,-0.4784,-0.4851,-0.4809,-0.4787,-0.4766,-0.4894,-0.5085,-0.4952,-0.457,-0.4463,-0.4463,-0.457,-0.457,-0.4463,-0.446,-0.4515,-0.457,-0.457,-0.4515,-0.457,-0.468,-0.4736,-0.468,-0.4515,-0.4515,-0.4622,-0.4728,-0.4944,-0.5492,-0.6204,-0.7241,-0.834,-0.8725,-0.8758,-0.8804,-0.8804,-0.8752,-0.8752,-0.8752,-0.8752,-0.8811,-0.8811,-0.8804,-0.8804,-0.8804,-0.8699,-0.8646,-0.8752,-0.8699,-0.8752,-0.8804,-0.8804,-0.8699,-0.8771,-0.8778,-0.8778,-0.8771,-0.8765,-0.8765,-0.8765,-0.8765,-0.8811,-0.8804,-0.4463,-0.4463,-0.4463,-0.4519,-0.4625,-0.5273,-0.5597,-0.5655,-0.6475,-0.7203,-0.7382,-0.6691,-0.6563,-0.6632,-0.6686,-0.6367,-0.576,-0.5542,-0.5242,-0.4864,-0.4532,-0.4575,-0.4636,-0.4632,-0.4614,-0.477,-0.47,-0.4777,-0.4857,-0.4989,-0.4969,-0.4918,-0.4897,-0.4897,-0.4857,-0.4809,-0.4884,-0.4955,-0.507,-0.5165,-0.5267,-0.5411,-0.5401,-0.5401,-0.5387,-0.5274,-0.5128,-0.507,-0.5006,-0.4904,-0.4843,-0.4819,-0.4802,-0.4809,-0.4762,-0.4697,-0.4674,-0.4741,-0.4734,-0.4653,-0.4515,-0.4463,-0.4463,-0.4463,-0.4463,-0.4463,-0.4463,-0.4463,-0.4463,-0.4463,-0.4463,-0.4463,-0.4463,-0.4463,-0.4463,-0.4463,-0.4463,-0.4515,-0.4567,-0.4508,-0.4944,-0.566,-0.683,-0.8045,-0.8679,-0.8771,-0.8804,-0.8804,-0.8699,-0.8699,-0.8699,-0.8758,-0.8758,-0.8811,-0.8804,-0.8758,-0.8659,-0.8321,-0.815,-0.8421,-0.8593,-0.8646,-0.8321,-0.848,-0.8374,-0.8572,-0.8652,-0.8378,-0.8312,-0.8672,-0.8778,-0.8785,-0.8771,-0.8811,-0.8804,-0.4463,-0.4463,-0.4463,-0.4463,-0.4574,-0.5218,-0.5273,-0.5222,-0.6583,-0.7063,-0.6838,-0.6225,-0.5671,-0.5508,-0.5806,-0.6091,-0.6005,-0.5237,-0.5148,-0.5152,-0.5042,-0.4831,-0.4766,-0.4777,-0.48,-0.4921,-0.4931,-0.4979,-0.5053,-0.5188,-0.5243,-0.5212,-0.5087,-0.4989,-0.4952,-0.4955,-0.5023,-0.5101,-0.5148,-0.5209,-0.5328,-0.5428,-0.5428,-0.5428,-0.5428,-0.5404,-0.5264,-0.5172,-0.5108,-0.5047,-0.4975,-0.4955,-0.4948,-0.4945,-0.4908,-0.4843,-0.483,-0.4785,-0.4701,-0.4582,-0.4467,-0.4463,-0.4463,-0.4467,-0.448,-0.4522,-0.4463,-0.4463,-0.4463,-0.4463,-0.4463,-0.4463,-0.4463,-0.4463,-0.4463,-0.4463,-0.4463,-0.4463,-0.446,-0.4512,-0.4728,-0.5222,-0.6564,-0.7919,-0.8432,-0.8778,-0.8765,-0.8752,-0.8586,-0.8421,-0.8374,-0.8619,-0.8679,-0.8791,-0.8785,-0.8625,-0.8459,-0.7937,-0.7481,-0.7706,-0.7871,-0.7509,-0.7295,-0.767,-0.7949,-0.7979,-0.789,-0.7746,-0.749,-0.7084,-0.7812,-0.8811,-0.8791,-0.8758,-0.8804,-0.4463,-0.4463,-0.4463,-0.4463,-0.457,-0.5003,-0.4948,-0.4791,-0.6041,-0.6509,-0.5941,-0.5575,-0.5132,-0.4805,-0.5317,-0.5635,-0.5759,-0.5419,-0.5374,-0.5258,-0.5026,-0.4938,-0.4969,-0.4931,-0.4951,-0.5092,-0.5251,-0.5318,-0.5196,-0.5331,-0.5383,-0.5349,-0.5257,-0.5148,-0.5098,-0.5053,-0.5101,-0.5176,-0.5209,-0.5237,-0.5422,-0.5428,-0.5428,-0.5428,-0.5428,-0.5425,-0.5328,-0.5264,-0.5223,-0.5179,-0.5128,-0.507,-0.5057,-0.5047,-0.5026,-0.4999,-0.4979,-0.4969,-0.4867,-0.4755,-0.4599,-0.4636,-0.4618,-0.4551,-0.4524,-0.4549,-0.4463,-0.4463,-0.4463,-0.4463,-0.4463,-0.4463,-0.4463,-0.4463,-0.4463,-0.4463,-0.4463,-0.4463,-0.4463,-0.4515,-0.4732,-0.4893,-0.5601,-0.6885,-0.7705,-0.8008,-0.7842,-0.7937,-0.8156,-0.7996,-0.7777,-0.8133,-0.8611,-0.8718,-0.8778,-0.8538,-0.8074,-0.6352,-0.6133,-0.6651,-0.6714,-0.6465,-0.6588,-0.7074,-0.7252,-0.7225,-0.7122,-0.6965,-0.6067,-0.5015,-0.6523,-0.8425,-0.8459,-0.8427,-0.8699,-0.4463,-0.4463,-0.4463,-0.4463,-0.4519,-0.4515,-0.4519,-0.4519,-0.4736,-0.4897,-0.4956,-0.4798,-0.4643,-0.4671,-0.5296,-0.5423,-0.5238,-0.5545,-0.557,-0.5107,-0.5102,-0.503,-0.5024,-0.5075,-0.5108,-0.5311,-0.537,-0.5415,-0.5397,-0.5384,-0.5415,-0.5422,-0.5328,-0.5311,-0.5338,-0.5411,-0.5415,-0.5415,-0.5404,-0.5411,-0.5422,-0.5428,-0.5428,-0.5428,-0.5428,-0.5428,-0.5411,-0.5401,-0.5308,-0.5298,-0.5294,-0.527,-0.5277,-0.5349,-0.524,-0.5138,-0.5131,-0.5067,-0.4948,-0.4918,-0.4894,-0.4826,-0.4707,-0.466,-0.4643,-0.4568,-0.4484,-0.4504,-0.4477,-0.4463,-0.4463,-0.4463,-0.4463,-0.4463,-0.4463,-0.4463,-0.4463,-0.4463,-0.4463,-0.4463,-0.446,-0.4563,-0.5039,-0.5742,-0.674,-0.7128,-0.6912,-0.7074,-0.7563,-0.7563,-0.7348,-0.7605,-0.8133,-0.7854,-0.7901,-0.8265,-0.7628,-0.5694,-0.4869,-0.5554,-0.6013,-0.6027,-0.6199,-0.6583,-0.6426,-0.6223,-0.6232,-0.6237,-0.5358,-0.4888,-0.6543,-0.7967,-0.8002,-0.8049,-0.8156,-0.4463,-0.4463,-0.4463,-0.4463,-0.4463,-0.4463,-0.4463,-0.4463,-0.4574,-0.5018,-0.555,-0.5072,-0.4673,-0.4894,-0.499,-0.5076,-0.4987,-0.5109,-0.5119,-0.5133,-0.5142,-0.5226,-0.527,-0.527,-0.5304,-0.5345,-0.5428,-0.5369,-0.5422,-0.5456,-0.5439,-0.5428,-0.547,-0.5428,-0.5425,-0.5428,-0.5425,-0.5425,-0.5425,-0.5428,-0.5428,-0.5428,-0.5428,-0.5428,-0.5432,-0.5442,-0.5449,-0.5452,-0.5463,-0.5386,-0.5382,-0.5439,-0.5432,-0.5428,-0.5335,-0.5281,-0.5277,-0.5267,-0.522,-0.5196,-0.5104,-0.4965,-0.4816,-0.4769,-0.4802,-0.4592,-0.4548,-0.4505,-0.4538,-0.4514,-0.4463,-0.4522,-0.4525,-0.4463,-0.4463,-0.4463,-0.4463,-0.4463,-0.4463,-0.4463,-0.446,-0.4501,-0.4758,-0.5093,-0.5923,-0.6362,-0.6204,-0.6799,-0.7343,-0.7235,-0.7074,-0.7191,-0.7399,-0.6972,-0.687,-0.7063,-0.7566,-0.6608,-0.5311,-0.4816,-0.5156,-0.5433,-0.5597,-0.5764,-0.5441,-0.5171,-0.5344,-0.5348,-0.5062,-0.5218,-0.6258,-0.6912,-0.7009,-0.7015,-0.7074,-0.4463,-0.4522,-0.4577,-0.4597,-0.4587,-0.4543,-0.4463,-0.4529,-0.457,-0.5106,-0.5546,-0.5053,-0.489,-0.4998,-0.4975,-0.4931,-0.5009,-0.5142,-0.5213,-0.5226,-0.5304,-0.5401,-0.5415,-0.5428,-0.5348,-0.5372,-0.541,-0.5426,-0.5446,-0.5474,-0.5525,-0.5538,-0.5511,-0.5542,-0.5511,-0.546,-0.5428,-0.5428,-0.5428,-0.5428,-0.5428,-0.5428,-0.5428,-0.5446,-0.5473,-0.5514,-0.5457,-0.5471,-0.5488,-0.546,-0.5437,-0.5476,-0.5452,-0.5428,-0.5428,-0.5428,-0.5425,-0.5422,-0.5408,-0.5338,-0.5233,-0.5118,-0.4928,-0.4901,-0.4938,-0.4779,-0.4607,-0.4588,-0.4596,-0.4633,-0.4666,-0.4659,-0.4582,-0.4582,-0.4585,-0.4592,-0.4497,-0.4497,-0.4507,-0.4501,-0.446,-0.4498,-0.4488,-0.4769,-0.5222,-0.5386,-0.555,-0.6312,-0.6966,-0.6853,-0.6804,-0.7047,-0.7095,-0.6853,-0.6239,-0.5612,-0.6273,-0.7138,-0.605,-0.4577,-0.456,-0.4893,-0.4944,-0.5003,-0.4904,-0.4798,-0.4629,-0.4515,-0.4588,-0.4577,-0.4882,-0.5425,-0.5806,-0.614,-0.6372,-0.4522,-0.4546,-0.4687,-0.4749,-0.4677,-0.4622,-0.4497,-0.4549,-0.4636,-0.4694,-0.4588,-0.4917,-0.505,-0.5272,-0.5206,-0.5138,-0.5152,-0.5284,-0.5318,-0.5338,-0.5418,-0.5428,-0.5428,-0.5428,-0.5449,-0.543,-0.541,-0.5436,-0.5423,-0.5599,-0.5732,-0.5759,-0.5722,-0.5722,-0.5657,-0.5566,-0.5443,-0.5494,-0.5439,-0.5435,-0.5428,-0.5456,-0.548,-0.5521,-0.5521,-0.5579,-0.562,-0.5671,-0.5667,-0.5633,-0.5583,-0.5498,-0.5494,-0.5435,-0.5428,-0.5428,-0.5428,-0.5428,-0.5428,-0.5428,-0.5422,-0.5267,-0.5186,-0.5152,-0.5077,-0.4965,-0.482,-0.4753,-0.4853,-0.487,-0.4937,-0.484,-0.4806,-0.4809,-0.4813,-0.4728,-0.4589,-0.4558,-0.4572,-0.4548,-0.4487,-0.4512,-0.4508,-0.4677,-0.4842,-0.5007,-0.5289,-0.5711,-0.6306,-0.6421,-0.6539,-0.7036,-0.7041,-0.6877,-0.6201,-0.5381,-0.5068,-0.6001,-0.5592,-0.4497,-0.448,-0.4519,-0.4622,-0.4736,-0.4588,-0.449,-0.4528,-0.4475,-0.4524,-0.4507,-0.4511,-0.4629,-0.5183,-0.5714,-0.5987,-0.4524,-0.4629,-0.4674,-0.4752,-0.484,-0.4806,-0.4728,-0.4657,-0.4785,-0.4793,-0.4803,-0.4944,-0.5199,-0.5409,-0.5359,-0.5343,-0.5373,-0.5397,-0.5415,-0.5432,-0.5446,-0.5432,-0.5435,-0.5452,-0.5426,-0.5504,-0.55,-0.556,-0.5671,-0.5803,-0.5813,-0.5793,-0.5847,-0.5833,-0.5796,-0.5715,-0.5623,-0.5535,-0.5525,-0.5476,-0.5494,-0.5542,-0.5586,-0.5669,-0.5681,-0.5732,-0.5766,-0.58,-0.5789,-0.5755,-0.5647,-0.5555,-0.5538,-0.543,-0.5428,-0.5428,-0.5428,-0.5428,-0.5428,-0.5428,-0.5428,-0.5428,-0.5304,-0.5308,-0.523,-0.5111,-0.4999,-0.5023,-0.5078,-0.5133,-0.513,-0.5044,-0.4948,-0.4931,-0.4935,-0.4887,-0.4755,-0.4704,-0.4711,-0.4528,-0.4522,-0.4504,-0.4497,-0.4515,-0.468,-0.4846,-0.5089,-0.552,-0.6036,-0.6275,-0.6639,-0.7209,-0.7544,-0.7577,-0.6469,-0.5567,-0.4987,-0.4586,-0.4552,-0.4568,-0.4531,-0.4567,-0.4477,-0.449,-0.4594,-0.4529,-0.4512,-0.4521,-0.4551,-0.4525,-0.4515,-0.4498,-0.4605,-0.5144,-0.5395,-0.4663,-0.4701,-0.4819,-0.4921,-0.5003,-0.5067,-0.5006,-0.4901,-0.4965,-0.4941,-0.4957,-0.5159,-0.5288,-0.5366,-0.538,-0.5418,-0.5418,-0.5418,-0.5428,-0.5439,-0.5426,-0.5399,-0.5399,-0.5474,-0.5549,-0.562,-0.5701,-0.5789,-0.5833,-0.5888,-0.5911,-0.6003,-0.5983,-0.5979,-0.5973,-0.5925,-0.585,-0.5749,-0.5644,-0.5603,-0.5682,-0.5676,-0.5761,-0.5779,-0.5857,-0.5881,-0.5901,-0.5925,-0.5949,-0.5908,-0.5789,-0.5732,-0.5677,-0.5542,-0.5457,-0.545,-0.5452,-0.5439,-0.5428,-0.5428,-0.5428,-0.5428,-0.5432,-0.5422,-0.5384,-0.5223,-0.5264,-0.5267,-0.5343,-0.5367,-0.5297,-0.5224,-0.5116,-0.5016,-0.5026,-0.504,-0.4969,-0.4894,-0.4773,-0.4588,-0.451,-0.4539,-0.4541,-0.4501,-0.4688,-0.5081,-0.5413,-0.5724,-0.6473,-0.7184,-0.7493,-0.7977,-0.8273,-0.8408,-0.7259,-0.6217,-0.5494,-0.5015,-0.4716,-0.4721,-0.4694,-0.4649,-0.4589,-0.4602,-0.4626,-0.4626,-0.4641,-0.4693,-0.4723,-0.469,-0.4716,-0.4676,-0.4643,-0.4699,-0.4838,-0.4817,-0.4741,-0.5026,-0.5145,-0.5165,-0.5284,-0.5264,-0.5155,-0.5145,-0.5085,-0.5044,-0.5229,-0.5408,-0.5397,-0.5425,-0.5428,-0.5446,-0.5459,-0.542,-0.5396,-0.5545,-0.5552,-0.5555,-0.5577,-0.5627,-0.5823,-0.5974,-0.6082,-0.5911,-0.5979,-0.6112,-0.6257,-0.6227,-0.6196,-0.6166,-0.6095,-0.603,-0.5996,-0.5898,-0.5875,-0.5806,-0.5779,-0.5795,-0.5892,-0.5946,-0.6051,-0.6081,-0.6132,-0.62,-0.6098,-0.6003,-0.5932,-0.5789,-0.5684,-0.5623,-0.5583,-0.5511,-0.5481,-0.5471,-0.5474,-0.55,-0.548,-0.5449,-0.5446,-0.5418,-0.538,-0.5367,-0.5363,-0.538,-0.5373,-0.537,-0.5301,-0.527,-0.5186,-0.5186,-0.5169,-0.5111,-0.5033,-0.489,-0.4699,-0.4611,-0.4653,-0.4639,-0.4663,-0.47,-0.5257,-0.5672,-0.5961,-0.6716,-0.7692,-0.7971,-0.8288,-0.8334,-0.8516,-0.8777,-0.7691,-0.6263,-0.5646,-0.5225,-0.5005,-0.4977,-0.4866,-0.4707,-0.4741,-0.4779,-0.4836,-0.484,-0.4856,-0.4954,-0.5085,-0.5118,-0.4985,-0.4886,-0.4738,-0.4633,-0.488,-0.4891,-0.5186,-0.5304,-0.5311,-0.5411,-0.5342,-0.5308,-0.5304,-0.5298,-0.5311,-0.5338,-0.5428,-0.5428,-0.5428,-0.5428,-0.5442,-0.5528,-0.5525,-0.5572,-0.5677,-0.5715,-0.5701,-0.5708,-0.5771,-0.5928,-0.6159,-0.6231,-0.6184,-0.6169,-0.621,-0.6254,-0.6261,-0.6261,-0.6257,-0.6186,-0.6179,-0.6169,-0.6129,-0.602,-0.5995,-0.5952,-0.6034,-0.6132,-0.6193,-0.6186,-0.6203,-0.6217,-0.6244,-0.62,-0.6081,-0.5956,-0.581,-0.5772,-0.5752,-0.5739,-0.5698,-0.5657,-0.5647,-0.5633,-0.5606,-0.5552,-0.5515,-0.5521,-0.5476,-0.5446,-0.5428,-0.5432,-0.5428,-0.5428,-0.5425,-0.5422,-0.5415,-0.5404,-0.5394,-0.5284,-0.524,-0.5162,-0.5011,-0.4934,-0.4783,-0.4803,-0.479,-0.483,-0.4876,-0.5166,-0.5707,-0.6194,-0.7084,-0.7903,-0.7698,-0.7903,-0.7864,-0.8171,-0.8949,-0.9273,-0.7922,-0.6373,-0.5677,-0.5443,-0.5261,-0.5026,-0.4863,-0.4904,-0.4887,-0.4934,-0.5008,-0.5192,-0.5267,-0.5378,-0.5339,-0.5199,-0.5133,-0.5001,-0.4906,-0.4935,-0.504,-0.5264,-0.5428,-0.5428,-0.5428,-0.5428,-0.5428,-0.5428,-0.5428,-0.5428,-0.5428,-0.5428,-0.5428,-0.5428,-0.5435,-0.5463,-0.5518,-0.5559,-0.5633,-0.5789,-0.5823,-0.5867,-0.5928,-0.5973,-0.6054,-0.6197,-0.6266,-0.6251,-0.6257,-0.6254,-0.6261,-0.6261,-0.6261,-0.6261,-0.6261,-0.6261,-0.6254,-0.6261,-0.619,-0.616,-0.6125,-0.6159,-0.6251,-0.6261,-0.6261,-0.6261,-0.6261,-0.6261,-0.6254,-0.6176,-0.6132,-0.6023,-0.5952,-0.5911,-0.5878,-0.584,-0.58,-0.581,-0.5806,-0.5779,-0.5711,-0.561,-0.5528,-0.5583,-0.5481,-0.542,-0.5413,-0.5435,-0.5428,-0.5428,-0.5425,-0.5425,-0.5418,-0.5415,-0.5391,-0.5373,-0.527,-0.5226,-0.5199,-0.5104,-0.5144,-0.5109,-0.5029,-0.5136,-0.5555,-0.6013,-0.6104,-0.7026,-0.7819,-0.7633,-0.7732,-0.7819,-0.8567,-0.9756,-1.0045,-0.9648,-0.8085,-0.64,-0.5635,-0.5262,-0.5102,-0.502,-0.5047,-0.5084,-0.5135,-0.5226,-0.5311,-0.5332,-0.5387,-0.5427,-0.5349,-0.5336,-0.5273,-0.514,-0.5068,-0.5179,-0.5304,-0.5428,-0.5428,-0.5428,-0.5428,-0.5428,-0.5428,-0.5428,-0.5428,-0.5428,-0.5428,-0.5428,-0.5456,-0.5459,-0.5467,-0.565,-0.5671,-0.5752,-0.5949,-0.5989,-0.604,-0.6101,-0.6122,-0.6142,-0.619,-0.63,-0.6257,-0.6261,-0.6261,-0.6261,-0.6261,-0.6261,-0.6261,-0.6261,-0.6261,-0.6261,-0.6261,-0.6261,-0.6254,-0.6261,-0.6254,-0.6254,-0.6261,-0.6261,-0.6261,-0.6261,-0.6261,-0.6254,-0.6244,-0.6224,-0.619,-0.6108,-0.6078,-0.6037,-0.5983,-0.5932,-0.5905,-0.5918,-0.5881,-0.5813,-0.5698,-0.564,-0.5637,-0.5589,-0.546,-0.5484,-0.5507,-0.5386,-0.5389,-0.5439,-0.5439,-0.5439,-0.5439,-0.5439,-0.5435,-0.5432,-0.5359,-0.5348,-0.5408,-0.5371,-0.5315,-0.5227,-0.545,-0.5871,-0.608,-0.6162,-0.6502,-0.7149,-0.7423,-0.78,-0.8202,-0.9174,-1.0301,-1.0193,-0.9924,-0.9467,-0.7782,-0.6342,-0.5264,-0.524,-0.5165,-0.5165,-0.5206,-0.5243,-0.5281,-0.5342,-0.5415,-0.5428,-0.5387,-0.5425,-0.5356,-0.5315,-0.5363,-0.5335,-0.5321,-0.5352,-0.5428,-0.5428,-0.5428,-0.5428,-0.5428,-0.5428,-0.5428,-0.5372,-0.5432,-0.5428,-0.5439,-0.5501,-0.5617,-0.5728,-0.5854,-0.5911,-0.5993,-0.6101,-0.6152,-0.6179,-0.6193,-0.6227,-0.6234,-0.6237,-0.6251,-0.6261,-0.6261,-0.6261,-0.6261,-0.6261,-0.6261,-0.6261,-0.6261,-0.6264,-0.6278,-0.6288,-0.6288,-0.6362,-0.6355,-0.6261,-0.6261,-0.6261,-0.6261,-0.6261,-0.6261,-0.6261,-0.6261,-0.6261,-0.6261,-0.6244,-0.622,-0.6196,-0.6173,-0.6118,-0.6118,-0.6098,-0.6098,-0.6067,-0.5986,-0.5891,-0.584,-0.5741,-0.5613,-0.5641,-0.5828,-0.5762,-0.5504,-0.5477,-0.543,-0.5416,-0.5416,-0.5416,-0.5416,-0.5416,-0.5413,-0.541,-0.5406,-0.5386,-0.5411,-0.5404,-0.5349,-0.5329,-0.5639,-0.5614,-0.5803,-0.6238,-0.6677,-0.7134,-0.754,-0.8077,-0.9274,-1.0245,-0.979,-0.9556,-0.9468,-0.8799,-0.6824,-0.5549,-0.5391,-0.538,-0.5274,-0.5291,-0.5328,-0.5428,-0.541,-0.5413,-0.542,-0.5376,-0.5418,-0.5442,-0.548,-0.5457]}]]